[[{"header":{"parameterUnit":"m.s-1","parameterCategory":1,"la1":30.6,"la2":29.2853,"lo1":-89.7004,"lo2":-87.6739,"dy":0.0162,"dx":0.0183,"nx":112,"ny":82,"refTime":"2023-04-25T00:00:00:Z","depth":0,"parameterNumber":2,"parameterNumberName":"U-component_of_WINDS"},"data":[0.0,0.0,0.0,0.0,0.0,0.0,0.0,0.0,0.0,0.0,0.0,0.0,0.0,0.0,0.0,0.0,0.0,0.0,0.0,0.0,0.0,0.0,0.0,0.0,0.0,0.0,0.0,0.0,0.0,0.0,0.0,0.0,0.0,0.0,0.0,0.0,0.0,0.0,0.0,0.0,0.0,0.0,0.0,0.0,0.0,0.0,0.0,0.0,0.0,0.0,0.0,0.0,0.0,0.0,0.0,0.0,0.0,0.0,0.0,0.0,0.0,0.0,0.0,0.0,0.0,0.0,0.0,0.0,0.0,0.0,0.0,0.0,0.0,0.0,0.0,0.0,0.0,0.0,0.0,0.0,0.0,0.0,0.0,0.0,0.0,0.0,0.0,0.0,0.0,0.0,1.6391,2.2323,2.3649,2.3705,2.2473,2.3541,2.2277,1.7789,0.0,0.0,0.0,0.0,0.0,0.0,0.0,0.0,0.0,0.0,0.0,0.0,0.0,0.0,0.0,0.0,0.0,0.0,0.0,0.0,0.0,0.0,0.0,0.0,0.0,0.0,0.0,0.0,0.0,0.0,0.0,0.0,0.0,0.0,0.0,0.0,0.0,0.0,0.0,0.0,0.0,0.0,0.0,0.0,0.0,0.0,0.0,0.0,0.0,0.0,0.0,0.0,0.0,0.0,0.0,0.0,0.0,0.0,0.0,0.0,0.0,0.0,0.0,0.0,0.0,0.0,0.0,0.0,0.0,0.0,0.0,0.0,0.0,0.0,0.0,0.0,0.0,0.0,0.0,0.0,0.0,0.0,0.0,0.0,0.0,0.0,0.0,0.0,0.0,0.0,0.0,0.0,0.0,0.0,0.0,0.0,0.0,0.0,0.0,0.0,0.0,0.0,0.0,0.0,2.0414,2.3625,2.4077,2.4045,2.3904,2.3235,2.1582,1.8852,0.0,0.0,0.0,0.0,0.0,0.0,0.0,0.0,0.0,0.0,0.0,0.0,0.0,0.0,0.0,0.0,0.0,0.0,0.0,0.0,0.0,0.0,0.0,0.0,0.0,0.0,0.0,0.0,0.0,0.0,0.0,0.0,0.0,0.0,0.0,0.0,0.0,0.0,0.0,0.0,0.0,0.0,0.0,0.0,0.0,0.0,0.0,0.0,0.0,0.0,0.0,0.0,0.0,0.0,0.0,0.0,0.0,0.0,0.0,0.0,0.0,0.0,0.0,0.0,0.0,0.0,0.0,0.0,0.0,0.0,0.0,0.0,0.0,0.0,0.0,0.0,0.0,0.0,0.0,0.0,0.0,0.0,0.0,0.0,0.0,0.0,0.0,0.0,0.0,0.0,0.0,0.0,0.0,0.0,0.0,0.0,0.0,0.0,0.0,0.0,0.0,0.0,0.0,1.828,2.0736,2.2576,2.2832,2.2633,2.1776,2.2056,2.1011,1.8101,1.7964,0.0,0.0,0.0,0.0,0.0,0.0,0.0,0.0,0.0,0.0,0.0,0.0,0.0,0.0,0.0,0.0,0.0,0.0,0.0,0.0,0.0,0.0,0.0,0.0,0.0,0.0,0.0,0.0,0.0,0.0,0.0,0.0,0.0,0.0,0.0,0.0,0.0,0.0,0.0,0.0,0.0,0.0,0.0,0.0,0.0,0.0,0.0,0.0,0.0,0.0,0.0,0.0,0.0,0.0,0.0,0.0,0.0,0.0,0.0,0.0,0.0,0.0,0.0,0.0,0.0,0.0,0.0,0.0,0.0,0.0,0.0,0.0,0.0,0.0,0.0,0.0,0.0,0.0,0.0,0.0,0.0,0.0,0.0,0.0,0.0,0.0,0.0,0.0,0.0,0.0,0.0,0.0,0.0,0.0,0.0,0.0,0.0,0.0,0.0,0.0,0.0,0.0,1.9397,2.084,2.1583,2.1788,2.1479,2.0169,2.1072,2.0352,1.718,1.6957,0.0,0.0,0.0,0.0,0.0,0.0,0.0,0.0,0.0,0.0,0.0,0.0,0.0,0.0,0.0,0.0,0.0,0.0,0.0,0.0,0.0,0.0,0.0,0.0,0.0,0.0,0.0,0.0,0.0,0.0,0.0,0.0,0.0,0.0,0.0,0.0,0.0,0.0,0.0,0.0,0.0,0.0,0.0,0.0,0.0,0.0,0.0,0.0,0.0,0.0,0.0,0.0,0.0,0.0,0.0,0.0,0.0,0.0,0.0,0.0,0.0,0.0,0.0,0.0,0.0,0.0,0.0,0.0,0.0,0.0,0.0,0.0,0.0,0.0,0.0,0.0,0.0,0.0,0.0,0.0,0.0,0.0,0.0,0.0,0.0,0.0,0.0,0.0,0.0,0.0,0.0,0.0,0.0,0.0,0.0,0.0,0.0,0.0,0.0,0.0,0.0,0.0,2.0451,2.273,2.2177,2.2186,2.2198,2.2049,2.0876,1.9083,1.6797,1.6678,0.0,0.0,0.0,0.0,0.0,0.0,0.0,0.0,0.0,0.0,0.0,0.0,0.0,0.0,0.0,0.0,0.0,0.0,0.0,0.0,0.0,0.0,0.0,0.0,0.0,0.0,0.0,0.0,0.0,0.0,0.0,0.0,0.0,0.0,0.0,0.0,0.0,0.0,0.0,0.0,0.0,0.0,0.0,0.0,0.0,0.0,0.0,0.0,0.0,0.0,0.0,0.0,0.0,0.0,0.0,0.0,0.0,0.0,0.0,0.0,0.0,0.0,0.0,0.0,0.0,0.0,0.0,0.0,0.0,0.0,0.0,0.0,0.0,0.0,0.0,0.0,0.0,0.0,0.0,0.0,0.0,0.0,0.0,0.0,0.0,0.0,0.0,0.0,0.0,0.0,0.0,0.0,0.0,0.0,0.0,0.0,0.0,0.0,0.0,0.0,0.0,0.0,2.1404,2.3248,0.0,2.5171,2.4288,2.2372,2.2657,2.0982,1.6718,0.0,0.0,0.0,0.0,0.0,0.0,0.0,0.0,0.0,0.0,0.0,0.0,0.0,0.0,0.0,0.0,0.0,0.0,0.0,0.0,0.0,0.0,0.0,0.0,0.0,0.0,0.0,0.0,0.0,0.0,0.0,0.0,0.0,0.0,0.0,0.0,0.0,0.0,0.0,0.0,0.0,0.0,0.0,0.0,0.0,0.0,0.0,0.0,0.0,0.0,0.0,0.0,0.0,0.0,0.0,0.0,0.0,0.0,0.0,0.0,0.0,0.0,0.0,0.0,0.0,0.0,0.0,0.0,0.0,0.0,0.0,0.0,0.0,0.0,0.0,0.0,0.0,0.0,0.0,0.0,0.0,0.0,0.0,0.0,0.0,0.0,0.0,0.0,0.0,0.0,0.0,0.0,0.0,0.0,0.0,0.0,0.0,0.0,0.0,0.0,0.0,0.0,2.13,2.2766,2.4288,0.0,2.5758,2.4583,2.2372,2.3252,2.1641,1.6463,0.0,0.0,0.0,0.0,0.0,0.0,0.0,0.0,0.0,0.0,0.0,0.0,0.0,0.0,0.0,0.0,0.0,0.0,0.0,0.0,0.0,0.0,0.0,0.0,0.0,0.0,0.0,0.0,0.0,0.0,0.0,0.0,0.0,0.0,0.0,0.0,0.0,0.0,0.0,0.0,0.0,0.0,0.0,0.0,0.0,0.0,0.0,0.0,0.0,0.0,0.0,0.0,0.0,0.0,0.0,0.0,0.0,0.0,0.0,0.0,0.0,0.0,0.0,0.0,0.0,0.0,0.0,0.0,0.0,0.0,0.0,0.0,0.0,0.0,0.0,0.0,0.0,0.0,0.0,0.0,0.0,0.0,0.0,0.0,0.0,0.0,0.0,0.0,0.0,0.0,0.0,0.0,0.0,0.0,0.0,0.0,0.0,0.0,0.0,0.0,0.0,0.0,2.0911,2.426,2.6342,2.4864,2.3252,2.2223,2.2223,2.2223,2.0379,0.0,0.0,0.0,0.0,0.0,0.0,0.0,0.0,0.0,0.0,0.0,0.0,0.0,0.0,0.0,0.0,0.0,0.0,0.0,0.0,0.0,0.0,0.0,0.0,0.0,0.0,0.0,0.0,0.0,0.0,0.0,0.0,0.0,0.0,0.0,0.0,0.0,0.0,0.0,0.0,0.0,0.0,0.0,0.0,0.0,0.0,0.0,0.0,0.0,0.0,0.0,0.0,0.0,0.0,0.0,0.0,0.0,0.0,0.0,0.0,0.0,0.0,0.0,0.0,0.0,0.0,0.0,0.0,0.0,0.0,0.0,0.0,0.0,0.0,0.0,0.0,0.0,0.0,0.0,0.0,0.0,0.0,0.0,0.0,0.0,0.0,0.0,0.0,0.0,0.0,0.0,0.0,0.0,0.0,0.0,0.0,0.0,0.0,0.0,0.0,0.0,0.0,0.0,2.2483,2.5084,2.7085,2.7825,2.752,2.6794,2.5611,2.4583,2.2051,1.7913,0.0,0.0,0.0,0.0,0.0,0.0,0.0,0.0,0.0,0.0,0.0,0.0,0.0,0.0,0.0,0.0,0.0,0.0,0.0,0.0,0.0,0.0,0.0,0.0,0.0,0.0,0.0,0.0,0.0,0.0,0.0,0.0,0.0,0.0,0.0,0.0,0.0,0.0,0.0,0.0,0.0,0.0,0.0,0.0,0.0,0.0,0.0,0.0,0.0,0.0,0.0,0.0,0.0,0.0,0.0,0.0,0.0,0.0,0.0,0.0,0.0,0.0,0.0,0.0,0.0,0.0,0.0,0.0,0.0,0.0,0.0,0.0,0.0,0.0,0.0,0.0,0.0,0.0,0.0,0.0,0.0,0.0,0.0,0.0,0.0,0.0,0.0,0.0,0.0,0.0,0.0,0.0,0.0,0.0,0.0,0.0,0.0,0.0,0.0,0.0,0.0,0.0,2.3685,2.6172,2.8259,2.9154,2.8707,2.797,2.6939,2.5465,2.3285,2.017,0.0,0.0,0.0,0.0,0.0,0.0,0.0,0.0,0.0,0.0,0.0,0.0,0.0,0.0,0.0,0.0,0.0,0.0,0.0,0.0,0.0,0.0,0.0,0.0,0.0,0.0,0.0,0.0,0.0,0.0,0.0,0.0,0.0,0.0,0.0,0.0,0.0,0.0,0.0,0.0,0.0,0.0,0.0,0.0,0.0,0.0,0.0,0.0,0.0,0.0,0.0,0.0,0.0,0.0,0.0,0.0,0.0,0.0,0.0,0.0,0.0,0.0,0.0,0.0,0.0,0.0,0.0,0.0,0.0,0.0,0.0,0.0,0.0,0.0,0.0,0.0,0.0,0.0,0.0,0.0,0.0,0.0,0.0,0.0,0.0,0.0,0.0,0.0,0.0,0.0,0.0,0.0,0.0,0.0,0.0,0.0,0.0,0.0,0.0,0.0,0.0,0.0,2.4424,2.7286,2.9345,2.9345,2.8046,2.7173,2.7173,2.5842,2.4152,2.2485,0.0,0.0,0.0,0.0,0.0,0.0,0.0,0.0,0.0,0.0,0.0,0.0,0.0,0.0,0.0,0.0,0.0,0.0,0.0,0.0,0.0,0.0,0.0,0.0,0.0,0.0,0.0,0.0,0.0,0.0,0.0,0.0,0.0,0.0,0.0,0.0,0.0,0.0,0.0,0.0,0.0,0.0,0.0,0.0,0.0,0.0,0.0,0.0,0.0,0.0,0.0,0.0,0.0,0.0,0.0,0.0,0.0,0.0,0.0,0.0,3.1547,0.0,0.0,0.0,0.0,0.0,0.0,0.0,0.0,0.0,0.0,0.0,0.0,0.0,0.0,0.0,0.0,0.0,0.0,0.0,0.0,0.0,0.0,0.0,0.0,0.0,0.0,0.0,0.0,0.0,0.0,0.0,0.0,0.0,0.0,0.0,0.0,0.0,0.0,0.0,0.0,0.0,2.476,2.7627,2.9711,2.9711,2.964,2.9649,2.9649,2.8134,2.6008,2.2819,2.0736,0.0,0.0,0.0,0.0,0.0,0.0,0.0,0.0,0.0,0.0,0.0,0.0,0.0,0.0,0.0,0.0,0.0,0.0,0.0,0.0,0.0,0.0,0.0,0.0,0.0,0.0,0.0,0.0,0.0,0.0,0.0,0.0,0.0,0.0,0.0,0.0,0.0,0.0,0.0,0.0,0.0,0.0,0.0,0.0,0.0,0.0,0.0,0.0,0.0,0.0,0.0,0.0,0.0,0.0,0.0,0.0,0.0,0.0,0.0,0.0,3.1878,0.0,0.0,0.0,0.0,0.0,0.0,0.0,0.0,0.0,0.0,0.0,0.0,0.0,0.0,0.0,0.0,0.0,0.0,0.0,0.0,0.0,0.0,0.0,0.0,0.0,0.0,0.0,0.0,0.0,0.0,0.0,0.0,0.0,0.0,0.0,0.0,0.0,0.0,0.0,0.0,2.4903,2.7948,3.006,3.006,3.0219,3.0315,3.0315,2.8957,2.7466,2.6442,2.3547,0.0,0.0,0.0,0.0,0.0,0.0,0.0,0.0,0.0,0.0,0.0,0.0,0.0,0.0,0.0,0.0,0.0,0.0,0.0,0.0,0.0,0.0,0.0,0.0,0.0,0.0,0.0,0.0,0.0,0.0,0.0,0.0,0.0,0.0,0.0,0.0,0.0,0.0,0.0,0.0,0.0,0.0,0.0,0.0,0.0,0.0,0.0,0.0,0.0,0.0,0.0,0.0,0.0,0.0,0.0,3.3679,3.3679,3.3679,3.372,3.461,3.49,3.4672,0.0,0.0,0.0,0.0,0.0,0.0,0.0,0.0,0.0,0.0,0.0,0.0,0.0,0.0,0.0,0.0,0.0,0.0,0.0,0.0,0.0,0.0,0.0,0.0,0.0,2.6953,2.7158,0.0,0.0,0.0,0.0,0.0,0.0,0.0,0.0,0.0,0.0,0.0,0.0,2.5141,2.8164,3.041,3.041,3.0473,3.0505,3.0505,2.929,2.8958,2.9797,2.6561,2.3909,0.0,0.0,0.0,0.0,0.0,0.0,0.0,0.0,0.0,0.0,0.0,0.0,0.0,0.0,0.0,0.0,0.0,0.0,0.0,0.0,0.0,0.0,0.0,0.0,0.0,0.0,0.0,0.0,0.0,0.0,0.0,0.0,2.6227,2.6988,0.0,0.0,0.0,0.0,0.0,0.0,0.0,0.0,0.0,0.0,0.0,0.0,0.0,0.0,3.2457,3.4196,3.5066,3.5086,3.6701,3.7467,3.7467,3.7467,3.7467,3.7405,3.637,0.0,3.4755,3.4569,0.0,0.0,0.0,0.0,0.0,0.0,0.0,0.0,0.0,0.0,0.0,0.0,0.0,0.0,0.0,0.0,0.0,0.0,0.0,0.0,0.0,0.0,3.0566,3.0772,2.9864,2.9402,0.0,2.7107,2.3662,2.5276,0.0,0.0,0.0,0.0,0.0,0.0,0.0,0.0,2.5359,2.8547,3.0791,3.0791,3.1061,3.1252,3.1252,3.1099,3.0176,2.83,2.7625,2.5364,2.1055,2.1219,0.0,0.0,0.0,0.0,0.0,0.0,0.0,0.0,0.0,0.0,0.0,0.0,0.0,0.0,0.0,0.0,0.0,0.0,0.0,0.0,0.0,0.0,0.0,0.0,0.0,0.0,0.0,0.0,0.0,2.7956,2.9259,3.0526,2.9879,2.895,0.0,0.0,0.0,0.0,0.0,0.0,0.0,0.0,0.0,3.3348,3.3948,3.4362,3.4631,3.6183,3.697,3.6991,3.7798,3.8191,3.8191,3.8191,3.8191,3.815,3.755,3.7053,3.6618,3.5852,3.5107,3.4279,0.0,0.0,0.0,0.0,0.0,3.0224,3.0139,0.0,0.0,0.0,0.0,0.0,0.0,0.0,0.0,0.0,0.0,0.0,0.0,0.0,0.0,3.165,3.1128,3.0734,3.1538,2.8876,2.66,0.0,2.6144,2.4267,2.2922,0.0,0.0,0.0,0.0,2.6807,2.6966,2.9521,3.1157,3.1157,3.13,3.1395,3.1395,3.1395,3.0993,2.99,2.9885,2.8379,2.4781,2.4061,2.2049,0.0,0.0,0.0,0.0,0.0,0.0,0.0,0.0,0.0,0.0,0.0,0.0,0.0,0.0,0.0,0.0,0.0,0.0,0.0,0.0,0.0,0.0,0.0,0.0,0.0,0.0,0.0,0.0,3.0943,3.1976,3.3374,3.225,3.1343,0.0,0.0,0.0,0.0,0.0,0.0,3.341,3.3534,3.3906,3.459,3.5604,3.6287,3.6639,3.7777,3.8357,3.8357,3.8481,3.8523,3.8523,3.8523,3.8523,3.8523,3.8523,3.8523,3.844,3.7156,3.6246,3.5583,3.4983,3.372,3.2168,3.1588,3.1754,3.2292,3.2737,3.3633,3.4644,3.5234,0.0,3.2093,3.0299,0.0,0.0,0.0,0.0,2.7052,2.8702,2.948,3.0249,3.1622,3.1728,3.168,3.1779,3.0299,2.9165,0.0,2.818,2.6166,2.4415,0.0,0.0,0.0,0.0,2.8535,2.8614,3.0394,3.1649,3.1649,3.1649,3.1649,3.1649,3.1649,3.1649,3.1649,3.1649,3.0732,2.8569,2.7084,2.4816,2.1531,0.0,0.0,0.0,0.0,0.0,0.0,0.0,0.0,0.0,0.0,0.0,0.0,0.0,0.0,0.0,0.0,0.0,0.0,0.0,0.0,0.0,0.0,0.0,0.0,0.0,0.0,0.0,0.0,0.0,3.3819,3.6183,0.0,0.0,0.0,0.0,3.2747,3.3078,3.3906,3.5211,3.5707,3.6556,3.7902,3.8005,3.8067,3.8088,3.8564,3.8812,3.8812,3.9268,3.9475,3.9475,3.9475,3.9475,3.9475,3.9475,3.9475,3.9392,3.846,3.8046,3.7798,3.5604,3.4693,3.432,3.2168,3.2747,3.471,3.4972,3.6603,3.8576,3.9326,3.6638,3.2516,2.9234,2.7177,0.0,0.0,2.7161,2.8659,2.8741,3.0062,3.1399,3.1498,3.1779,3.2126,3.2472,3.1089,3.0081,0.0,2.9728,2.8333,2.7931,0.0,2.7979,2.6328,2.782,2.9361,2.9695,3.1268,3.2364,3.2364,3.2364,3.2364,3.2364,3.2364,3.2364,3.2364,3.2364,3.1538,2.991,2.9109,2.7146,2.356,2.1954,0.0,0.0,0.0,0.0,0.0,0.0,0.0,0.0,0.0,0.0,0.0,0.0,0.0,0.0,0.0,0.0,0.0,0.0,0.0,0.0,0.0,0.0,0.0,0.0,0.0,0.0,0.0,0.0,3.5544,3.6465,0.0,0.0,3.5312,3.548,3.4527,3.5707,3.6804,3.7591,3.7777,3.8233,3.904,3.9061,3.9061,3.9061,3.9206,3.9288,3.9288,3.9454,3.9537,3.9537,3.9537,3.9537,3.9537,3.9537,3.9537,3.9516,3.9185,3.9061,3.8978,3.815,3.7839,3.7736,3.6929,3.7136,3.7839,3.7971,3.8491,3.9197,3.9521,3.7428,3.4415,3.328,3.1045,2.9184,2.9445,3.0086,3.097,3.1476,3.2044,3.2621,3.2868,3.2553,3.2356,3.2484,3.1959,3.1565,3.1948,3.0607,2.9329,2.8948,3.014,3.0442,2.8471,2.9949,3.1347,3.1474,3.203,3.2412,3.2412,3.2412,3.2412,3.2412,3.2412,3.2412,3.2412,3.2412,3.2094,3.16,3.0186,2.8333,2.6066,2.4369,2.1777,0.0,0.0,0.0,0.0,0.0,0.0,0.0,0.0,0.0,0.0,0.0,0.0,0.0,0.0,0.0,0.0,0.0,0.0,0.0,0.0,0.0,0.0,0.0,0.0,0.0,0.0,3.5088,3.6432,3.6722,3.6701,3.639,3.6763,3.6908,3.6597,3.786,3.8771,3.9061,3.9081,3.9226,3.9537,3.9537,3.9537,3.9537,3.9702,3.9765,3.9765,3.993,3.9992,3.9992,4.0158,3.9806,3.9123,4.0054,4.0013,3.9371,4.0137,4.0448,4.0386,3.9785,3.9537,3.9537,3.9537,3.9537,3.9537,3.9537,3.964,3.9765,3.9765,3.8365,3.6702,3.6122,3.4179,3.2241,3.1939,3.1967,3.2364,3.2747,3.2822,3.2911,3.3171,3.2904,3.2444,3.2571,3.203,3.1776,3.2618,3.1649,3.0442,2.9615,3.0712,3.0998,2.89,2.987,3.0791,3.0664,3.1268,3.1697,3.1697,3.2348,3.2777,3.2777,3.2015,3.1887,3.2714,3.1999,3.1919,3.2745,3.0959,2.9164,2.7396,2.4528,2.165,1.8681,0.0,0.0,0.0,0.0,0.0,0.0,0.0,0.0,0.0,0.0,0.0,0.0,0.0,0.0,0.0,0.0,0.0,0.0,0.0,0.0,0.0,0.0,0.0,3.1462,3.3942,3.5763,3.6183,3.7384,3.8212,3.8233,3.8605,3.8874,3.8874,3.9288,3.9537,3.9558,3.9516,3.9475,3.9495,3.9516,3.9516,3.9516,4.0034,4.0303,4.0303,4.0717,4.0924,4.0924,4.1379,4.0386,3.846,4.111,4.1007,3.9123,4.1338,4.2249,4.2083,4.0323,3.962,3.962,3.962,3.962,3.962,3.9537,3.9868,4.0303,4.0303,3.9838,3.8883,3.7202,3.5976,3.4586,3.2871,3.2412,3.2412,3.2428,3.2428,3.2428,3.2444,3.2459,3.2555,3.292,3.1395,3.068,3.3047,3.2952,3.1935,3.0235,3.0219,2.9743,2.7725,2.7709,0.0,2.7471,2.9202,3.0442,3.0442,3.2221,3.3429,3.3508,3.1268,3.0902,3.3365,3.1284,3.1014,3.3397,3.1522,2.9498,2.7813,2.2666,1.9968,2.0016,0.0,0.0,0.0,0.0,0.0,0.0,0.0,0.0,0.0,0.0,0.0,0.0,0.0,0.0,0.0,0.0,0.0,0.0,0.0,0.0,0.0,0.0,3.3124,3.4104,3.5021,3.6213,3.781,3.844,3.8792,3.9123,3.9268,3.9351,3.9351,3.9475,3.9682,4.0013,3.8771,3.8212,3.8543,3.8874,3.904,3.904,4.082,4.169,4.169,4.1814,4.1876,4.1876,4.2021,4.1731,4.1172,4.1938,4.1897,4.1358,4.2,4.2249,4.2207,4.171,4.1503,4.1503,4.1503,4.1503,4.1276,3.962,4.0199,4.169,4.169,4.0807,3.9329,3.7629,3.619,3.4586,3.2871,3.257,3.2968,3.321,3.3274,3.3339,3.3597,3.3544,3.3603,3.3699,3.3132,3.2921,3.4096,3.373,3.3289,3.265,3.2761,3.2809,3.2221,3.2428,0.0,3.2507,3.3,3.3349,3.3349,3.2285,3.2301,3.408,3.1983,3.1617,3.4064,3.3365,3.3158,3.3842,3.3063,3.1786,2.9983,2.6156,2.3604,0.0,0.0,0.0,0.0,0.0,0.0,0.0,0.0,0.0,0.0,0.0,0.0,0.0,0.0,0.0,0.0,0.0,0.0,0.0,0.0,0.0,0.0,3.2559,3.4851,3.613,3.6363,3.7145,3.8747,3.887,3.911,3.9516,3.9723,3.9827,3.9827,4.0179,4.051,4.0779,3.9972,3.9185,3.8481,3.964,3.9806,3.8854,4.111,4.2249,4.2249,4.2249,4.2249,4.2269,4.2456,4.2021,0.0,4.2331,4.229,4.1483,4.2435,4.2828,0.0,0.0,0.0,0.0,0.0,4.2249,4.2062,4.0737,4.1151,4.2249,4.2249,4.1759,4.0682,3.821,3.6399,3.4696,3.2139,3.1165,3.1012,3.2103,3.2504,3.289,3.398,3.4231,3.4223,3.4223,3.3518,3.3132,3.4334,3.3628,0.0,3.3826,3.3476,3.2841,3.1951,3.1983,3.2046,3.1887,3.265,3.3206,3.3206,3.2714,3.2968,3.4382,3.2269,0.0,0.0,0.0,3.2761,3.2904,3.2714,0.0,0.0,0.0,2.5486,2.4714,0.0,0.0,0.0,2.0106,1.8832,0.0,0.0,0.0,0.0,0.0,0.0,0.0,0.0,0.0,0.0,0.0,0.0,0.0,0.0,0.0,0.0,3.3926,3.574,3.7569,3.7825,3.8127,3.8926,3.9044,3.9245,3.9626,4.0137,4.0406,4.0448,4.1193,4.1648,0.0,0.0,0.0,0.0,0.0,4.1048,3.9019,4.1276,4.2414,4.2414,4.2414,4.2435,4.2497,4.289,4.2,4.0282,4.2725,4.2621,4.0924,4.2932,4.376,4.3677,4.2766,4.2414,4.2373,4.2124,4.2186,0.0,0.0,0.0,0.0,4.2497,4.2787,4.2535,3.9099,3.7067,3.5194,3.1677,2.9679,2.8916,3.0791,3.1506,3.2205,3.4064,3.4541,3.4573,3.4573,3.3143,3.2412,3.4271,3.3127,3.2444,3.4302,3.3317,3.1633,2.9758,2.9504,2.9425,2.9091,3.0696,3.1856,3.1856,0.0,0.0,3.4604,3.238,3.203,3.4477,3.2555,3.1458,3.1729,3.1744,3.04,2.7553,2.7206,2.7042,2.7181,2.6749,2.7132,2.8123,2.207,1.9883,0.0,0.0,0.0,0.0,0.0,0.0,0.0,0.0,0.0,0.0,0.0,0.0,0.0,0.0,0.0,3.416,3.5957,3.7422,3.7754,3.8249,3.8635,3.899,3.9373,3.98,4.0679,4.1111,4.1462,4.1835,4.2021,4.2124,4.2124,4.082,0.0,3.9413,4.0179,4.0386,3.9972,4.2207,4.3346,4.3346,0.0,0.0,4.3905,4.3987,4.4008,4.3967,4.4505,4.4484,4.4112,4.4546,4.4733,4.4629,4.3718,4.3346,4.3139,4.1296,4.1772,4.3097,4.1255,4.2062,4.3905,4.3905,4.4215,4.3943,4.0556,3.9153,0.0,3.467,3.3444,3.3286,3.3699,3.3858,3.4001,3.4414,3.4731,3.4938,3.4938,3.4501,3.4377,3.5287,3.4705,3.4548,3.5303,3.4843,3.4287,3.3889,3.408,3.4239,3.4159,3.4509,3.4763,3.4763,3.3365,3.3222,3.5208,3.3127,3.2761,3.5208,3.4652,3.4128,3.3905,3.3905,3.3549,3.2975,3.2896,3.2217,3.073,3.0672,2.9987,2.8764,2.5607,2.414,0.0,0.0,0.0,0.0,0.0,0.0,0.0,0.0,0.0,0.0,0.0,3.248,0.0,0.0,3.4277,3.4941,3.6309,3.7519,3.8164,3.8828,3.9357,3.9505,3.959,4.0141,4.1269,4.1457,4.1853,4.2228,4.2456,4.258,4.258,4.1938,4.1048,3.993,4.1421,4.169,4.0572,4.3035,4.4298,4.4298,4.4298,4.4422,4.465,4.465,4.4774,4.5002,4.5002,4.5002,4.5002,4.5002,4.5002,4.494,4.4484,4.4298,4.4174,4.3035,4.3325,4.4132,4.3014,4.3511,4.465,4.465,4.4795,4.4331,4.0914,3.9093,3.7475,3.3885,3.2316,3.1872,3.2936,3.3333,3.373,3.4795,3.5176,3.5303,3.5303,3.5273,3.5399,3.5573,3.5399,3.5399,3.5573,3.543,3.5303,3.4957,3.5288,3.5573,3.5225,3.5399,3.5573,3.5573,3.4477,3.4255,3.5478,3.4445,3.4271,3.5494,3.5399,3.5224,3.5049,3.5033,3.5033,3.5033,3.4859,3.4251,3.3365,3.3197,3.2765,3.1724,2.9672,2.7667,0.0,0.0,0.0,0.0,0.0,0.0,0.0,0.0,3.3473,3.3093,3.3564,3.4162,3.4054,3.4387,3.5034,3.5957,3.6797,3.7656,3.8691,3.9453,3.9935,3.9959,3.9988,4.0404,4.159,4.1779,4.2118,4.2518,4.2849,4.3097,4.318,4.3532,4.2952,4.1214,4.3284,4.3553,4.169,4.3884,4.5002,4.5002,4.5002,4.5043,4.5126,4.5126,4.5167,4.525,4.525,4.525,4.525,4.525,4.525,4.525,4.525,4.525,4.5229,4.5064,4.5002,4.5002,4.5002,4.5043,4.5126,4.5126,4.5188,4.4596,4.1485,3.9096,3.6758,3.3569,3.1478,3.0489,3.2189,3.2825,3.346,3.5176,3.5573,3.5573,3.5573,3.5573,3.5573,3.5573,3.5573,3.5573,3.5573,3.5573,3.5399,3.505,3.5399,3.5399,3.505,3.5399,3.5573,3.5573,3.5573,3.5573,3.5573,3.5573,3.5573,3.5573,3.5573,3.5573,3.5573,3.5573,3.5573,3.5573,3.5287,3.5145,3.5145,3.4859,3.4716,3.4716,3.3148,3.0634,2.8711,2.6426,2.5703,2.8066,3.003,3.1584,0.0,0.0,3.7926,3.634,3.7648,3.8766,3.8521,3.8878,3.905,3.875,3.9199,3.959,3.9726,3.9824,4.0019,4.0332,4.0773,4.1143,4.1585,4.2399,4.3014,4.3428,4.3511,4.3718,4.4132,4.4194,4.4298,4.4463,4.4753,4.4795,4.4546,4.4836,4.5002,4.5002,4.5002,4.5209,4.5602,4.5602,4.583,4.6202,4.6202,4.6202,4.6202,4.6202,4.6202,4.6202,4.6202,4.6202,4.6099,4.5291,4.5002,4.5002,4.5002,4.5271,4.5602,4.5602,4.5871,4.5859,4.3844,4.1966,4.0086,3.8113,3.6302,3.4874,3.5113,3.5192,3.5287,3.5526,3.5573,3.5573,3.5573,3.5573,3.5573,3.5573,3.5573,3.5573,3.5573,3.5573,3.5573,3.5573,3.5573,3.5573,3.5573,3.5573,3.5573,3.5573,3.5573,3.5573,3.5573,3.5573,3.5573,3.5573,3.5573,3.5573,3.5573,3.5573,3.5573,3.5573,3.5542,3.5526,3.5526,3.5478,3.5462,3.5462,3.5273,3.37,2.9902,2.9785,0.0,0.0,3.3642,3.5441,3.6268,3.7707,3.8739,3.8184,3.8838,3.9366,3.9239,3.8767,3.8485,0.0,3.8945,3.9023,3.9785,4.0332,4.0801,4.1211,4.0452,3.9965,3.9885,4.1716,4.2637,4.183,4.3359,4.4505,4.4691,4.4712,4.4795,4.4981,4.525,4.5395,4.5395,4.5664,4.5788,4.5788,4.5788,4.5892,4.6078,4.6078,4.6182,4.6347,4.6347,4.6347,4.6347,4.6347,4.6347,4.6347,4.6347,4.6347,4.6306,4.5912,4.5788,4.5788,4.5788,4.5912,4.6078,4.6078,4.6202,4.584,4.2972,4.1639,4.0445,3.7602,3.6253,3.5573,3.5573,3.5573,3.5573,3.5573,3.5573,3.5573,3.5573,3.5573,3.5573,3.5573,3.5573,3.5573,3.5573,3.5573,3.5573,3.5573,3.5573,3.5573,3.5225,3.5399,3.5573,3.5573,3.5573,3.5573,3.5573,3.5573,3.5573,3.5573,3.5573,3.5573,3.5573,3.5573,3.5573,3.5573,3.5573,3.5573,3.5573,3.5573,3.5573,3.5573,3.5573,3.5051,3.0781,0.0,0.0,3.4492,3.6074,3.75,3.8971,3.9062,3.9082,3.9493,3.9623,3.9672,3.9524,3.8877,3.8622,3.9414,3.9141,3.9199,4.0273,4.0957,4.123,4.0937,3.983,3.8379,3.6856,4.0171,4.2059,4.1366,4.3556,4.4886,4.5009,4.5188,4.525,4.5354,4.5685,4.5871,4.5871,4.6182,4.6347,4.6347,4.6347,4.6347,4.6347,4.6347,4.6347,4.6347,4.6347,4.6347,4.6347,4.6347,4.6347,4.6347,4.6347,4.6347,4.6347,4.6347,4.6347,4.6347,4.6347,4.6347,4.6347,4.6347,4.6347,4.584,4.3303,4.1788,4.0445,3.7757,3.6427,3.5573,3.5573,3.5573,3.5573,3.5573,3.5573,3.5573,3.5573,3.5573,3.5573,3.5573,3.5573,3.5573,3.5573,3.5573,3.5573,3.5573,3.5573,3.5399,3.505,3.5399,3.5573,3.5573,3.5573,3.5573,3.5573,3.5573,3.5573,3.5573,3.5573,3.5573,3.5573,3.5573,3.5573,3.5573,3.5573,3.5573,3.5573,3.5573,3.5573,3.5573,3.5573,3.5573,3.082,0.0,2.959,3.4219,3.543,3.6113,3.8613,3.9495,3.9909,4.0325,4.0724,4.0893,4.0425,4.0742,4.0887,4.0469,4.082,4.123,4.168,4.1758,4.0996,3.8926,3.8613,3.6777,0.0,3.7129,4.1364,4.3456,4.3994,4.4535,4.4984,4.5504,4.585,4.6285,4.6306,4.6326,4.6326,4.6347,4.6347,4.6347,4.6347,4.6347,4.6347,4.6347,4.6347,4.6347,4.6347,4.6347,4.6347,4.6347,4.6347,4.6347,4.6347,4.6347,4.6347,4.6347,4.6347,4.6347,4.6347,4.6347,4.6347,4.6347,4.6347,4.6347,4.6185,4.3652,4.095,4.0782,3.8272,3.5573,3.5573,3.5573,3.5573,3.5573,3.5573,3.5573,3.5573,3.5573,3.5573,3.5573,3.5573,3.5573,3.5573,3.5573,3.5573,3.5573,3.5573,3.5573,3.5573,3.5573,3.5573,3.5573,3.5573,3.5573,3.5573,3.5573,3.5573,3.5573,3.5573,3.5573,3.5573,3.5573,3.5573,3.5573,3.5573,3.5573,3.5573,3.5573,3.5573,3.5573,3.5573,3.5573,2.9531,0.0,3.3398,3.5,3.666,3.8288,3.9318,3.9751,4.0007,4.0275,3.9169,3.826,3.8249,3.7249,3.6936,3.8516,3.7969,3.8379,4.1387,3.959,3.8867,4.1269,3.9043,0.0,0.0,0.0,0.0,3.9106,4.2611,4.4987,4.5474,4.5635,4.5879,4.6347,4.6347,4.6347,4.6347,4.6347,4.6347,4.6347,4.6347,4.6347,4.6347,4.6347,4.6347,4.6347,4.6347,4.6347,4.6347,4.6347,4.6347,4.6347,4.6347,4.6347,4.6347,4.6347,4.6347,4.6347,4.6347,4.6347,4.6347,4.6347,4.6347,4.6023,4.5005,4.2972,4.0782,3.9618,3.743,3.5573,3.5573,3.5573,3.5573,3.5573,3.5573,3.5573,3.5573,3.5573,3.5573,3.5573,3.5573,3.5573,3.5573,3.5573,3.5573,3.5573,3.5573,3.5573,3.5573,3.5573,3.5573,3.5573,3.5573,3.5573,3.5573,3.5573,3.5573,3.5573,3.5573,3.5573,3.5573,3.5573,3.5573,3.5573,3.5573,3.5573,3.5573,3.5573,3.5573,3.5573,3.5573,3.5573,3.0547,3.293,3.5605,3.6523,3.8105,3.9492,3.9948,4.0053,4.0156,4.0597,3.9504,3.8301,3.7637,3.6523,3.623,3.7891,3.7246,3.7871,4.1719,4.0117,3.9394,4.168,3.9512,3.8652,0.0,0.0,0.0,3.8141,4.147,4.3719,4.4038,4.4356,4.5041,4.6003,4.6185,4.6347,4.6347,4.6347,4.6347,4.6347,4.6347,4.6347,4.6347,4.6347,4.5809,4.494,4.5912,4.5788,4.496,4.5933,4.6347,4.6347,4.6347,4.6347,4.6347,4.6347,4.6347,4.6347,4.6347,4.6347,4.6347,4.6347,4.584,4.5169,4.4001,4.1974,3.9787,3.8631,3.6929,3.5573,3.5573,3.5573,3.5573,3.5573,3.5573,3.5573,3.5573,3.5573,3.5573,3.5573,3.5573,3.5573,3.5573,3.5573,3.5573,3.5573,3.5573,3.5573,3.5573,3.5573,3.5573,3.5573,3.5573,3.5573,3.5573,3.5573,3.5573,3.5573,3.5573,3.5573,3.5573,3.5573,3.5573,3.5573,3.5573,3.5573,3.5573,3.5573,3.5573,3.5573,3.5573,3.5573,3.3516,3.5078,3.6172,3.8633,3.959,4.0039,4.043,4.0547,4.0644,4.0918,4.1191,4.0586,0.0,0.0,3.8066,3.834,3.832,3.9355,4.2441,4.2812,4.207,0.0,0.0,0.0,0.0,0.0,0.0,4.0508,0.0,4.1297,4.1297,4.2211,4.3494,4.5637,4.6023,4.6347,4.6347,4.6347,4.6347,4.6347,4.6347,4.6347,4.6347,4.6347,4.4919,4.2621,4.5229,4.4877,4.2663,4.5271,4.6347,4.6347,4.6347,4.6347,4.6347,4.6347,4.6347,4.6347,4.6347,4.6347,4.6347,4.6347,4.5169,4.3837,4.3672,4.1304,3.846,3.8289,3.6929,3.5573,3.5573,3.5573,3.5573,3.5573,3.5573,3.5573,3.5573,3.5573,3.5573,3.5573,3.5573,3.5573,3.5573,3.5573,3.5573,3.5573,3.5573,3.5573,3.5573,3.5573,3.5573,3.5573,3.5573,3.5573,3.5573,3.5573,3.5573,3.5573,3.5573,3.5573,3.5573,3.5573,3.5573,3.5573,3.5573,3.5573,3.5573,3.5573,3.5573,3.5573,3.5573,3.5573,3.3242,3.5703,3.8476,3.9473,4.0039,4.0391,4.0508,4.0781,4.0488,3.8652,3.6836,3.4863,0.0,0.0,0.0,3.5059,3.4883,0.0,3.9629,3.9375,0.0,3.9805,0.0,4.0723,4.166,4.2344,0.0,0.0,4.2151,4.3214,4.3537,4.3859,4.4281,4.5189,4.5535,4.5861,4.5861,4.6185,4.6347,4.6347,4.6347,4.6347,4.6347,4.6347,4.5975,4.5354,4.6037,4.5954,4.5354,4.6057,4.6347,4.6347,4.6347,4.6347,4.6347,4.6347,4.6347,4.6347,4.6347,4.6347,4.6347,4.6347,4.6003,4.5332,4.4166,4.2141,3.9957,3.8614,3.6929,3.5573,3.5573,3.5573,3.5573,3.5573,3.5573,3.5573,3.5573,3.5573,3.5573,3.5573,3.5573,3.5573,3.5573,3.5573,3.5573,3.5573,3.5573,3.5573,3.5573,3.5573,3.5573,3.5573,3.5573,3.5573,3.5573,3.5573,3.5573,3.5573,3.5573,3.5573,3.5573,3.5573,3.5573,3.5573,3.5573,3.5573,3.5573,3.5573,3.5573,3.5573,3.5573,3.5573,3.5488,3.7519,3.9609,4.0059,4.0488,4.0508,3.9375,3.9297,3.873,3.6133,3.459,0.0,3.0625,0.0,0.0,0.0,0.0,0.0,3.9004,3.8887,3.8789,0.0,4.0098,0.0,4.3476,4.3711,4.3203,0.0,4.2168,4.2464,4.2624,4.2942,4.3559,4.4678,4.5209,4.5372,4.5372,4.5861,4.6023,4.6023,4.6185,4.6347,4.6347,4.6347,4.5685,4.4608,0.0,4.5664,4.465,4.585,4.6347,4.6347,4.6347,4.6347,4.6347,4.6347,4.6347,4.6347,4.6347,4.584,4.5332,4.6003,4.584,4.4842,4.2972,4.1304,3.9448,3.7602,3.6427,3.5573,3.5573,3.5573,3.5573,3.5573,3.5573,3.5573,3.5573,3.5573,3.5573,3.5573,3.5573,3.5573,3.5573,3.5573,3.5573,3.5573,3.5573,3.5573,3.5573,3.5573,3.5573,3.5573,3.5573,3.5573,3.5573,3.5573,3.5573,3.5573,3.5573,3.5573,3.5573,3.5573,3.5573,3.5573,3.5573,3.5573,3.5573,3.5573,3.5573,3.5573,3.5573,3.5573,3.8398,3.9453,4.0078,4.0508,4.0898,4.0586,3.832,3.7539,3.6562,3.3965,3.3437,3.2793,3.0605,3.0879,3.2305,3.4961,0.0,3.668,3.8613,3.9473,3.9766,3.9414,3.9726,4.0957,4.3457,4.3457,4.3398,4.3691,4.1992,4.0937,4.0937,4.1246,4.2427,4.431,4.4718,4.4882,4.5046,4.5372,4.5719,4.5719,4.6023,4.6185,4.6347,4.6347,4.5043,4.2932,0.0,0.0,4.2973,4.5374,4.6347,4.6347,4.6347,4.6347,4.6347,4.6347,4.6347,4.6347,4.6347,4.5169,4.4001,4.5515,4.4842,4.2991,4.1118,3.9618,3.7946,3.6096,3.5573,3.5573,3.5573,3.5573,3.5573,3.5573,3.5573,3.5573,3.5573,3.5573,3.5573,3.5573,3.5573,3.5573,3.5573,3.5573,3.5573,3.5573,3.5573,3.5573,3.5573,3.5573,3.5573,3.5573,3.5573,3.5573,3.5573,3.5573,3.5573,3.5573,3.5573,3.5573,3.5573,3.5573,3.5573,3.5573,3.5573,3.5573,3.5573,3.5573,3.5573,3.5573,3.5573,3.5573,3.7793,3.8984,4.0527,4.0957,4.1113,4.1055,4.0605,3.8848,0.0,0.0,3.1777,3.0312,3.0215,3.0644,3.1973,3.4922,0.0,0.0,0.0,0.0,3.9101,0.0,0.0,4.1289,4.3496,0.0,0.0,0.0,0.0,0.0,4.3144,4.3144,4.3647,4.435,4.4534,4.4698,4.5046,4.5046,4.5372,4.5719,4.5698,4.6023,4.6347,4.6347,4.6078,4.5664,0.0,0.0,4.5664,4.614,4.6347,4.6347,4.6347,4.6347,4.6347,4.6347,4.6347,4.6347,4.6347,4.5169,4.3817,4.4001,4.2972,4.1118,3.9296,3.8631,3.7946,3.6096,3.5573,3.5573,3.5573,3.5573,3.5573,3.5573,3.5573,3.5573,3.5573,3.5573,3.5573,3.5573,3.5573,3.5573,3.5573,3.5573,3.5573,3.5573,3.5573,3.5573,3.5573,3.5573,3.5573,3.5573,3.5573,3.5573,3.5573,3.5573,3.5573,3.5573,3.5573,3.5573,3.5573,3.5573,3.5573,3.5573,3.5573,3.5573,3.5573,3.5573,3.5573,3.5573,3.5573,3.5573,3.7383,3.8711,4.0625,4.1074,4.1172,4.0469,3.7754,0.0,0.0,0.0,2.8437,2.7637,2.7832,2.8242,0.0,0.0,0.0,0.0,0.0,0.0,0.0,0.0,3.9316,4.0605,0.0,0.0,0.0,0.0,0.0,0.0,0.0,4.3711,4.3876,4.4041,4.4041,4.4205,4.437,4.4554,4.4862,4.5046,4.5209,4.5535,4.6023,4.6023,4.6023,4.6347,4.6347,0.0,4.4319,4.5747,4.5498,4.436,4.5788,4.6347,4.6347,4.6347,4.6347,4.6347,4.6347,4.4494,4.2307,4.2307,4.1639,4.0614,3.8785,3.8289,3.7946,3.6096,3.5573,3.5573,3.5573,3.5573,3.5573,3.5573,3.5573,3.5573,3.5573,3.5573,3.5573,3.5573,3.5573,3.5573,3.5573,3.5573,3.5573,3.5573,3.5573,3.5573,3.5573,3.5573,3.5573,3.5573,3.5573,3.5573,3.5573,3.5573,3.5573,3.5573,3.5573,3.5573,3.5573,3.5573,3.5573,3.5573,3.5573,3.5573,3.5573,3.5573,3.5573,3.5573,3.5573,3.5573,3.7598,3.8984,4.0742,4.1094,4.1172,3.9961,3.5312,3.3828,0.0,0.0,2.6113,2.5937,2.6582,2.6973,2.8887,0.0,0.0,0.0,0.0,0.0,0.0,0.0,3.998,0.0,0.0,0.0,0.0,0.0,0.0,0.0,0.0,4.3711,4.3711,4.3711,4.3711,4.3711,4.3711,4.4041,4.437,4.437,4.4698,4.5046,4.5535,4.5719,4.5861,4.6185,4.6185,0.0,0.0,4.5209,4.4733,4.2538,4.5271,4.6347,4.6347,4.6347,4.6347,4.6347,4.6347,4.4166,4.1453,4.1118,4.0445,3.9618,3.8118,3.7774,3.7447,3.5922,3.5573,3.5573,3.5573,3.5573,3.5573,3.5573,3.5573,3.5573,3.5573,3.5573,3.5573,3.5573,3.5573,3.5573,3.5573,3.5573,3.5573,3.5573,3.5573,3.5573,3.5573,3.5573,3.5573,3.5573,3.5573,3.5573,3.5573,3.5573,3.5573,3.5573,3.5573,3.5573,3.5573,3.5573,3.5573,3.5573,3.5573,3.5573,3.5573,3.5573,3.5573,3.5573,3.5573,3.5573,3.9101,4.0332,4.1133,4.1172,4.1172,4.043,3.7578,0.0,0.0,0.0,2.7363,2.6562,2.9277,2.9844,3.1074,3.4726,0.0,3.25,0.0,0.0,0.0,0.0,0.0,0.0,4.3164,0.0,0.0,0.0,0.0,0.0,0.0,4.3711,4.3711,4.3711,4.3711,4.3711,4.3711,4.3711,4.4041,4.437,4.437,4.4698,4.5046,4.5535,4.5719,4.5719,0.0,0.0,0.0,4.5209,4.4733,4.2538,4.5271,4.6347,4.6347,4.6347,4.6347,4.6347,4.6347,4.5005,4.3156,4.1453,3.8767,3.608,3.5922,3.5922,3.5748,3.5573,3.5573,3.5573,3.5573,3.5573,3.5573,3.5573,3.5573,3.5573,3.5573,3.5573,3.5573,3.5573,3.5573,3.5573,3.5573,3.5573,3.5573,3.5573,3.5573,3.5573,3.5573,3.5573,3.5573,3.5573,3.5573,3.5573,3.5573,3.5573,3.5573,3.5573,3.5573,3.5573,3.5573,3.5573,3.5573,3.5573,3.5573,3.5573,3.5573,3.5573,3.5573,3.5573,3.5573,3.5573,3.6133,3.8535,4.1172,4.1172,4.1172,4.0078,3.5918,0.0,0.0,0.0,2.6445,2.6094,2.7285,2.7519,2.8574,3.1758,3.1484,0.0,0.0,0.0,0.0,0.0,0.0,0.0,0.0,0.0,0.0,0.0,0.0,0.0,0.0,0.0,4.3711,4.3711,4.3711,4.3711,4.3711,4.3711,4.4013,4.4454,4.4454,4.4758,4.535,4.5684,4.585,4.6017,0.0,0.0,0.0,4.4803,4.4008,4.0241,4.4629,4.6347,4.6347,4.6347,4.6347,4.6347,4.6347,4.4494,4.1974,4.1286,3.8614,3.5573,3.5573,3.5573,3.5573,3.5573,3.5573,3.5573,3.5573,3.5573,3.5573,3.5573,3.5573,3.5573,3.5573,3.5573,3.5573,3.5573,3.5573,3.5573,3.5573,3.5573,3.5573,3.5573,3.5573,3.5573,3.5573,3.5573,3.5573,3.5573,3.5573,3.5573,3.5573,3.5573,3.5573,3.5573,3.5573,3.5573,3.5573,3.5573,3.5573,3.5573,3.5573,3.5573,3.5573,3.5573,3.5573,3.5573,3.5573,3.5573,3.4629,3.7715,4.1172,4.1172,4.0605,3.8828,0.0,0.0,0.0,2.6445,2.5547,2.5586,2.5723,2.5742,2.6719,2.9726,3.0488,3.2363,3.7187,0.0,0.0,0.0,0.0,0.0,0.0,0.0,0.0,0.0,0.0,0.0,0.0,0.0,4.3906,4.3906,4.3906,4.3965,4.4101,4.4101,4.4258,4.459,4.459,4.4503,4.4403,4.5361,4.5449,4.5062,0.0,0.0,0.0,4.4678,4.3833,3.9818,4.4605,4.6598,4.6577,4.6433,4.6554,4.6533,4.6389,4.433,4.1639,4.1118,3.8938,3.6253,3.5748,3.5573,3.5573,3.5573,3.5573,3.5573,3.5573,3.5573,3.5573,3.5573,3.5573,3.5573,3.5573,3.5573,3.5573,3.5573,3.5573,3.5573,3.5573,3.5573,3.5573,3.5573,3.5573,3.5573,3.5573,3.5573,3.5573,3.5573,3.5573,3.5573,3.5573,3.5573,3.5573,3.5573,3.5573,3.5573,3.5573,3.5573,3.5573,3.5573,3.5573,3.5573,3.5573,3.5573,3.5573,3.5573,3.5573,3.5573,3.6191,3.8867,4.1172,4.1172,3.9238,3.6543,0.0,0.0,0.0,0.0,2.5078,2.5215,2.5664,2.5742,2.6719,2.9746,3.0215,3.1269,3.4316,3.4746,0.0,0.0,0.0,0.0,0.0,0.0,0.0,0.0,0.0,0.0,0.0,0.0,4.4394,4.4394,4.4394,4.459,4.5,4.5019,4.5019,4.5019,4.5019,4.3691,4.1308,4.4363,4.4291,0.0,0.0,0.0,0.0,4.5247,4.4601,4.2416,4.58,4.7025,4.6984,4.7031,4.703,4.6968,4.6513,4.5169,4.3322,4.1621,3.9787,3.7946,3.608,3.5573,3.5573,3.5573,3.5573,3.5573,3.5573,3.5573,3.5573,3.5573,3.5573,3.5573,3.5573,3.5573,3.5573,3.5573,3.5573,3.5573,3.5573,3.5573,3.5573,3.5573,3.5573,3.5573,3.5573,3.5573,3.5573,3.5573,3.5573,3.5573,3.5573,3.5573,3.5573,3.5573,3.5573,3.5573,3.5573,3.5573,3.5573,3.5573,3.5573,3.5573,3.5573,3.5573,3.5573,3.5573,3.5573,3.5573,3.1309,3.3574,3.5937,3.625,3.5488,3.3926,3.1211,0.0,0.0,0.0,0.0,2.5215,2.5664,2.5742,2.6719,2.9726,3.0469,3.2324,3.7109,0.0,0.0,0.0,0.0,0.0,0.0,0.0,0.0,0.0,0.0,0.0,0.0,0.0,0.0,4.4394,4.4687,4.4883,4.5019,4.5019,4.5176,4.5469,4.5469,4.4121,4.1699,4.4758,0.0,0.0,0.0,0.0,0.0,4.5543,4.4902,4.2476,4.5327,4.671,4.7025,4.7049,4.6112,4.5044,4.5282,4.3159,4.0172,3.9581,3.8319,3.6577,3.5828,3.5573,3.5573,3.5573,3.5573,3.5573,3.5573,3.5573,3.5573,3.5573,3.5573,3.5573,3.5573,3.5573,3.5573,3.5573,3.5573,3.5573,3.5573,3.5573,3.5573,3.5573,3.5573,3.5573,3.5573,3.5573,3.5573,3.5573,3.5573,3.5573,3.5573,3.5573,3.5573,3.5573,3.5573,3.5573,3.5573,3.5573,3.5573,3.5573,3.5573,3.5573,3.5573,3.5573,3.5573,3.5573,3.5573,3.5573,0.0,3.0996,3.3281,3.3711,3.2891,0.0,0.0,0.0,0.0,0.0,0.0,0.0,2.584,2.666,2.7676,2.8398,3.0664,3.3144,3.5488,0.0,0.0,0.0,0.0,0.0,0.0,0.0,0.0,0.0,0.0,0.0,0.0,0.0,0.0,4.4883,4.5137,4.5351,4.5508,4.5508,4.5644,4.5918,4.5918,4.4551,4.2129,4.5,0.0,0.0,0.0,0.0,0.0,4.5916,4.5629,4.3894,4.5876,4.6706,4.7026,4.7034,4.5707,4.409,4.4489,4.1988,3.8628,3.8936,3.7749,3.6066,3.5844,3.5685,3.5573,3.5573,3.5573,3.5573,3.5573,3.5573,3.5573,3.5573,3.5573,3.5573,3.5573,3.5573,3.5573,3.5573,3.5573,3.5573,3.5573,3.5573,3.5573,3.5573,3.5573,3.5573,3.5573,3.5573,3.5573,3.5573,3.5573,3.5573,3.5573,3.5573,3.5573,3.5573,3.5573,3.5573,3.5573,3.5573,3.5573,3.5573,3.5573,3.5573,3.5573,3.5573,3.5573,3.5573,3.5225,3.5225,0.0,3.0293,0.0,0.0,0.0,0.0,0.0,0.0,0.0,0.0,0.0,0.0,0.0,2.8496,2.957,2.6543,3.0918,3.373,3.0957,0.0,0.0,0.0,0.0,0.0,0.0,0.0,0.0,0.0,0.0,0.0,0.0,0.0,0.0,0.0,4.5723,4.5918,4.6289,4.6308,4.6191,4.5976,4.6191,4.4805,4.2148,4.5,0.0,0.0,0.0,0.0,0.0,4.6308,4.6308,4.6308,4.6832,4.7007,4.6947,4.7067,4.5644,4.397,4.4148,4.1557,3.8569,3.9083,3.7804,3.6145,3.6145,3.5875,3.5573,3.5573,3.5573,3.5573,3.5573,3.5573,3.5573,3.5573,3.5573,3.5573,3.5573,3.5573,3.5573,3.5573,3.5573,3.5573,3.5573,3.5573,3.5573,3.5573,3.5573,3.5573,3.5573,3.5573,3.5573,3.5573,3.5573,3.5573,3.5573,3.5573,3.5573,3.5573,3.5573,3.5573,3.5573,3.5573,3.5573,3.5573,3.5573,3.5573,3.5573,3.5573,3.5573,3.5573,3.47,3.47,2.4258,0.0,2.6094,2.6836,2.6328,2.5566,0.0,0.0,0.0,0.0,0.0,0.0,0.0,0.0,3.2656,2.9629,3.2266,3.457,3.4219,0.0,0.0,0.0,0.0,0.0,0.0,0.0,0.0,0.0,0.0,0.0,0.0,0.0,0.0,0.0,4.6152,4.6191,4.6308,4.6308,4.5137,4.2891,4.5195,4.3574,3.8691,4.3926,0.0,0.0,0.0,0.0,4.6308,4.6308,4.6308,4.6308,4.6483,4.6658,4.6987,4.7061,4.5026,4.2495,4.2956,4.0618,3.7337,3.7611,3.7109,3.6479,3.6479,3.6066,3.5573,3.5573,3.5573,3.5573,3.5573,3.5573,3.5573,3.5573,3.5573,3.5573,3.5573,3.5573,3.5573,3.5573,3.5573,3.5573,3.5573,3.5573,3.5573,3.5573,3.5573,3.5573,3.5573,3.5573,3.5573,3.5573,3.5573,3.5573,3.5573,3.5573,3.5573,3.5573,3.5573,3.5573,3.5573,3.5573,3.5573,3.5573,3.5573,3.5573,3.5573,3.5573,3.5573,3.5573,3.47,3.4525,2.2559,2.3164,2.4336,2.6582,2.5918,2.5019,0.0,0.0,0.0,0.0,0.0,0.0,0.0,0.0,0.0,3.0469,3.1738,3.3672,0.0,0.0,0.0,0.0,0.0,0.0,0.0,0.0,0.0,0.0,0.0,0.0,0.0,0.0,0.0,0.0,4.6308,4.6308,4.6308,4.6308,4.4785,4.1836,4.4863,4.3867,3.9512,4.418,0.0,0.0,0.0,0.0,4.6191,4.4805,4.5058,4.6308,4.6308,4.6483,4.6658,4.6658,4.4473,4.1581,4.2138,4.0186,3.7254,3.7432,3.7131,3.6845,3.6845,3.6463,3.6018,3.5859,3.5828,3.578,3.5621,3.5573,3.5573,3.5573,3.5573,3.5573,3.5573,3.5573,3.5573,3.5573,3.5573,3.5573,3.5573,3.5573,3.5573,3.5573,3.5573,3.5573,3.5573,3.5573,3.5573,3.5573,3.5573,3.5573,3.5573,3.5573,3.5573,3.5573,3.5573,3.5573,3.5573,3.5573,3.5573,3.5573,3.5573,3.5573,3.5573,3.5573,3.5573,3.5573,3.4158,3.4158,2.1977,2.2773,2.459,2.834,2.7012,2.5488,0.0,0.0,0.0,0.0,0.0,0.0,0.0,0.0,0.0,0.0,0.0,0.0,0.0,0.0,0.0,0.0,0.0,0.0,0.0,0.0,0.0,0.0,0.0,0.0,0.0,0.0,0.0,0.0,4.6308,4.6308,4.6308,4.6308,4.4785,4.1836,4.4863,4.4726,4.1894,4.4922,4.6308,0.0,0.0,0.0,4.6113,4.3535,4.3984,4.6308,4.6308,4.6308,4.6308,4.6308,4.4118,4.1221,4.1075,3.9458,3.7486,3.7486,3.7281,3.7028,3.7028,3.7003,3.6686,3.6352,3.6193,3.6034,3.5732,3.5621,3.5573,3.5573,3.5573,3.5573,3.5573,3.5573,3.5573,3.5573,3.5573,3.5573,3.5573,3.5573,3.5573,3.5573,3.5573,3.5573,3.5573,3.5573,3.5573,3.5573,3.5573,3.5573,3.5573,3.5573,3.5573,3.5573,3.5573,3.5573,3.5573,3.5573,3.5573,3.5573,3.5573,3.5573,3.5573,3.5573,3.5573,3.5573,3.3616,3.3792,2.1875,2.2539,2.4004,2.7168,2.5684,2.4297,0.0,0.0,0.0,0.0,0.0,0.0,0.0,0.0,0.0,0.0,0.0,0.0,0.0,0.0,0.0,0.0,0.0,0.0,0.0,0.0,0.0,0.0,0.0,0.0,0.0,0.0,0.0,0.0,0.0,4.6308,4.6308,4.6308,4.4785,4.1836,4.4863,4.4726,4.1894,4.4922,4.6308,0.0,0.0,4.5879,4.6269,4.5801,4.5879,4.6308,4.6308,4.6308,4.6308,4.6308,4.4118,4.086,3.7975,3.6715,3.6359,3.6359,3.6699,3.7022,3.7022,3.7175,3.7432,3.7067,3.6559,3.6098,3.6034,3.5796,3.5573,3.5573,3.5573,3.5573,3.5573,3.5573,3.5573,3.5573,3.5573,3.5573,3.5573,3.5573,3.5573,3.5573,3.5573,3.5573,3.5573,3.5573,3.5573,3.5573,3.5573,3.5573,3.5573,3.5573,3.5573,3.5573,3.5573,3.5573,3.5573,3.5573,3.5573,3.5573,3.5573,3.5573,3.5573,3.5573,3.5573,3.5573,3.3998,3.3822,2.125,2.1797,2.3691,2.8828,2.7109,0.0,0.0,0.0,0.0,0.0,0.0,0.0,0.0,0.0,0.0,0.0,0.0,0.0,0.0,0.0,0.0,0.0,0.0,0.0,0.0,0.0,0.0,0.0,0.0,0.0,0.0,0.0,0.0,0.0,0.0,0.0,4.6308,4.6308,4.4785,4.1836,4.4863,4.4726,4.1894,4.4922,4.6308,4.6211,0.0,4.4805,4.6172,4.4551,4.4824,4.6308,4.6308,4.6308,4.6114,4.4314,4.2497,4.0679,3.7439,3.6173,3.6173,3.6173,3.6359,3.6545,3.6545,3.6915,3.7254,3.7081,3.6869,3.6606,3.6416,3.6114,3.5859,3.5859,3.5716,3.5573,3.5573,3.5573,3.5573,3.5573,3.5573,3.5573,3.5573,3.5573,3.5573,3.5573,3.5573,3.5573,3.5573,3.5573,3.5573,3.5573,3.5573,3.5573,3.5573,3.5573,3.5573,3.5573,3.5573,3.5573,3.5573,3.5573,3.5573,3.5573,3.5573,3.5573,3.5573,3.5573,3.5573,3.5573,3.4349,3.4174,2.0781,2.1367,2.3496,2.959,0.0,0.0,0.0,0.0,0.0,0.0,0.0,0.0,0.0,0.0,0.0,0.0,0.0,0.0,0.0,0.0,0.0,0.0,0.0,0.0,0.0,0.0,0.0,0.0,0.0,0.0,0.0,0.0,0.0,0.0,0.0,0.0,4.6308,4.6308,4.5137,4.2871,4.5195,4.5098,4.293,4.5254,4.6308,4.6172,4.3867,4.416,4.6133,4.3808,4.4219,4.6308,4.6308,4.6308,4.5939,4.23,4.104,4.0498,3.7069,3.5801,3.5801,3.5801,3.5987,3.5987,3.5987,3.6359,3.6915,3.6915,3.6913,3.698,3.6813,3.6479,3.6031,3.613,3.5891,3.5685,3.5589,3.5573,3.5573,3.5573,3.5573,3.5573,3.5573,3.5573,3.5573,3.5573,3.5573,3.5573,3.5573,3.5573,3.5573,3.5573,3.5573,3.5573,3.5573,3.5573,3.5573,3.5573,3.5573,3.5573,3.5573,3.5573,3.5573,3.5573,3.5573,3.5573,3.5573,3.5573,3.5573,3.5573,3.47,3.4525,2.1074,2.1816,2.3359,2.707,0.0,0.0,0.0,0.0,0.0,0.0,0.0,0.0,0.0,0.0,0.0,0.0,0.0,0.0,0.0,0.0,0.0,0.0,0.0,0.0,0.0,0.0,0.0,0.0,0.0,0.0,0.0,0.0,0.0,0.0,0.0,0.0,4.6308,4.6308,4.6191,4.5976,4.6191,4.6191,4.5976,4.6211,4.6308,4.6289,4.6074,4.6094,4.6289,4.6074,4.6113,4.6308,4.6308,4.6308,4.5763,4.1941,4.0481,3.9937,3.6158,3.4897,3.4897,3.4897,3.5054,3.5413,3.5413,3.6158,3.6915,3.6915,3.69,3.6975,3.6996,3.6483,3.5973,3.6,3.6082,3.5987,3.5653,3.5573,3.5573,3.5573,3.5573,3.5573,3.5573,3.5573,3.5573,3.5573,3.5573,3.5573,3.5573,3.5573,3.5573,3.5573,3.5573,3.5573,3.5573,3.5573,3.5573,3.5573,3.5573,3.5573,3.5573,3.5573,3.5573,3.5573,3.5573,3.5573,3.5573,3.5573,3.5573,3.5573,3.505,3.47,2.0781,2.166,2.373,0.0,0.0,0.0,0.0,0.0,0.0,0.0,0.0,0.0,0.0,0.0,0.0,0.0,0.0,0.0,0.0,0.0,0.0,0.0,0.0,0.0,0.0,0.0,0.0,0.0,0.0,0.0,0.0,0.0,0.0,0.0,0.0,0.0,0.0,4.6308,4.6308,4.6308,4.6308,4.6308,4.6308,4.6308,4.6308,4.6308,4.6308,4.6308,4.6308,4.6308,4.6308,4.6308,4.6308,4.6308,4.5763,4.1941,4.0481,3.9937,3.5972,3.471,3.471,3.471,3.4882,3.4882,3.4882,3.5428,3.5972,3.5972,3.5972,3.6127,3.6744,3.6647,3.6183,3.6224,3.6237,3.6066,3.5939,3.5732,3.5573,3.5573,3.5573,3.5573,3.5573,3.5573,3.5573,3.5573,3.5573,3.5573,3.5573,3.5573,3.5573,3.5573,3.5573,3.5573,3.5573,3.5573,3.5573,3.5573,3.5573,3.5573,3.5573,3.5573,3.5573,3.5573,3.5573,3.5573,3.5573,3.5573,3.5573,3.5573,3.5399,3.505,2.0898,2.1641,0.0,0.0,0.0,0.0,0.0,0.0,0.0,0.0,0.0,0.0,0.0,0.0,0.0,0.0,0.0,0.0,0.0,0.0,0.0,0.0,0.0,0.0,0.0,0.0,0.0,0.0,0.0,0.0,0.0,0.0,0.0,0.0,0.0,0.0,4.6308,4.6308,4.6308,4.6308,4.6308,4.6308,4.6308,4.6308,4.6308,4.6308,4.6308,4.6308,4.6308,4.6308,4.6308,4.6308,4.6308,4.5939,4.5021,4.1761,4.0118,3.9043,3.5786,3.471,3.471,3.471,3.471,3.471,3.471,3.5054,3.5413,3.5413,3.5413,3.56,3.6158,3.6175,3.6159,3.6417,3.6146,3.6063,3.613,3.5828,3.5573,3.5573,3.5573,3.5573,3.5573,3.5573,3.5573,3.5573,3.5669,3.5748,3.5748,3.5828,3.5859,3.5748,3.5748,3.5701,3.5589,3.5573,3.5573,3.5573,3.5573,3.5573,3.5573,3.5573,3.5573,3.5573,3.5573,3.5573,3.5573,3.5573,3.5573,3.5573,3.5573,3.5399,2.166,2.1894,0.0,0.0,0.0,0.0,0.0,0.0,0.0,0.0,0.0,0.0,0.0,0.0,0.0,0.0,0.0,0.0,0.0,0.0,0.0,0.0,0.0,0.0,0.0,0.0,0.0,0.0,0.0,0.0,0.0,0.0,0.0,0.0,0.0,0.0,4.6308,4.6308,4.6308,4.6308,4.6308,4.6308,4.6308,4.6308,4.6308,4.6308,4.6308,4.6308,4.6308,4.6308,4.6308,4.6308,4.6308,4.5021,4.3211,4.1203,3.9209,3.7407,3.5428,3.471,3.471,3.471,3.471,3.471,3.471,3.5054,3.5413,3.5413,3.5413,3.5413,3.5413,3.5413,3.5509,3.6296,3.6152,3.6005,3.6016,3.5828,3.5589,3.5573,3.5573,3.5573,3.5573,3.5573,3.5573,3.5589,3.5875,3.6114,3.6114,3.64,3.6479,3.6145,3.6114,3.5971,3.5605,3.5573,3.5573,3.5573,3.5573,3.5573,3.5573,3.5573,3.5573,3.5573,3.5573,3.5573,3.5573,3.5573,3.5573,3.5573,3.5573,3.5399,2.3477,0.0,0.0,0.0,0.0,0.0,0.0,0.0,0.0,0.0,0.0,0.0,0.0,0.0,0.0,0.0,0.0,0.0,0.0,0.0,0.0,0.0,0.0,0.0,0.0,0.0,0.0,0.0,0.0,0.0,0.0,0.0,0.0,0.0,0.0,0.0,4.6308,4.6308,4.6308,4.6308,4.6308,4.6308,4.6308,4.6308,4.6308,4.6308,4.6308,4.6308,4.6308,4.6308,4.6308,4.6308,4.6308,4.5021,4.3211,4.1203,3.9209,3.7407,3.5428,3.471,3.471,3.471,3.471,3.471,3.471,3.4882,3.4882,3.4882,3.4882,3.4882,3.4882,3.4882,3.504,3.5479,3.5945,3.6168,3.6005,3.6016,3.5875,3.5621,3.5573,3.5573,3.5573,3.5573,3.5669,3.5907,3.6034,3.6193,3.6416,3.6543,3.6559,3.6463,3.6241,3.6066,3.5955,3.5716,3.5573,3.5573,3.5573,3.5573,3.5573,3.5573,3.5573,3.5573,3.5573,3.5573,3.5573,3.5573,3.5573,3.5573,3.5573,3.5573,0.0,0.0,0.0,0.0,0.0,0.0,0.0,0.0,0.0,0.0,0.0,0.0,0.0,0.0,0.0,0.0,0.0,0.0,0.0,0.0,0.0,0.0,0.0,0.0,0.0,0.0,0.0,0.0,0.0,0.0,0.0,0.0,0.0,0.0,0.0,0.0,4.6308,4.6308,4.6308,4.6308,4.6308,4.6308,4.6308,4.6308,4.6308,4.6308,4.6308,4.6308,4.6308,4.6308,4.6308,4.6308,4.6308,4.4668,4.212,4.0843,3.886,3.6328,3.5069,3.471,3.471,3.471,3.471,3.471,3.471,3.471,3.471,3.471,3.471,3.471,3.471,3.471,3.4882,3.5226,3.5729,3.6172,3.6152,3.609,3.605,3.5828,3.5669,3.5573,3.5573,3.5701,3.5859,3.6082,3.6336,3.6638,3.6988,3.7019,3.6972,3.6829,3.6638,3.64,3.613,3.5907,3.5732,3.5589,3.5573,3.5573,3.5573,3.5573,3.5573,3.5573,3.5573,3.5573,3.5573,3.5573,3.5573,3.5573,3.5573,3.5573,0.0,0.0,0.0,0.0,0.0,0.0,0.0,0.0,0.0,0.0,0.0,0.0,0.0,0.0,0.0,0.0,0.0,0.0,0.0,0.0,0.0,0.0,0.0,0.0,0.0,0.0,0.0,0.0,0.0,0.0,0.0,0.0,0.0,0.0,0.0,0.0,4.6308,4.6308,4.6308,0.0,4.6308,4.6308,4.6308,4.6308,4.6308,4.6308,4.6308,4.6308,4.6308,4.6308,4.6308,4.6308,4.6114,4.3745,4.0481,4.03,3.7959,3.471,3.471,3.471,3.471,3.471,3.471,3.471,3.471,3.471,3.471,3.471,3.471,3.471,3.471,3.471,3.4882,3.5226,3.5574,3.573,3.6234,3.6279,3.6177,3.6114,3.5844,3.5621,3.5621,3.5891,3.613,3.6193,3.6749,3.7289,3.7623,3.7671,3.7544,3.721,3.7146,3.6876,3.6257,3.6145,3.5971,3.5653,3.5589,3.5573,3.5573,3.5573,3.5573,3.5573,3.5573,3.5573,3.5573,3.5573,3.5573,3.5573,3.5573,3.5573,0.0,0.0,0.0,0.0,0.0,0.0,0.0,0.0,0.0,0.0,0.0,0.0,0.0,0.0,0.0,0.0,0.0,0.0,0.0,0.0,0.0,0.0,0.0,0.0,0.0,0.0,0.0,0.0,0.0,0.0,0.0,0.0,0.0,0.0,0.0,4.6308,4.6308,4.6308,4.6308,0.0,4.6308,4.6308,4.6308,4.6308,4.6308,4.6308,4.6308,4.6308,4.6308,4.6308,4.6308,4.6114,4.4668,4.2658,4.03,3.886,3.6684,3.471,3.471,3.471,3.471,3.471,3.471,3.471,3.471,3.471,3.471,3.471,3.471,3.471,3.471,3.471,3.471,3.4882,3.5197,3.562,3.5746,3.611,3.6208,3.6209,3.605,3.5987,3.5987,3.605,3.6288,3.6829,3.7274,3.7575,3.7655,3.7671,3.7639,3.756,3.7305,3.7067,3.6924,3.6416,3.6082,3.6002,3.5732,3.5573,3.5573,3.5573,3.5573,3.5573,3.5573,3.5573,3.5573,3.5573,3.5573,3.5573,3.5573,3.5573,0.0,0.0,0.0,0.0,0.0,0.0,0.0,0.0,0.0,0.0,0.0,0.0,0.0,0.0,0.0,0.0,0.0,0.0,0.0,0.0,0.0,0.0,0.0,0.0,0.0,0.0,0.0,0.0,0.0,0.0,0.0,0.0,0.0,0.0,4.6094,4.6308,4.6308,4.6308,4.6308,4.6308,4.6308,4.6308,4.6308,4.6308,4.6308,4.6308,4.6308,4.6308,4.6308,4.6308,4.6308,4.6114,4.4118,4.23,4.03,3.831,3.6328,3.471,3.471,3.471,3.471,3.471,3.471,3.471,3.471,3.471,3.471,3.471,3.471,3.471,3.471,3.471,3.471,3.471,3.5054,3.5554,3.5774,3.6159,3.6474,3.649,3.6336,3.6161,3.632,3.6479,3.6781,3.7305,3.7544,3.7671,3.7671,3.7671,3.7671,3.7671,3.7496,3.7321,3.7146,3.6797,3.6463,3.613,3.5939,3.5748,3.5589,3.5573,3.5573,3.5573,3.5573,3.5573,3.5573,3.5573,3.5573,3.5573,3.5573,3.5573,0.0,0.0,0.0,0.0,0.0,0.0,0.0,0.0,0.0,0.0,0.0,0.0,0.0,0.0,0.0,0.0,0.0,0.0,0.0,0.0,0.0,0.0,0.0,0.0,0.0,0.0,0.0,0.0,0.0,0.0,0.0,0.0,4.5117,4.5547,4.5976,4.623,4.6308,4.6308,4.6308,4.6308,4.6308,4.6308,4.6308,4.6308,4.6308,4.6308,4.6308,4.6308,4.6308,4.6308,4.6308,4.6114,4.3745,4.1941,4.03,3.7943,3.6143,3.471,3.471,3.471,3.471,3.471,3.471,3.471,3.471,3.471,3.471,3.471,3.471,3.471,3.471,3.471,3.471,3.471,3.5069,3.5413,3.5987,3.6129,3.6464,3.6782,3.649,3.619,3.6638,3.6988,3.7321,3.7623,3.7671,3.7671,3.7671,3.7671,3.7671,3.7671,3.7671,3.7544,3.7242,3.7162,3.6892,3.632,3.6177,3.5971,3.5685,3.5605,3.5573,3.5573,3.5573,3.5573,3.5573,3.5573,3.5573,3.5573,3.5573,3.5573,0.0,0.0,0.0,0.0,0.0,0.0,0.0,0.0,0.0,0.0,0.0,0.0,0.0,0.0,0.0,0.0,0.0,0.0,0.0,0.0,0.0,0.0,0.0,0.0,0.0,0.0,0.0,0.0,0.0,0.0,0.0,4.4238,4.4668,4.5098,4.5527,4.5937,4.6289,4.6308,4.6308,4.6308,4.6308,4.6308,4.6308,4.6308,4.6308,4.6308,4.6308,4.6308,4.6308,4.6308,4.6308,4.5939,4.23,4.0662,4.0118,3.6514,3.4882,3.471,3.471,3.471,3.471,3.471,3.471,3.471,3.471,3.471,3.471,3.471,3.471,3.471,3.471,3.471,3.471,3.471,3.4695,3.4882,3.5413,3.5942,3.6205,3.5929,3.6157,3.6459,3.7051,3.7353,3.7623,3.7655,3.7671,3.7671,3.7671,3.7671,3.7671,3.7671,3.7671,3.7655,3.7607,3.7305,3.7083,3.7003,3.6431,3.6082,3.6034,3.5748,3.5573,3.5573,3.5573,3.5573,3.5573,3.5573,3.5573,3.5573,3.5573,3.5573,0.0,0.0,0.0,0.0,0.0,0.0,0.0,0.0,0.0,0.0,0.0,0.0,0.0,0.0,0.0,0.0,0.0,0.0,0.0,0.0,0.0,0.0,0.0,0.0,0.0,0.0,0.0,0.0,0.0,0.0,4.3711,4.4141,4.4492,4.4668,4.5332,4.5762,4.5957,4.6191,4.6308,4.6308,4.6308,4.6308,4.6308,4.6308,4.6308,4.6308,4.6308,4.6308,4.6308,4.6308,4.6308,4.5939,4.1941,4.0481,3.9954,3.6158,3.471,3.471,3.471,3.471,3.471,3.471,3.471,3.471,3.471,3.471,3.471,3.471,3.471,3.471,3.471,3.471,3.471,3.471,3.471,3.471,3.4882,3.5428,3.5881,3.6113,3.6374,3.6803,3.698,3.7432,3.7671,3.7671,3.7671,3.7671,3.7671,3.7671,3.7671,3.7671,3.7671,3.7671,3.7671,3.7528,3.7337,3.7146,3.6845,3.6511,3.613,3.5955,3.578,3.5589,3.5573,3.5573,3.5573,3.5573,3.5573,3.5573,3.5573,3.5573,0.0,0.0,0.0,0.0,0.0,0.0,0.0,0.0,0.0,0.0,0.0,0.0,0.0,0.0,0.0,0.0,0.0,0.0,0.0,0.0,0.0,0.0,0.0,0.0,0.0,0.0,0.0,0.0,0.0,0.0,4.3711,4.4043,4.4277,4.4394,4.5117,4.5566,4.5683,4.6094,4.6308,4.6308,4.6308,4.6308,4.6308,4.6308,4.6308,4.6308,4.6308,4.6308,4.6308,4.6308,4.5939,4.5216,4.1761,4.0118,3.9391,3.5972,3.471,3.471,3.471,3.471,3.471,3.471,3.471,3.471,3.471,3.471,3.471,3.471,3.471,3.471,3.471,3.471,3.471,3.471,3.471,3.4695,3.4882,3.5054,3.5539,3.6389,3.6544,3.6837,3.7122,3.7496,3.7671,3.7671,3.7671,3.7671,3.7671,3.7671,3.7671,3.7671,3.7671,3.7671,3.7671,3.7671,3.756,3.7274,3.7178,3.6892,3.6384,3.6273,3.6066,3.5716,3.5716,3.5669,3.5573,3.5573,3.5573,3.5573,3.5573,3.5573,0.0,0.0,0.0,0.0,0.0,0.0,0.0,0.0,0.0,0.0,0.0,0.0,0.0,0.0,0.0,0.0,0.0,0.0,0.0,0.0,0.0,0.0,0.0,0.0,0.0,0.0,0.0,0.0,0.0,0.0,4.3711,4.373,4.3945,4.4394,4.4824,4.5254,4.5664,4.6094,4.6308,4.6308,4.6308,4.6308,4.6308,4.6308,4.6308,4.6308,4.6308,4.6308,4.6308,4.6308,4.5197,4.3389,4.1203,3.9391,3.7575,3.5428,3.471,3.471,3.471,3.471,3.471,3.471,3.471,3.471,3.471,3.471,3.471,3.471,3.471,3.471,3.471,3.471,3.471,3.471,3.471,3.4882,3.5241,3.5054,3.5256,3.6514,3.6529,3.6545,3.7454,3.7655,3.7671,3.7671,3.7671,3.7671,3.7671,3.7671,3.7671,3.7671,3.7671,3.7671,3.7671,3.7671,3.7655,3.7639,3.7321,3.7115,3.7067,3.6749,3.6416,3.6082,3.6082,3.5907,3.5573,3.5573,3.5573,3.5573,3.5573,3.5573,2.5293,0.0,0.0,0.0,0.0,0.0,0.0,0.0,0.0,0.0,0.0,0.0,0.0,0.0,0.0,0.0,0.0,0.0,0.0,0.0,0.0,0.0,0.0,0.0,0.0,0.0,0.0,0.0,0.0,0.0,4.3594,4.1875,4.1777,4.3887,4.4394,4.4961,4.5664,4.6094,4.6308,4.6308,4.6308,4.6308,4.6308,4.6308,4.6308,4.6308,4.6308,4.6308,4.6308,4.6308,4.5197,4.3211,4.1203,3.9391,3.7407,3.5428,3.471,3.471,3.471,3.471,3.471,3.471,3.471,3.471,3.471,3.471,3.471,3.471,3.471,3.471,3.471,3.471,3.471,3.471,3.471,3.4695,3.4882,3.4882,3.4882,3.5801,3.6173,3.6359,3.71,3.7486,3.7671,3.7671,3.7671,3.7671,3.7671,3.7671,3.7671,3.7671,3.7671,3.7671,3.7671,3.7671,3.7671,3.7671,3.7544,3.7369,3.7131,3.7003,3.6781,3.6431,3.6209,3.5939,3.5573,3.5573,3.5573,3.5573,3.5573,3.5573,2.373,0.0,0.0,0.0,0.0,0.0,0.0,0.0,0.0,0.0,0.0,0.0,0.0,0.0,0.0,0.0,0.0,0.0,0.0,0.0,0.0,0.0,0.0,0.0,0.0,0.0,0.0,0.0,0.0,0.0,4.3594,4.1797,4.1699,4.3867,4.4238,4.4805,4.5664,4.5957,4.6172,4.6308,4.6308,4.6308,4.6308,4.6308,4.6308,4.6308,4.6308,4.6308,4.6308,4.6308,4.4845,4.23,4.1023,3.886,3.6498,3.5241,3.471,3.471,3.471,3.471,3.471,3.471,3.471,3.471,3.471,3.471,3.471,3.471,3.471,3.471,3.471,3.471,3.471,3.471,3.471,3.471,3.471,3.471,3.4882,3.5226,3.5786,3.6359,3.6915,3.7285,3.7671,3.7671,3.7671,3.7671,3.7671,3.7671,3.7671,3.7671,3.7671,3.7671,3.7671,3.7671,3.7671,3.7671,3.7671,3.756,3.7321,3.7305,3.7146,3.6781,3.6559,3.6225,3.5748,3.5637,3.5573,3.5573,3.5573,3.5573,0.0,0.0,0.0,0.0,0.0,0.0,0.0,0.0,0.0,0.0,0.0,0.0,0.0,0.0,0.0,0.0,0.0,0.0,0.0,0.0,0.0,0.0,0.0,0.0,0.0,0.0,0.0,0.0,0.0,4.3613,4.3691,4.3711,4.3906,4.4355,4.4394,4.4805,4.5625,4.5644,4.5859,4.6289,4.6289,4.6289,4.6308,4.6308,4.6308,4.6308,4.6308,4.6308,4.6308,4.6308,4.3941,4.0481,4.0481,3.8143,3.471,3.471,3.471,3.471,3.471,3.471,3.471,3.471,3.471,3.471,3.471,3.471,3.471,3.471,3.471,3.471,3.471,3.471,3.471,3.471,3.471,3.471,3.471,3.471,3.4882,3.5226,3.5786,3.6359,3.673,3.7285,3.7671,3.7671,3.7671,3.7671,3.7671,3.7671,3.7671,3.7671,3.7671,3.7671,3.7671,3.7671,3.7671,3.7671,3.7671,3.7671,3.7671,3.7671,3.7512,3.7146,3.7131,3.6797,3.6145,3.5764,3.5589,3.5573,3.5573,3.5573,2.0566,0.0,0.0,0.0,0.0,0.0,0.0,0.0,0.0,0.0,0.0,0.0,0.0,0.0,0.0,0.0,0.0,0.0,0.0,0.0,0.0,0.0,0.0,0.0,0.0,0.0,0.0,0.0,4.2308,4.2321,4.4558,4.4678,4.4738,4.4878,4.4552,4.4828,4.5717,4.6036,4.6436,4.6875,4.6875,4.6689,4.6308,4.6308,4.6308,4.6308,4.6308,4.6308,4.6308,4.6308,4.3941,4.0481,4.0481,3.8143,3.471,3.471,3.471,3.471,3.471,3.471,3.471,3.471,3.471,3.471,3.471,3.471,3.471,3.471,3.471,3.471,3.471,3.471,3.471,3.471,3.471,3.471,3.471,3.471,3.471,3.4882,3.5241,3.56,3.5786,3.6173,3.673,3.71,3.71,3.7285,3.7671,3.7671,3.7671,3.7671,3.7671,3.7671,3.7671,3.7671,3.7671,3.7671,3.7671,3.7671,3.7671,3.7671,3.7623,3.7528,3.7258,3.7035,3.6845,3.6241,3.5828,3.5573,3.5573,3.5573,2.0876,2.0876,2.0918,0.0,0.0,0.0,0.0,0.0,0.0,0.0,0.0,0.0,0.0,0.0,0.0,0.0,0.0,0.0,0.0,0.0,0.0,0.0,0.0,0.0,0.0,0.0,0.0,0.0,4.2546,4.2624,4.4415,4.4842,4.5005,4.5005,4.5102,4.5508,4.6166,4.643,4.6796,4.7244,4.7427,4.7158,4.6556,4.6734,4.6638,4.6308,4.6308,4.6308,4.6308,4.6308,4.4491,4.1581,4.0843,3.8677,3.5786,3.5069,3.471,3.471,3.471,3.471,3.471,3.471,3.471,3.471,3.471,3.471,3.471,3.471,3.471,3.471,3.471,3.471,3.471,3.471,3.471,3.471,3.471,3.471,3.471,3.471,3.5054,3.5413,3.5413,3.5786,3.6359,3.6915,3.6915,3.71,3.7671,3.7671,3.7671,3.7671,3.7671,3.7671,3.7671,3.7671,3.7671,3.7671,3.7671,3.7671,3.7671,3.7671,3.7671,3.7671,3.7464,3.7274,3.7131,3.6447,3.5923,3.5573,3.5573,3.5573,2.1379,2.1282,2.1228,2.1214,0.0,0.0,2.2031,2.6855,0.0,0.0,0.0,0.0,0.0,0.0,0.0,0.0,0.0,0.0,0.0,0.0,0.0,0.0,0.0,0.0,0.0,0.0,4.3711,4.3711,4.3856,4.3876,4.4021,4.4678,4.5169,4.5169,4.5982,4.6513,4.707,4.709,4.7298,4.7755,4.8171,4.7914,4.7208,4.7592,4.7275,4.6638,4.6464,4.6483,4.6483,4.6308,4.5197,4.3211,4.1581,3.9573,3.7407,3.56,3.4882,3.471,3.471,3.471,3.471,3.471,3.471,3.471,3.471,3.471,3.471,3.471,3.471,3.471,3.471,3.471,3.471,3.471,3.471,3.471,3.471,3.471,3.471,3.471,3.5054,3.5226,3.5226,3.5801,3.6173,3.673,3.6915,3.71,3.7671,3.7671,3.7671,3.7671,3.7671,3.7671,3.7671,3.7671,3.7671,3.7671,3.7671,3.7671,3.7671,3.7671,3.7671,3.7671,3.7671,3.7496,3.7131,3.6447,3.5939,3.5637,3.5589,3.5573,0.0,2.1665,0.0,0.0,0.0,0.0,2.1036,2.2734,0.0,0.0,0.0,0.0,0.0,0.0,0.0,0.0,0.0,0.0,0.0,0.0,0.0,0.0,0.0,0.0,0.0,0.0,4.3711,4.3711,4.435,4.5005,4.582,4.5982,4.5982,4.5982,4.6144,4.667,4.742,4.742,4.7652,4.8117,4.8202,4.8149,4.8017,4.8099,4.8346,4.8351,4.7661,4.7488,4.7314,4.6638,4.5197,4.3389,4.3033,4.0662,3.7575,3.7223,3.5957,3.471,3.471,3.471,3.471,3.471,3.471,3.471,3.471,3.471,3.471,3.471,3.471,3.471,3.471,3.471,3.471,3.471,3.471,3.471,3.471,3.471,3.471,3.471,3.4695,3.4882,3.4882,3.4882,3.5256,3.6173,3.6359,3.673,3.7671,3.7671,3.7671,3.7671,3.7671,3.7671,3.7671,3.7671,3.7671,3.7671,3.7671,3.7671,3.7671,3.7671,3.7671,3.7671,3.7671,3.7496,3.7131,3.6447,3.6066,3.6002,3.5716,3.5573,0.0,0.0,0.0,2.1359,0.0,0.0,0.0,2.3047,0.0,0.0,0.0,0.0,0.0,0.0,0.0,0.0,0.0,0.0,0.0,0.0,0.0,0.0,0.0,0.0,0.0,0.0,4.3711,4.3711,4.4514,4.5169,4.5657,4.6467,4.6951,4.6951,4.7432,4.7773,4.8251,4.8251,4.8381,4.8618,4.8855,4.8712,4.8357,4.8819,4.8817,4.8707,4.8421,4.8179,4.7661,4.7161,4.6094,4.4668,4.3763,4.212,4.03,3.831,3.7038,3.5957,3.5069,3.471,3.471,3.471,3.471,3.471,3.471,3.471,3.471,3.471,3.471,3.471,3.471,3.471,3.471,3.471,3.471,3.471,3.471,3.471,3.471,3.471,3.471,3.471,3.471,3.471,3.5069,3.5987,3.6173,3.6545,3.7486,3.7671,3.7671,3.7671,3.7671,3.7671,3.7671,3.7671,3.7671,3.7671,3.7671,3.7671,3.7671,3.7671,3.7671,3.7671,3.7671,3.7575,3.7401,3.6876,3.6447,3.6098,3.5923,3.5748,0.0,0.0,0.0,0.0,0.0,2.1764,0.0,0.0,0.0,0.0,0.0,0.0,0.0,0.0,0.0,0.0,0.0,0.0,0.0,0.0,0.0,0.0,0.0,0.0,0.0,0.0,4.3086,4.3652,4.435,4.4842,4.5005,4.6467,4.7432,4.7592,4.841,4.8907,4.8907,4.8907,4.8907,4.8907,4.9301,4.9198,4.8499,4.9267,4.9383,4.8881,4.9088,4.8784,4.8179,4.7834,4.7334,4.6464,4.4649,4.3745,4.3033,3.9937,3.831,3.7407,3.5786,3.5069,3.471,3.471,3.471,3.471,3.471,3.471,3.471,3.471,3.471,3.471,3.471,3.471,3.471,3.471,3.471,3.471,3.471,3.471,3.471,3.471,3.471,3.471,3.471,3.471,3.5069,3.5987,3.6173,3.6545,3.7486,3.7671,3.7671,3.7671,3.7671,3.7671,3.7671,3.7671,3.7671,3.7671,3.7671,3.7671,3.7671,3.7671,3.7671,3.7671,3.7671,3.7671,3.7671,3.7369,3.6876,3.6193,3.6145,3.5923,0.0,0.0,0.0,0.0,2.3203,0.0,0.0,0.0,0.0,0.0,0.0,0.0,0.0,0.0,0.0,0.0,0.0,0.0,0.0,0.0,0.0,0.0,0.0,0.0,0.0,0.0,0.0,4.3496,4.3856,4.4186,4.5005,4.5982,4.679,4.7613,4.841,4.8907,4.8907,4.8907,4.8907,4.8907,4.8951,4.9213,4.9468,4.9576,5.0099,5.0739,4.995,4.987,5.0061,4.8351,4.7661,4.7488,4.6464,4.4845,4.3389,4.2854,4.0481,3.7591,3.7407,3.6143,3.471,3.471,3.471,3.471,3.471,3.471,3.471,3.471,3.471,3.471,3.471,3.471,3.471,3.471,3.471,3.471,3.471,3.471,3.471,3.471,3.471,3.471,3.471,3.471,3.4882,3.5413,3.5972,3.6359,3.6915,3.7486,3.7671,3.7671,3.7671,3.7671,3.7671,3.7671,3.7671,3.7671,3.7671,3.7671,3.7671,3.7671,3.7671,3.7671,3.7671,3.7671,3.7671,3.7623,3.7242,3.6543,3.6241,3.5923,0.0,0.0,0.0,0.0,0.0,0.0,2.6041,0.0,2.3494,0.0,0.0,0.0,0.0,0.0,0.0,0.0,0.0,0.0,0.0,0.0,0.0,0.0,0.0,0.0,0.0,0.0,0.0,0.0,0.0,4.1742,4.2289,4.5291,4.7272,4.7592,4.841,4.8907,4.8907,4.8907,4.8907,4.8907,4.8907,4.9017,4.9213,4.9497,4.9847,5.0262,5.05,4.9993,4.9153,4.8592,4.7834,4.6813,4.6464,4.5763,4.5021,4.3763,4.23,4.0843,3.9755,3.8677,3.7959,3.6684,3.56,3.471,3.471,3.471,3.471,3.471,3.471,3.471,3.471,3.471,3.471,3.471,3.471,3.471,3.471,3.471,3.471,3.471,3.471,3.471,3.471,3.471,3.4882,3.5413,3.5801,3.6359,3.6915,3.7285,3.7671,3.7671,3.7671,3.7671,3.7671,3.7671,3.7671,3.7671,3.7671,3.7671,3.7671,3.7671,3.7671,3.7671,3.7671,3.7671,3.7671,3.7671,3.7401,3.6892,3.6559,3.6209,3.1498,0.0,0.0,0.0,0.0,0.0,0.0,0.0,0.0,0.0,0.0,0.0,0.0,0.0,2.4526,2.4527,0.0,0.0,0.0,0.0,0.0,0.0,0.0,0.0,0.0,0.0,0.0,0.0,3.8779,3.971,4.0323,4.4505,4.7111,4.7592,4.7933,4.8251,4.8569,4.8569,4.8569,4.8569,4.8569,4.8569,4.8591,4.8938,4.9177,4.9328,5.0045,4.9652,4.8713,4.8537,4.7733,4.6638,4.6483,4.6308,4.6114,4.4668,4.3941,4.3211,4.1761,4.0662,3.9391,3.8127,3.6328,3.471,3.471,3.471,3.471,3.471,3.471,3.471,3.471,3.471,3.471,3.471,3.471,3.471,3.471,3.471,3.471,3.471,3.471,3.471,3.471,3.471,3.4882,3.5241,3.5801,3.6359,3.673,3.7301,3.7671,3.7671,3.7671,3.7671,3.7671,3.7671,3.7671,3.7671,3.7671,3.7671,3.7671,3.7671,3.7671,3.7671,3.7671,3.7671,3.7671,3.7671,3.7528,3.7274,3.6908,3.6511,0.0,0.0,0.0,3.1913,0.0,0.0,0.0,0.0,2.5164,0.0,0.0,0.0,0.0,2.485,2.4509,2.4509,2.4509,0.0,0.0,0.0,0.0,0.0,0.0,0.0,0.0,0.0,0.0,3.3633,3.6699,3.9011,3.9878,4.325,4.582,4.7592,4.679,4.679,4.7592,4.7592,4.7592,4.7592,4.7592,4.7592,4.7613,4.7613,4.7869,4.8315,4.8337,4.8868,4.9552,4.7868,4.7279,4.7488,4.6638,4.6308,4.6308,4.6289,4.5021,4.3389,4.3389,4.0843,3.7759,3.7575,3.6328,3.471,3.471,3.471,3.471,3.471,3.471,3.471,3.471,3.471,3.471,3.471,3.471,3.471,3.471,3.471,3.471,3.471,3.471,3.471,3.471,3.471,3.471,3.471,3.563,3.6173,3.6173,3.71,3.7671,3.7671,3.7671,3.7671,3.7671,3.7671,3.7671,3.7671,3.7671,3.7671,3.7671,3.7671,3.7671,3.7671,3.7671,3.7671,3.7671,3.7671,3.7671,3.7639,3.7274,3.6749,0.0,0.0,4.0869,3.9384,0.0,0.0,0.0,0.0,0.0,0.0,0.0,0.0,0.0,2.5549,2.5381,2.5335,2.5125,2.504,0.0,0.0,0.0,0.0,0.0,0.0,0.0,0.0,0.0,3.0254,3.1269,3.2133,0.0,3.8487,4.2098,4.2837,4.5051,4.6467,4.679,4.679,4.679,4.679,4.679,4.679,4.679,4.679,4.6873,4.7041,4.7354,4.734,4.7008,4.7095,4.6755,4.6418,4.6366,4.6308,4.6308,4.6308,4.5939,4.5392,4.5392,4.3567,4.1203,3.9937,3.8127,3.6328,3.5069,3.471,3.471,3.471,3.471,3.471,3.471,3.471,3.471,3.471,3.471,3.471,3.471,3.471,3.471,3.471,3.471,3.471,3.471,3.471,3.471,3.471,3.563,3.6173,3.6173,3.7116,3.7671,3.7671,3.7671,3.7671,3.7671,3.7671,3.7671,3.7671,3.7671,3.7671,3.7671,3.7671,3.7671,3.7671,3.7671,3.7671,3.7671,3.7671,3.7671,3.7671,3.7544,3.7226,4.4539,4.5216,0.0,4.3512,4.1066,0.0,3.7243,0.0,0.0,0.0,0.0,0.0,0.0,2.7938,2.7499,2.6066,2.5658,2.5487,0.0,2.4932,0.0,0.0,0.0,0.0,0.0,0.0,2.5488,2.6777,2.7754,2.8535,0.0,0.0,3.971,4.0282,4.3609,4.5495,4.582,4.582,4.582,4.582,4.582,4.582,4.582,4.582,4.582,4.582,4.6127,4.6023,4.571,4.5956,4.5884,4.5703,4.5976,4.6172,4.6308,4.6308,4.6308,4.6308,4.6308,4.5021,4.3211,4.1941,3.9755,3.7407,3.6143,3.5241,3.4753,3.5162,3.5073,3.4753,3.5176,3.5059,3.471,3.471,3.471,3.471,3.471,3.471,3.471,3.471,3.471,3.471,3.471,3.471,3.471,3.471,3.5428,3.5987,3.6173,3.6915,3.7486,3.7671,3.7671,3.7671,3.7671,3.7671,3.7671,3.7671,3.7671,3.7671,3.7671,3.7671,3.7671,3.7671,3.7671,3.7671,3.7671,3.7671,3.7671,3.7671,3.7671,3.7544]},{"header":{"parameterUnit":"m.s-1","parameterCategory":1,"la1":30.6,"la2":29.2853,"lo1":-89.7004,"lo2":-87.6739,"dy":0.0162,"dx":0.0183,"nx":112,"ny":82,"refTime":"2023-04-25T00:00:00:Z","depth":0,"parameterNumber":3,"parameterNumberName":"V-component_of_WINDS"},"data":[0.0,0.0,0.0,0.0,0.0,0.0,0.0,0.0,0.0,0.0,0.0,0.0,0.0,0.0,0.0,0.0,0.0,0.0,0.0,0.0,0.0,0.0,0.0,0.0,0.0,0.0,0.0,0.0,0.0,0.0,0.0,0.0,0.0,0.0,0.0,0.0,0.0,0.0,0.0,0.0,0.0,0.0,0.0,0.0,0.0,0.0,0.0,0.0,0.0,0.0,0.0,0.0,0.0,0.0,0.0,0.0,0.0,0.0,0.0,0.0,0.0,0.0,0.0,0.0,0.0,0.0,0.0,0.0,0.0,0.0,0.0,0.0,0.0,0.0,0.0,0.0,0.0,0.0,0.0,0.0,0.0,0.0,0.0,0.0,0.0,0.0,0.0,0.0,0.0,0.0,-5.2787,-5.8921,-6.2011,-6.3826,-6.4353,-6.4677,-6.2475,-5.6852,0.0,0.0,0.0,0.0,0.0,0.0,0.0,0.0,0.0,0.0,0.0,0.0,0.0,0.0,0.0,0.0,0.0,0.0,0.0,0.0,0.0,0.0,0.0,0.0,0.0,0.0,0.0,0.0,0.0,0.0,0.0,0.0,0.0,0.0,0.0,0.0,0.0,0.0,0.0,0.0,0.0,0.0,0.0,0.0,0.0,0.0,0.0,0.0,0.0,0.0,0.0,0.0,0.0,0.0,0.0,0.0,0.0,0.0,0.0,0.0,0.0,0.0,0.0,0.0,0.0,0.0,0.0,0.0,0.0,0.0,0.0,0.0,0.0,0.0,0.0,0.0,0.0,0.0,0.0,0.0,0.0,0.0,0.0,0.0,0.0,0.0,0.0,0.0,0.0,0.0,0.0,0.0,0.0,0.0,0.0,0.0,0.0,0.0,0.0,0.0,0.0,0.0,0.0,0.0,-5.6088,-6.3189,-6.4396,-6.4741,-6.4794,-6.5161,-6.2677,-5.6344,0.0,0.0,0.0,0.0,0.0,0.0,0.0,0.0,0.0,0.0,0.0,0.0,0.0,0.0,0.0,0.0,0.0,0.0,0.0,0.0,0.0,0.0,0.0,0.0,0.0,0.0,0.0,0.0,0.0,0.0,0.0,0.0,0.0,0.0,0.0,0.0,0.0,0.0,0.0,0.0,0.0,0.0,0.0,0.0,0.0,0.0,0.0,0.0,0.0,0.0,0.0,0.0,0.0,0.0,0.0,0.0,0.0,0.0,0.0,0.0,0.0,0.0,0.0,0.0,0.0,0.0,0.0,0.0,0.0,0.0,0.0,0.0,0.0,0.0,0.0,0.0,0.0,0.0,0.0,0.0,0.0,0.0,0.0,0.0,0.0,0.0,0.0,0.0,0.0,0.0,0.0,0.0,0.0,0.0,0.0,0.0,0.0,0.0,0.0,0.0,0.0,0.0,0.0,-5.7106,-6.1974,-6.5103,-6.5841,-6.6199,-6.6526,-6.6887,-6.4188,-5.7409,-5.7411,0.0,0.0,0.0,0.0,0.0,0.0,0.0,0.0,0.0,0.0,0.0,0.0,0.0,0.0,0.0,0.0,0.0,0.0,0.0,0.0,0.0,0.0,0.0,0.0,0.0,0.0,0.0,0.0,0.0,0.0,0.0,0.0,0.0,0.0,0.0,0.0,0.0,0.0,0.0,0.0,0.0,0.0,0.0,0.0,0.0,0.0,0.0,0.0,0.0,0.0,0.0,0.0,0.0,0.0,0.0,0.0,0.0,0.0,0.0,0.0,0.0,0.0,0.0,0.0,0.0,0.0,0.0,0.0,0.0,0.0,0.0,0.0,0.0,0.0,0.0,0.0,0.0,0.0,0.0,0.0,0.0,0.0,0.0,0.0,0.0,0.0,0.0,0.0,0.0,0.0,0.0,0.0,0.0,0.0,0.0,0.0,0.0,0.0,0.0,0.0,0.0,0.0,-6.1055,-6.5597,-6.6425,-6.7057,-6.7607,-6.8091,-6.839,-6.5546,-5.8466,-5.8653,0.0,0.0,0.0,0.0,0.0,0.0,0.0,0.0,0.0,0.0,0.0,0.0,0.0,0.0,0.0,0.0,0.0,0.0,0.0,0.0,0.0,0.0,0.0,0.0,0.0,0.0,0.0,0.0,0.0,0.0,0.0,0.0,0.0,0.0,0.0,0.0,0.0,0.0,0.0,0.0,0.0,0.0,0.0,0.0,0.0,0.0,0.0,0.0,0.0,0.0,0.0,0.0,0.0,0.0,0.0,0.0,0.0,0.0,0.0,0.0,0.0,0.0,0.0,0.0,0.0,0.0,0.0,0.0,0.0,0.0,0.0,0.0,0.0,0.0,0.0,0.0,0.0,0.0,0.0,0.0,0.0,0.0,0.0,0.0,0.0,0.0,0.0,0.0,0.0,0.0,0.0,0.0,0.0,0.0,0.0,0.0,0.0,0.0,0.0,0.0,0.0,0.0,-5.8976,-6.3309,-6.7752,-6.8283,-6.832,-6.8368,-6.8817,-6.6008,-5.8577,-5.8164,0.0,0.0,0.0,0.0,0.0,0.0,0.0,0.0,0.0,0.0,0.0,0.0,0.0,0.0,0.0,0.0,0.0,0.0,0.0,0.0,0.0,0.0,0.0,0.0,0.0,0.0,0.0,0.0,0.0,0.0,0.0,0.0,0.0,0.0,0.0,0.0,0.0,0.0,0.0,0.0,0.0,0.0,0.0,0.0,0.0,0.0,0.0,0.0,0.0,0.0,0.0,0.0,0.0,0.0,0.0,0.0,0.0,0.0,0.0,0.0,0.0,0.0,0.0,0.0,0.0,0.0,0.0,0.0,0.0,0.0,0.0,0.0,0.0,0.0,0.0,0.0,0.0,0.0,0.0,0.0,0.0,0.0,0.0,0.0,0.0,0.0,0.0,0.0,0.0,0.0,0.0,0.0,0.0,0.0,0.0,0.0,0.0,0.0,0.0,0.0,0.0,0.0,-6.1292,-6.6109,0.0,-6.7323,-6.7647,-6.8346,-6.821,-6.5059,-5.7827,0.0,0.0,0.0,0.0,0.0,0.0,0.0,0.0,0.0,0.0,0.0,0.0,0.0,0.0,0.0,0.0,0.0,0.0,0.0,0.0,0.0,0.0,0.0,0.0,0.0,0.0,0.0,0.0,0.0,0.0,0.0,0.0,0.0,0.0,0.0,0.0,0.0,0.0,0.0,0.0,0.0,0.0,0.0,0.0,0.0,0.0,0.0,0.0,0.0,0.0,0.0,0.0,0.0,0.0,0.0,0.0,0.0,0.0,0.0,0.0,0.0,0.0,0.0,0.0,0.0,0.0,0.0,0.0,0.0,0.0,0.0,0.0,0.0,0.0,0.0,0.0,0.0,0.0,0.0,0.0,0.0,0.0,0.0,0.0,0.0,0.0,0.0,0.0,0.0,0.0,0.0,0.0,0.0,0.0,0.0,0.0,0.0,0.0,0.0,0.0,0.0,0.0,-5.513,-6.2548,-6.7647,0.0,-6.7101,-6.754,-6.8346,-6.801,-6.4678,-5.7413,0.0,0.0,0.0,0.0,0.0,0.0,0.0,0.0,0.0,0.0,0.0,0.0,0.0,0.0,0.0,0.0,0.0,0.0,0.0,0.0,0.0,0.0,0.0,0.0,0.0,0.0,0.0,0.0,0.0,0.0,0.0,0.0,0.0,0.0,0.0,0.0,0.0,0.0,0.0,0.0,0.0,0.0,0.0,0.0,0.0,0.0,0.0,0.0,0.0,0.0,0.0,0.0,0.0,0.0,0.0,0.0,0.0,0.0,0.0,0.0,0.0,0.0,0.0,0.0,0.0,0.0,0.0,0.0,0.0,0.0,0.0,0.0,0.0,0.0,0.0,0.0,0.0,0.0,0.0,0.0,0.0,0.0,0.0,0.0,0.0,0.0,0.0,0.0,0.0,0.0,0.0,0.0,0.0,0.0,0.0,0.0,0.0,0.0,0.0,0.0,0.0,0.0,-5.5195,-6.1984,-6.6874,-6.7396,-6.801,-6.8394,-6.8394,-6.8394,-6.5128,0.0,0.0,0.0,0.0,0.0,0.0,0.0,0.0,0.0,0.0,0.0,0.0,0.0,0.0,0.0,0.0,0.0,0.0,0.0,0.0,0.0,0.0,0.0,0.0,0.0,0.0,0.0,0.0,0.0,0.0,0.0,0.0,0.0,0.0,0.0,0.0,0.0,0.0,0.0,0.0,0.0,0.0,0.0,0.0,0.0,0.0,0.0,0.0,0.0,0.0,0.0,0.0,0.0,0.0,0.0,0.0,0.0,0.0,0.0,0.0,0.0,0.0,0.0,0.0,0.0,0.0,0.0,0.0,0.0,0.0,0.0,0.0,0.0,0.0,0.0,0.0,0.0,0.0,0.0,0.0,0.0,0.0,0.0,0.0,0.0,0.0,0.0,0.0,0.0,0.0,0.0,0.0,0.0,0.0,0.0,0.0,0.0,0.0,0.0,0.0,0.0,0.0,0.0,-5.4616,-6.1697,-6.6618,-6.6355,-6.644,-6.6736,-6.7157,-6.754,-6.4498,-5.6813,0.0,0.0,0.0,0.0,0.0,0.0,0.0,0.0,0.0,0.0,0.0,0.0,0.0,0.0,0.0,0.0,0.0,0.0,0.0,0.0,0.0,0.0,0.0,0.0,0.0,0.0,0.0,0.0,0.0,0.0,0.0,0.0,0.0,0.0,0.0,0.0,0.0,0.0,0.0,0.0,0.0,0.0,0.0,0.0,0.0,0.0,0.0,0.0,0.0,0.0,0.0,0.0,0.0,0.0,0.0,0.0,0.0,0.0,0.0,0.0,0.0,0.0,0.0,0.0,0.0,0.0,0.0,0.0,0.0,0.0,0.0,0.0,0.0,0.0,0.0,0.0,0.0,0.0,0.0,0.0,0.0,0.0,0.0,0.0,0.0,0.0,0.0,0.0,0.0,0.0,0.0,0.0,0.0,0.0,0.0,0.0,0.0,0.0,0.0,0.0,0.0,0.0,-5.4148,-6.1286,-6.6172,-6.5867,-6.6021,-6.6294,-6.6677,-6.7213,-6.4853,-5.8578,0.0,0.0,0.0,0.0,0.0,0.0,0.0,0.0,0.0,0.0,0.0,0.0,0.0,0.0,0.0,0.0,0.0,0.0,0.0,0.0,0.0,0.0,0.0,0.0,0.0,0.0,0.0,0.0,0.0,0.0,0.0,0.0,0.0,0.0,0.0,0.0,0.0,0.0,0.0,0.0,0.0,0.0,0.0,0.0,0.0,0.0,0.0,0.0,0.0,0.0,0.0,0.0,0.0,0.0,0.0,0.0,0.0,0.0,0.0,0.0,0.0,0.0,0.0,0.0,0.0,0.0,0.0,0.0,0.0,0.0,0.0,0.0,0.0,0.0,0.0,0.0,0.0,0.0,0.0,0.0,0.0,0.0,0.0,0.0,0.0,0.0,0.0,0.0,0.0,0.0,0.0,0.0,0.0,0.0,0.0,0.0,0.0,0.0,0.0,0.0,0.0,0.0,-5.3905,-6.0927,-6.5911,-6.5911,-6.6474,-6.6836,-6.6836,-6.732,-6.5909,-6.1777,0.0,0.0,0.0,0.0,0.0,0.0,0.0,0.0,0.0,0.0,0.0,0.0,0.0,0.0,0.0,0.0,0.0,0.0,0.0,0.0,0.0,0.0,0.0,0.0,0.0,0.0,0.0,0.0,0.0,0.0,0.0,0.0,0.0,0.0,0.0,0.0,0.0,0.0,0.0,0.0,0.0,0.0,0.0,0.0,0.0,0.0,0.0,0.0,0.0,0.0,0.0,0.0,0.0,0.0,0.0,0.0,0.0,0.0,0.0,0.0,-5.0485,0.0,0.0,0.0,0.0,0.0,0.0,0.0,0.0,0.0,0.0,0.0,0.0,0.0,0.0,0.0,0.0,0.0,0.0,0.0,0.0,0.0,0.0,0.0,0.0,0.0,0.0,0.0,0.0,0.0,0.0,0.0,0.0,0.0,0.0,0.0,0.0,0.0,0.0,0.0,0.0,0.0,-5.3708,-6.133,-6.6731,-6.6731,-6.7361,-6.7783,-6.7783,-6.8342,-6.6879,-6.2695,-6.1974,0.0,0.0,0.0,0.0,0.0,0.0,0.0,0.0,0.0,0.0,0.0,0.0,0.0,0.0,0.0,0.0,0.0,0.0,0.0,0.0,0.0,0.0,0.0,0.0,0.0,0.0,0.0,0.0,0.0,0.0,0.0,0.0,0.0,0.0,0.0,0.0,0.0,0.0,0.0,0.0,0.0,0.0,0.0,0.0,0.0,0.0,0.0,0.0,0.0,0.0,0.0,0.0,0.0,0.0,0.0,0.0,0.0,0.0,0.0,0.0,-5.1015,0.0,0.0,0.0,0.0,0.0,0.0,0.0,0.0,0.0,0.0,0.0,0.0,0.0,0.0,0.0,0.0,0.0,0.0,0.0,0.0,0.0,0.0,0.0,0.0,0.0,0.0,0.0,0.0,0.0,0.0,0.0,0.0,0.0,0.0,0.0,0.0,0.0,0.0,0.0,0.0,-5.433,-6.2042,-6.7517,-6.7517,-6.7873,-6.8088,-6.8088,-6.8634,-6.7981,-6.5446,-6.4259,0.0,0.0,0.0,0.0,0.0,0.0,0.0,0.0,0.0,0.0,0.0,0.0,0.0,0.0,0.0,0.0,0.0,0.0,0.0,0.0,0.0,0.0,0.0,0.0,0.0,0.0,0.0,0.0,0.0,0.0,0.0,0.0,0.0,0.0,0.0,0.0,0.0,0.0,0.0,0.0,0.0,0.0,0.0,0.0,0.0,0.0,0.0,0.0,0.0,0.0,0.0,0.0,0.0,0.0,0.0,-5.3897,-5.3897,-5.3897,-5.3964,-5.5388,-5.5852,-5.5487,0.0,0.0,0.0,0.0,0.0,0.0,0.0,0.0,0.0,0.0,0.0,0.0,0.0,0.0,0.0,0.0,0.0,0.0,0.0,0.0,0.0,0.0,0.0,0.0,0.0,-5.5262,-5.5683,0.0,0.0,0.0,0.0,0.0,0.0,0.0,0.0,0.0,0.0,0.0,0.0,-5.5166,-6.2888,-6.8302,-6.8302,-6.8444,-6.8516,-6.8516,-6.9002,-6.9057,-6.8529,-6.6156,-6.4375,0.0,0.0,0.0,0.0,0.0,0.0,0.0,0.0,0.0,0.0,0.0,0.0,0.0,0.0,0.0,0.0,0.0,0.0,0.0,0.0,0.0,0.0,0.0,0.0,0.0,0.0,0.0,0.0,0.0,0.0,0.0,0.0,-4.985,-5.3544,0.0,0.0,0.0,0.0,0.0,0.0,0.0,0.0,0.0,0.0,0.0,0.0,0.0,0.0,-5.1943,-5.4725,-5.6117,-5.615,-5.8734,-5.996,-5.996,-5.996,-5.996,-5.986,-5.8204,0.0,-5.562,-5.5322,0.0,0.0,0.0,0.0,0.0,0.0,0.0,0.0,0.0,0.0,0.0,0.0,0.0,0.0,0.0,0.0,0.0,0.0,0.0,0.0,0.0,0.0,-6.267,-6.3091,-6.123,-6.0282,0.0,-5.5578,-4.8783,-5.2992,0.0,0.0,0.0,0.0,0.0,0.0,0.0,0.0,-5.5968,-6.3743,-6.9158,-6.9158,-6.9765,-7.0193,-7.0193,-7.0261,-7.0237,-7.0046,-6.9685,-6.8293,-6.5775,-6.7812,0.0,0.0,0.0,0.0,0.0,0.0,0.0,0.0,0.0,0.0,0.0,0.0,0.0,0.0,0.0,0.0,0.0,0.0,0.0,0.0,0.0,0.0,0.0,0.0,0.0,0.0,0.0,0.0,0.0,-4.9664,-5.1979,-5.3955,-5.4182,-5.3043,0.0,0.0,0.0,0.0,0.0,0.0,0.0,0.0,0.0,-5.3367,-5.4328,-5.499,-5.5421,-5.7906,-5.9164,-5.9198,-6.049,-6.1119,-6.1119,-6.1119,-6.1119,-6.1053,-6.0092,-5.9297,-5.8601,-5.7376,-5.6183,-5.4858,0.0,0.0,0.0,0.0,0.0,-4.7671,-4.8233,0.0,0.0,0.0,0.0,0.0,0.0,0.0,0.0,0.0,0.0,0.0,0.0,0.0,0.0,-6.5617,-6.5261,-6.4799,-6.6493,-6.0882,-5.6082,0.0,-5.5433,-5.2042,-4.9437,0.0,0.0,0.0,0.0,-5.9857,-6.0214,-6.5918,-6.9979,-6.9979,-7.03,-7.0514,-7.0514,-7.0514,-7.0436,-7.044,-7.0404,-6.9803,-6.8549,-6.988,-6.8368,0.0,0.0,0.0,0.0,0.0,0.0,0.0,0.0,0.0,0.0,0.0,0.0,0.0,0.0,0.0,0.0,0.0,0.0,0.0,0.0,0.0,0.0,0.0,0.0,0.0,0.0,0.0,0.0,-5.227,-5.3746,-5.4728,-5.5579,-5.4839,0.0,0.0,0.0,0.0,0.0,0.0,-5.3467,-5.3665,-5.4262,-5.5355,-5.6978,-5.8071,-5.8634,-6.0456,-6.1384,-6.1384,-6.1583,-6.1649,-6.1649,-6.1649,-6.1649,-6.1649,-6.1649,-6.1649,-6.1516,-5.9463,-5.8005,-5.6945,-5.5984,-5.3964,-5.1479,-5.0551,-5.0817,-5.1678,-5.2137,-5.4616,-5.7658,-5.8351,0.0,-5.76,-5.7285,0.0,0.0,0.0,0.0,-5.7035,-5.9839,-6.1806,-6.3776,-6.667,-6.7656,-6.7938,-6.815,-6.5349,-6.2903,0.0,-6.0432,-5.6759,-5.3265,0.0,0.0,0.0,0.0,-6.4091,-6.4269,-6.8266,-7.1085,-7.1085,-7.1085,-7.1085,-7.1085,-7.1085,-7.1085,-7.1085,-7.1085,-7.1103,-7.1158,-7.1487,-7.0568,-6.8287,0.0,0.0,0.0,0.0,0.0,0.0,0.0,0.0,0.0,0.0,0.0,0.0,0.0,0.0,0.0,0.0,0.0,0.0,0.0,0.0,0.0,0.0,0.0,0.0,0.0,0.0,0.0,0.0,0.0,-5.8281,-5.9923,0.0,0.0,0.0,0.0,-5.2407,-5.2937,-5.4262,-5.6349,-5.7144,-5.8502,-6.0655,-6.0821,-6.092,-6.0953,-6.1715,-6.2113,-6.2113,-6.2842,-6.3173,-6.3173,-6.3173,-6.3173,-6.3173,-6.3173,-6.3173,-6.304,-6.155,-6.0887,-6.049,-5.6978,-5.5521,-5.4924,-5.1479,-5.2407,-5.5279,-5.516,-5.7456,-6.0553,-6.1139,-6.0378,-5.8661,-5.5859,-5.5413,0.0,0.0,-5.858,-6.1459,-6.1636,-6.4468,-6.7336,-6.7548,-6.815,-6.8893,-6.9637,-6.7437,-6.6008,0.0,-6.5611,-6.2897,-6.2735,0.0,-6.2842,-5.8788,-6.2485,-6.5946,-6.6696,-7.0229,-7.2691,-7.2691,-7.2691,-7.2691,-7.2691,-7.2691,-7.2691,-7.2691,-7.2691,-7.2968,-7.3566,-7.2962,-7.309,-7.416,-6.9629,0.0,0.0,0.0,0.0,0.0,0.0,0.0,0.0,0.0,0.0,0.0,0.0,0.0,0.0,0.0,0.0,0.0,0.0,0.0,0.0,0.0,0.0,0.0,0.0,0.0,0.0,0.0,0.0,-5.8575,-5.8927,0.0,0.0,-5.7343,-5.6779,-5.5256,-5.7144,-5.8899,-6.0158,-6.0456,-6.1185,-6.2477,-6.251,-6.251,-6.251,-6.2742,-6.2875,-6.2875,-6.314,-6.3272,-6.3272,-6.3272,-6.3272,-6.3272,-6.3272,-6.3272,-6.3239,-6.2709,-6.251,-6.2378,-6.1053,-6.0556,-6.039,-5.9098,-5.9429,-6.0556,-6.0473,-6.13,-6.2425,-6.2637,-6.2911,-6.3056,-6.1937,-6.2608,-6.3669,-6.3506,-6.4888,-6.6415,-6.6739,-6.8328,-6.9955,-7.0487,-7.102,-7.141,-7.1695,-7.0946,-7.0481,-7.1337,-6.8342,-6.549,-6.5019,-6.7695,-6.8373,-6.3948,-6.7267,-7.0407,-7.0693,-7.1942,-7.2798,-7.2798,-7.2798,-7.2798,-7.2798,-7.2798,-7.2798,-7.2798,-7.2798,-7.2939,-7.3111,-7.3327,-7.3811,-7.4642,-7.3363,-7.0134,0.0,0.0,0.0,0.0,0.0,0.0,0.0,0.0,0.0,0.0,0.0,0.0,0.0,0.0,0.0,0.0,0.0,0.0,0.0,0.0,0.0,0.0,0.0,0.0,0.0,0.0,-5.6425,-5.8303,-5.8767,-5.8734,-5.8237,-5.8833,-5.9065,-5.8568,-6.0589,-6.2047,-6.251,-6.2543,-6.2775,-6.3272,-6.3272,-6.3272,-6.3272,-6.3537,-6.3637,-6.3637,-6.3902,-6.4001,-6.4001,-6.4266,-6.3703,-6.261,-6.41,-6.4034,-6.3007,-6.4233,-6.473,-6.463,-6.367,-6.3272,-6.3272,-6.3272,-6.3272,-6.3272,-6.3272,-6.3438,-6.3637,-6.3637,-6.4808,-6.6211,-6.6529,-6.781,-6.9141,-6.9281,-6.9741,-7.0204,-7.0629,-7.1197,-7.1801,-7.2369,-7.262,-7.2869,-7.3155,-7.1942,-7.1371,-7.3262,-7.1085,-6.8373,-6.6517,-6.898,-6.9622,-6.4912,-6.7088,-6.9158,-6.8873,-7.0229,-7.1192,-7.1192,-7.2655,-7.3619,-7.3619,-7.1906,-7.162,-7.3476,-7.187,-7.1692,-7.3547,-7.2494,-7.2183,-7.2788,-7.1743,-6.9192,-6.5148,0.0,0.0,0.0,0.0,0.0,0.0,0.0,0.0,0.0,0.0,0.0,0.0,0.0,0.0,0.0,0.0,0.0,0.0,0.0,0.0,0.0,0.0,0.0,-5.1593,-5.5388,-5.8075,-5.7906,-5.9827,-6.1152,-6.1185,-6.1781,-6.2212,-6.2212,-6.2875,-6.3272,-6.3305,-6.3239,-6.3173,-6.3206,-6.3239,-6.3239,-6.3239,-6.4067,-6.4498,-6.4498,-6.516,-6.5492,-6.5492,-6.622,-6.463,-6.155,-6.579,-6.5624,-6.261,-6.6154,-6.7612,-6.7347,-6.4531,-6.3405,-6.3405,-6.3405,-6.3405,-6.3405,-6.3272,-6.3802,-6.4498,-6.4498,-6.5975,-6.8031,-6.8876,-7.0228,-7.1704,-7.2549,-7.2798,-7.2798,-7.2834,-7.2834,-7.2834,-7.2869,-7.2905,-7.3119,-7.394,-7.0514,-6.8908,-7.4225,-7.4011,-7.1727,-6.7909,-6.7873,-6.6803,-6.2271,-6.2235,0.0,-6.17,-6.559,-6.8373,-6.8373,-7.237,-7.5082,-7.526,-7.0229,-6.9408,-7.4939,-7.0264,-6.9658,-7.501,-7.08,-6.8658,-6.9274,-6.4906,-6.4806,-6.9235,0.0,0.0,0.0,0.0,0.0,0.0,0.0,0.0,0.0,0.0,0.0,0.0,0.0,0.0,0.0,0.0,0.0,0.0,0.0,0.0,0.0,0.0,-5.6516,-5.6479,-5.743,-5.8806,-6.0804,-6.1516,-6.208,-6.261,-6.2842,-6.2974,-6.2974,-6.3173,-6.3504,-6.4034,-6.2047,-6.1152,-6.1682,-6.2212,-6.2477,-6.2477,-6.5326,-6.6717,-6.6717,-6.6916,-6.7016,-6.7016,-6.7247,-6.6784,-6.5889,-6.7115,-6.7049,-6.6187,-6.7214,-6.7612,-6.7546,-6.6751,-6.6419,-6.6419,-6.6419,-6.6419,-6.6055,-6.3405,-6.4332,-6.6717,-6.6717,-6.758,-6.8811,-6.9667,-7.0645,-7.1704,-7.2549,-7.2727,-7.2762,-7.3296,-7.3438,-7.3581,-7.415,-7.4902,-7.5474,-7.5688,-7.5298,-7.5263,-7.6581,-7.6657,-7.5656,-7.3333,-7.3583,-7.369,-7.237,-7.2834,0.0,-7.3012,-7.4118,-7.4903,-7.4903,-7.2513,-7.2548,-7.6545,-7.1834,-7.1014,-7.6509,-7.4939,-7.4475,-7.601,-7.4261,-7.3542,-7.4211,-6.9958,-6.855,0.0,0.0,0.0,0.0,0.0,0.0,0.0,0.0,0.0,0.0,0.0,0.0,0.0,0.0,0.0,0.0,0.0,0.0,0.0,0.0,0.0,0.0,-5.6393,-5.976,-6.0729,-6.0818,-6.1213,-6.2614,-6.2813,-6.2894,-6.3239,-6.357,-6.3736,-6.3736,-6.4299,-6.4829,-6.526,-6.3968,-6.2709,-6.1583,-6.3438,-6.3703,-6.2179,-6.579,-6.7612,-6.7612,-6.7612,-6.7612,-6.7645,-6.7943,-6.7247,0.0,-6.7744,-6.7678,-6.6386,-6.791,-6.8539,0.0,0.0,0.0,0.0,0.0,-6.7612,-6.7314,-6.5194,-6.5856,-6.7612,-6.7612,-6.8144,-6.9065,-7.0374,-6.9921,-6.9212,-7.0522,-6.959,-6.8845,-7.1267,-7.2157,-7.3012,-7.5434,-7.6435,-7.6866,-7.6866,-7.5726,-7.5298,-7.7116,-7.5976,0.0,-7.5974,-7.5189,-7.3761,-7.1763,-7.1834,-7.1977,-7.162,-7.3333,-7.4582,-7.4582,-7.3476,-7.4047,-7.7223,-7.2477,0.0,0.0,0.0,-7.3583,-7.3904,-7.3476,0.0,0.0,0.0,-6.8165,-7.077,0.0,0.0,0.0,-6.7336,-6.5674,0.0,0.0,0.0,0.0,0.0,0.0,0.0,0.0,0.0,0.0,0.0,0.0,0.0,0.0,0.0,0.0,-5.8761,-6.1593,-6.4098,-6.4536,-6.4404,-6.3833,-6.3715,-6.3729,-6.3723,-6.4233,-6.4664,-6.473,-6.5922,-6.6651,0.0,0.0,0.0,0.0,0.0,-6.569,-6.2444,-6.6055,-6.7877,-6.7877,-6.7877,-6.791,-6.8009,-6.8639,-6.7214,-6.4465,-6.8374,-6.8208,-6.5492,-6.8705,-7.003,-6.9898,-6.844,-6.7877,-6.7811,-6.7413,-6.7512,0.0,0.0,0.0,0.0,-6.8009,-6.8473,-6.941,-7.1268,-6.9348,-6.6892,-6.8714,-6.666,-6.4947,-6.9158,-7.0764,-7.2334,-7.6509,-7.758,-7.7651,-7.7651,-7.444,-7.2798,-7.6973,-7.4404,-7.2869,-7.7045,-7.4832,-7.1049,-6.6839,-6.6268,-6.6089,-6.534,-6.8944,-7.1549,-7.1549,0.0,0.0,-7.7723,-7.2727,-7.1942,-7.7437,-7.3119,-7.0657,-7.1264,-7.1299,-6.9501,-6.5707,-6.4878,-6.6931,-7.1742,-7.107,-7.3054,-7.7268,-6.9469,-6.8216,0.0,0.0,0.0,0.0,0.0,0.0,0.0,0.0,0.0,0.0,0.0,0.0,0.0,0.0,0.0,-5.9167,-6.2279,-6.4816,-6.5392,-6.5917,-6.5918,-6.489,-6.4567,-6.4947,-6.6057,-6.6112,-6.6353,-6.6949,-6.7247,-6.7413,-6.7413,-6.5326,0.0,-6.3073,-6.4299,-6.463,-6.3968,-6.7546,-6.9368,-6.9368,0.0,0.0,-7.0262,-7.0394,-7.0428,-7.0361,-7.1223,-7.1189,-7.0593,-7.1289,-7.1587,-7.1421,-6.9964,-6.9368,-6.9036,-6.6088,-6.685,-6.897,-6.6022,-6.7314,-7.0262,-7.0262,-7.0759,-7.1708,-7.3543,-7.3636,0.0,-7.5205,-7.5118,-7.4761,-7.5688,-7.6045,-7.6367,-7.7294,-7.8008,-7.8472,-7.8472,-7.8409,-7.8592,-7.9257,-7.8874,-7.8516,-7.9293,-7.8258,-7.7009,-7.6117,-7.6545,-7.6902,-7.6723,-7.7508,-7.8079,-7.8079,-7.4939,-7.4618,-7.9079,-7.4404,-7.3583,-7.9079,-7.783,-7.6652,-7.6152,-7.6152,-7.5798,-7.4941,-7.4762,-7.544,-7.7026,-7.6881,-7.7611,-7.9029,-7.6533,-7.5984,0.0,0.0,0.0,0.0,0.0,0.0,0.0,0.0,0.0,0.0,0.0,-5.6258,0.0,0.0,-5.937,-6.052,-6.2888,-6.4986,-6.6102,-6.7252,-6.7487,-6.6402,-6.6215,-6.6477,-6.7345,-6.7321,-6.7306,-6.7579,-6.7943,-6.8142,-6.8142,-6.7115,-6.569,-6.3902,-6.6287,-6.6717,-6.4929,-6.8871,-7.0891,-7.0891,-7.0891,-7.109,-7.1455,-7.1455,-7.1653,-7.2018,-7.2018,-7.2018,-7.2018,-7.2018,-7.2018,-7.1918,-7.1189,-7.0891,-7.0693,-6.8871,-6.9334,-7.0626,-6.8837,-6.9633,-7.1455,-7.1455,-7.1686,-7.2341,-7.4193,-7.3137,-7.1607,-7.3503,-7.2584,-7.1585,-7.3976,-7.4868,-7.576,-7.8151,-7.9007,-7.9293,-7.9293,-7.9691,-7.9977,-7.9899,-7.9977,-7.9977,-7.9899,-7.9578,-7.9293,-7.9446,-7.9727,-7.9899,-8.0054,-7.9977,-7.9899,-7.9899,-7.7437,-7.6937,-7.9685,-7.7366,-7.6973,-7.9721,-7.9507,-7.9114,-7.8722,-7.8686,-7.8686,-7.8686,-7.8294,-7.8305,-7.8602,-7.8207,-7.8135,-7.8521,-7.8317,-7.8675,0.0,0.0,0.0,0.0,0.0,0.0,0.0,0.0,-5.7398,-5.7031,-5.7842,-5.8579,-5.8687,-5.9261,-6.0376,-6.2279,-6.3734,-6.5222,-6.7015,-6.8335,-6.8823,-6.8176,-6.7887,-6.7913,-6.8202,-6.8178,-6.8061,-6.8042,-6.8572,-6.897,-6.9103,-6.9666,-6.8738,-6.5955,-6.9268,-6.9699,-6.6717,-7.0229,-7.2018,-7.2018,-7.2018,-7.2084,-7.2216,-7.2216,-7.2283,-7.2415,-7.2415,-7.2415,-7.2415,-7.2415,-7.2415,-7.2415,-7.2415,-7.2415,-7.2382,-7.2117,-7.2018,-7.2018,-7.2018,-7.2084,-7.2216,-7.2216,-7.2316,-7.2774,-7.4457,-7.2382,-6.9865,-7.1582,-6.9878,-6.848,-7.2298,-7.3726,-7.5153,-7.9007,-7.9899,-7.9899,-7.9899,-7.9899,-7.9899,-7.9899,-7.9899,-7.9899,-7.9899,-7.9899,-7.9977,-8.013,-7.9977,-7.9977,-8.013,-7.9977,-7.9899,-7.9899,-7.9899,-7.9899,-7.9899,-7.9899,-7.9899,-7.9899,-7.9899,-7.9899,-7.9899,-7.9899,-7.9899,-7.9899,-7.9257,-7.8936,-7.8936,-7.8294,-7.7972,-7.7972,-7.8567,-7.9288,-4.9729,-4.5771,-4.4519,-4.8612,-5.1493,-5.3887,0.0,0.0,-6.3433,-6.1694,-6.328,-6.516,-6.5396,-6.6002,-6.6626,-6.7117,-6.7895,-6.8571,-6.8808,-6.8977,-6.9316,-6.9857,-6.8875,-6.8473,-6.9209,-6.8851,-6.8837,-6.95,-6.9633,-6.9964,-7.0626,-7.0726,-7.0891,-7.1156,-7.162,-7.1686,-7.1289,-7.1753,-7.2018,-7.2018,-7.2018,-7.2349,-7.2978,-7.2978,-7.3343,-7.3939,-7.3939,-7.3939,-7.3939,-7.3939,-7.3939,-7.3939,-7.3939,-7.3939,-7.3773,-7.2481,-7.2018,-7.2018,-7.2018,-7.2448,-7.2978,-7.2978,-7.3409,-7.4107,-7.5181,-7.5709,-7.6192,-7.7285,-7.785,-7.8329,-7.8864,-7.9043,-7.9257,-7.9792,-7.9899,-7.9899,-7.9899,-7.9899,-7.9899,-7.9899,-7.9899,-7.9899,-7.9899,-7.9899,-7.9899,-7.9899,-7.9899,-7.9899,-7.9899,-7.9899,-7.9899,-7.9899,-7.9899,-7.9899,-7.9899,-7.9899,-7.9899,-7.9899,-7.9899,-7.9899,-7.9899,-7.9899,-7.9899,-7.9899,-7.9828,-7.9792,-7.9792,-7.9685,-7.965,-7.965,-7.9691,-7.9393,-5.1792,-5.1589,0.0,0.0,-5.7977,-6.0772,-6.2189,-6.4334,-6.5766,-6.4824,-6.5935,-6.7165,-6.7285,-6.6475,-6.6323,0.0,-6.7455,-6.759,-6.891,-6.9857,-7.0669,-7.1379,-6.9019,-6.7175,-6.704,-6.9085,-6.9577,-6.7596,-6.9727,-7.1223,-7.1521,-7.1554,-7.1686,-7.1985,-7.2415,-7.2647,-7.2647,-7.3078,-7.3276,-7.3276,-7.3276,-7.3442,-7.374,-7.374,-7.3906,-7.4171,-7.4171,-7.4171,-7.4171,-7.4171,-7.4171,-7.4171,-7.4171,-7.4171,-7.4105,-7.3475,-7.3276,-7.3276,-7.3276,-7.3475,-7.374,-7.374,-7.3939,-7.4439,-7.5952,-7.669,-7.7283,-7.8835,-7.955,-7.9899,-7.9899,-7.9899,-7.9899,-7.9899,-7.9899,-7.9899,-7.9899,-7.9899,-7.9899,-7.9899,-7.9899,-7.9899,-7.9899,-7.9899,-7.9899,-7.9899,-7.9899,-7.9899,-8.0054,-7.9977,-7.9899,-7.9899,-7.9899,-7.9899,-7.9899,-7.9899,-7.9899,-7.9899,-7.9899,-7.9899,-7.9899,-7.9899,-7.9899,-7.9899,-7.9899,-7.9899,-7.9899,-7.9899,-7.9899,-7.9899,-7.9899,-7.9661,-5.3315,0.0,0.0,-5.9742,-6.2482,-6.4952,-6.6491,-6.6981,-6.7015,-6.7045,-6.7603,-6.8027,-6.8113,-6.6998,-6.6559,-6.8267,-6.7793,-6.7895,-6.9755,-7.0939,-7.1413,-7.0906,-6.8297,-6.548,-6.2569,-6.7188,-6.9654,-6.7835,-7.0386,-7.2182,-7.2381,-7.2316,-7.2415,-7.2581,-7.3111,-7.3409,-7.3409,-7.3906,-7.4171,-7.4171,-7.4171,-7.4171,-7.4171,-7.4171,-7.4171,-7.4171,-7.4171,-7.4171,-7.4171,-7.4171,-7.4171,-7.4171,-7.4171,-7.4171,-7.4171,-7.4171,-7.4171,-7.4171,-7.4171,-7.4171,-7.4171,-7.4171,-7.4171,-7.4439,-7.5764,-7.6565,-7.7283,-7.8718,-7.9471,-7.9899,-7.9899,-7.9899,-7.9899,-7.9899,-7.9899,-7.9899,-7.9899,-7.9899,-7.9899,-7.9899,-7.9899,-7.9899,-7.9899,-7.9899,-7.9899,-7.9899,-7.9899,-7.9977,-8.013,-7.9977,-7.9899,-7.9899,-7.9899,-7.9899,-7.9899,-7.9899,-7.9899,-7.9899,-7.9899,-7.9899,-7.9899,-7.9899,-7.9899,-7.9899,-7.9899,-7.9899,-7.9899,-7.9899,-7.9899,-7.9899,-7.9899,-7.9899,-5.3382,0.0,-5.1251,-5.9268,-6.1366,-6.255,-6.688,-6.7723,-6.7752,-6.8459,-6.845,-6.8395,-6.8627,-6.9166,-6.976,-7.0094,-7.0703,-7.1413,-7.2191,-7.2326,-7.1007,-6.7421,-6.688,-6.37,0.0,-6.2408,-6.8841,-7.2323,-7.25,-7.2674,-7.3407,-7.3177,-7.3376,-7.4072,-7.4105,-7.4138,-7.4138,-7.4171,-7.4171,-7.4171,-7.4171,-7.4171,-7.4171,-7.4171,-7.4171,-7.4171,-7.4171,-7.4171,-7.4171,-7.4171,-7.4171,-7.4171,-7.4171,-7.4171,-7.4171,-7.4171,-7.4171,-7.4171,-7.4171,-7.4171,-7.4171,-7.4171,-7.4171,-7.4171,-7.4272,-7.5608,-7.7016,-7.7105,-7.8469,-7.9899,-7.9899,-7.9899,-7.9899,-7.9899,-7.9899,-7.9899,-7.9899,-7.9899,-7.9899,-7.9899,-7.9899,-7.9899,-7.9899,-7.9899,-7.9899,-7.9899,-7.9899,-7.9899,-7.9899,-7.9899,-7.9899,-7.9899,-7.9899,-7.9899,-7.9899,-7.9899,-7.9899,-7.9899,-7.9899,-7.9899,-7.9899,-7.9899,-7.9899,-7.9899,-7.9899,-7.9899,-7.9899,-7.9899,-7.9899,-7.9899,-7.9899,-7.9899,-5.115,0.0,-5.7848,-6.0622,-6.3497,-6.5985,-6.742,-6.8162,-6.8601,-6.8715,-6.6828,-6.5278,-6.5917,-6.4194,-6.3653,-6.6711,-6.5764,-6.6474,-7.1684,-6.8571,-6.732,-7.1481,-6.7624,0.0,0.0,0.0,0.0,-6.5731,-7.0917,-7.4137,-7.4206,-7.4107,-7.414,-7.4171,-7.4171,-7.4171,-7.4171,-7.4171,-7.4171,-7.4171,-7.4171,-7.4171,-7.4171,-7.4171,-7.4171,-7.4171,-7.4171,-7.4171,-7.4171,-7.4171,-7.4171,-7.4171,-7.4171,-7.4171,-7.4171,-7.4171,-7.4171,-7.4171,-7.4171,-7.4171,-7.4171,-7.4171,-7.4171,-7.4372,-7.4902,-7.5952,-7.7105,-7.7754,-7.8917,-7.9899,-7.9899,-7.9899,-7.9899,-7.9899,-7.9899,-7.9899,-7.9899,-7.9899,-7.9899,-7.9899,-7.9899,-7.9899,-7.9899,-7.9899,-7.9899,-7.9899,-7.9899,-7.9899,-7.9899,-7.9899,-7.9899,-7.9899,-7.9899,-7.9899,-7.9899,-7.9899,-7.9899,-7.9899,-7.9899,-7.9899,-7.9899,-7.9899,-7.9899,-7.9899,-7.9899,-7.9899,-7.9899,-7.9899,-7.9899,-7.9899,-7.9899,-7.9899,-5.2909,-5.7036,-6.167,-6.326,-6.6,-6.8402,-6.8499,-6.9026,-6.9553,-6.9613,-6.8079,-6.6339,-6.5189,-6.326,-6.2753,-6.5628,-6.4512,-6.5595,-7.2259,-6.9485,-6.8233,-7.2191,-6.8436,-6.6948,0.0,0.0,0.0,-6.5076,-7.0052,-7.3122,-7.2931,-7.2738,-7.3142,-7.4339,-7.4272,-7.4171,-7.4171,-7.4171,-7.4171,-7.4171,-7.4171,-7.4171,-7.4171,-7.4171,-7.331,-7.1918,-7.3475,-7.3276,-7.1951,-7.3508,-7.4171,-7.4171,-7.4171,-7.4171,-7.4171,-7.4171,-7.4171,-7.4171,-7.4171,-7.4171,-7.4171,-7.4171,-7.4439,-7.4803,-7.545,-7.6508,-7.7667,-7.8336,-7.9196,-7.9899,-7.9899,-7.9899,-7.9899,-7.9899,-7.9899,-7.9899,-7.9899,-7.9899,-7.9899,-7.9899,-7.9899,-7.9899,-7.9899,-7.9899,-7.9899,-7.9899,-7.9899,-7.9899,-7.9899,-7.9899,-7.9899,-7.9899,-7.9899,-7.9899,-7.9899,-7.9899,-7.9899,-7.9899,-7.9899,-7.9899,-7.9899,-7.9899,-7.9899,-7.9899,-7.9899,-7.9899,-7.9899,-7.9899,-7.9899,-7.9899,-7.9899,-7.9899,-5.8051,-6.0757,-6.2651,-6.6914,-6.8571,-6.935,-7.0026,-7.0229,-7.0398,-7.0872,-7.1345,-7.0297,0.0,0.0,-6.5933,-6.6406,-6.6373,-6.8166,-7.351,-7.4153,-7.2868,0.0,0.0,0.0,0.0,0.0,0.0,-7.0161,0.0,-7.0108,-7.0108,-6.9562,-7.0975,-7.4473,-7.4372,-7.4171,-7.4171,-7.4171,-7.4171,-7.4171,-7.4171,-7.4171,-7.4171,-7.4171,-7.1885,-6.8208,-7.2382,-7.1819,-6.8274,-7.2448,-7.4171,-7.4171,-7.4171,-7.4171,-7.4171,-7.4171,-7.4171,-7.4171,-7.4171,-7.4171,-7.4171,-7.4171,-7.4803,-7.5546,-7.5642,-7.6871,-7.842,-7.8504,-7.9196,-7.9899,-7.9899,-7.9899,-7.9899,-7.9899,-7.9899,-7.9899,-7.9899,-7.9899,-7.9899,-7.9899,-7.9899,-7.9899,-7.9899,-7.9899,-7.9899,-7.9899,-7.9899,-7.9899,-7.9899,-7.9899,-7.9899,-7.9899,-7.9899,-7.9899,-7.9899,-7.9899,-7.9899,-7.9899,-7.9899,-7.9899,-7.9899,-7.9899,-7.9899,-7.9899,-7.9899,-7.9899,-7.9899,-7.9899,-7.9899,-7.9899,-7.9899,-7.9899,-5.7577,-6.1839,-6.6643,-6.8368,-6.935,-6.9958,-7.0161,-7.0635,-7.0128,-6.6948,-6.3802,-6.0385,0.0,0.0,0.0,-6.0723,-6.0419,0.0,-6.8639,-6.8199,0.0,-6.8944,0.0,-7.0534,-7.2157,-7.3341,0.0,0.0,-7.2641,-7.4101,-7.3911,-7.3721,-7.4061,-7.4837,-7.4672,-7.4473,-7.4473,-7.4272,-7.4171,-7.4171,-7.4171,-7.4171,-7.4171,-7.4171,-7.3575,-7.2581,-7.3674,-7.3541,-7.2581,-7.3707,-7.4171,-7.4171,-7.4171,-7.4171,-7.4171,-7.4171,-7.4171,-7.4171,-7.4171,-7.4171,-7.4171,-7.4171,-7.4339,-7.4704,-7.5354,-7.6416,-7.758,-7.8301,-7.9196,-7.9899,-7.9899,-7.9899,-7.9899,-7.9899,-7.9899,-7.9899,-7.9899,-7.9899,-7.9899,-7.9899,-7.9899,-7.9899,-7.9899,-7.9899,-7.9899,-7.9899,-7.9899,-7.9899,-7.9899,-7.9899,-7.9899,-7.9899,-7.9899,-7.9899,-7.9899,-7.9899,-7.9899,-7.9899,-7.9899,-7.9899,-7.9899,-7.9899,-7.9899,-7.9899,-7.9899,-7.9899,-7.9899,-7.9899,-7.9899,-7.9899,-7.9899,-7.9899,-6.1467,-6.4986,-6.8605,-6.9383,-7.0128,-7.0161,-6.8199,-6.8064,-6.7083,-6.2584,-5.9911,0.0,-5.3044,0.0,0.0,0.0,0.0,0.0,-6.7557,-6.7354,-6.7184,0.0,-6.9451,0.0,-7.5303,-7.5709,-7.483,0.0,-7.3037,-7.3181,-7.3088,-7.2902,-7.3581,-7.5097,-7.487,-7.4771,-7.4771,-7.4473,-7.4372,-7.4372,-7.4272,-7.4171,-7.4171,-7.4171,-7.3111,-7.1388,0.0,-7.3078,-7.1455,-7.3376,-7.4171,-7.4171,-7.4171,-7.4171,-7.4171,-7.4171,-7.4171,-7.4171,-7.4171,-7.4439,-7.4704,-7.4339,-7.4439,-7.5,-7.5952,-7.6871,-7.784,-7.8835,-7.9471,-7.9899,-7.9899,-7.9899,-7.9899,-7.9899,-7.9899,-7.9899,-7.9899,-7.9899,-7.9899,-7.9899,-7.9899,-7.9899,-7.9899,-7.9899,-7.9899,-7.9899,-7.9899,-7.9899,-7.9899,-7.9899,-7.9899,-7.9899,-7.9899,-7.9899,-7.9899,-7.9899,-7.9899,-7.9899,-7.9899,-7.9899,-7.9899,-7.9899,-7.9899,-7.9899,-7.9899,-7.9899,-7.9899,-7.9899,-7.9899,-7.9899,-7.9899,-7.9899,-6.6508,-6.8335,-6.9417,-7.0161,-7.0838,-7.0297,-6.6373,-6.5019,-6.3328,-5.8829,-5.7915,-5.6799,-5.301,-5.3484,-5.5953,-6.0554,0.0,-6.3531,-6.688,-6.8368,-6.8876,-6.8267,-6.8808,-7.0939,-7.527,-7.527,-7.5168,-7.5676,-7.2732,-7.0906,-7.0906,-7.0726,-7.2027,-7.5224,-7.5164,-7.5067,-7.4968,-7.4771,-7.4606,-7.4606,-7.4372,-7.4272,-7.4171,-7.4171,-7.2084,-6.8705,0.0,0.0,-6.8771,-7.2614,-7.4171,-7.4171,-7.4171,-7.4171,-7.4171,-7.4171,-7.4171,-7.4171,-7.4171,-7.4803,-7.545,-7.4639,-7.5,-7.5986,-7.6927,-7.7754,-7.867,-7.9665,-7.9899,-7.9899,-7.9899,-7.9899,-7.9899,-7.9899,-7.9899,-7.9899,-7.9899,-7.9899,-7.9899,-7.9899,-7.9899,-7.9899,-7.9899,-7.9899,-7.9899,-7.9899,-7.9899,-7.9899,-7.9899,-7.9899,-7.9899,-7.9899,-7.9899,-7.9899,-7.9899,-7.9899,-7.9899,-7.9899,-7.9899,-7.9899,-7.9899,-7.9899,-7.9899,-7.9899,-7.9899,-7.9899,-7.9899,-7.9899,-7.9899,-7.9899,-7.9899,-7.9899,-6.5459,-6.7523,-7.0195,-7.0939,-7.121,-7.1109,-7.0331,-6.7286,0.0,0.0,-5.504,-5.2503,-5.2334,-5.3078,-5.5378,-6.0486,0.0,0.0,0.0,0.0,-6.7726,0.0,0.0,-7.1515,-7.5337,0.0,0.0,0.0,0.0,0.0,-7.4728,-7.4728,-7.4843,-7.5291,-7.5228,-7.5131,-7.4968,-7.4968,-7.4771,-7.4606,-7.4573,-7.4372,-7.4171,-7.4171,-7.374,-7.3078,0.0,0.0,-7.3078,-7.384,-7.4171,-7.4171,-7.4171,-7.4171,-7.4171,-7.4171,-7.4171,-7.4171,-7.4171,-7.4803,-7.5512,-7.545,-7.5952,-7.6927,-7.7961,-7.8336,-7.867,-7.9665,-7.9899,-7.9899,-7.9899,-7.9899,-7.9899,-7.9899,-7.9899,-7.9899,-7.9899,-7.9899,-7.9899,-7.9899,-7.9899,-7.9899,-7.9899,-7.9899,-7.9899,-7.9899,-7.9899,-7.9899,-7.9899,-7.9899,-7.9899,-7.9899,-7.9899,-7.9899,-7.9899,-7.9899,-7.9899,-7.9899,-7.9899,-7.9899,-7.9899,-7.9899,-7.9899,-7.9899,-7.9899,-7.9899,-7.9899,-7.9899,-7.9899,-7.9899,-7.9899,-7.9899,-6.4749,-6.7049,-7.0364,-7.1142,-7.1312,-7.0094,-6.5392,0.0,0.0,0.0,-4.9255,-4.7868,-4.8206,-4.8917,0.0,0.0,0.0,0.0,0.0,0.0,0.0,0.0,-6.8098,-7.0331,0.0,0.0,0.0,0.0,0.0,0.0,0.0,-7.5709,-7.5614,-7.5518,-7.5518,-7.5422,-7.5325,-7.5262,-7.5033,-7.4968,-7.487,-7.4672,-7.4372,-7.4372,-7.4372,-7.4171,-7.4171,0.0,-7.0924,-7.321,-7.2813,-7.0991,-7.3276,-7.4171,-7.4171,-7.4171,-7.4171,-7.4171,-7.4171,-7.5161,-7.6324,-7.6324,-7.669,-7.7194,-7.8217,-7.8504,-7.867,-7.9665,-7.9899,-7.9899,-7.9899,-7.9899,-7.9899,-7.9899,-7.9899,-7.9899,-7.9899,-7.9899,-7.9899,-7.9899,-7.9899,-7.9899,-7.9899,-7.9899,-7.9899,-7.9899,-7.9899,-7.9899,-7.9899,-7.9899,-7.9899,-7.9899,-7.9899,-7.9899,-7.9899,-7.9899,-7.9899,-7.9899,-7.9899,-7.9899,-7.9899,-7.9899,-7.9899,-7.9899,-7.9899,-7.9899,-7.9899,-7.9899,-7.9899,-7.9899,-7.9899,-7.9899,-6.5121,-6.7523,-7.0567,-7.1176,-7.1312,-6.9214,-6.1163,-5.8592,0.0,0.0,-4.5229,-4.4925,-4.6041,-4.6718,-5.0033,0.0,0.0,0.0,0.0,0.0,0.0,0.0,-6.9248,0.0,0.0,0.0,0.0,0.0,0.0,0.0,0.0,-7.5709,-7.5709,-7.5709,-7.5709,-7.5709,-7.5709,-7.5518,-7.5325,-7.5325,-7.5131,-7.4968,-7.4672,-7.4606,-7.4473,-7.4272,-7.4272,0.0,0.0,-7.2349,-7.1587,-6.8076,-7.2448,-7.4171,-7.4171,-7.4171,-7.4171,-7.4171,-7.4171,-7.5354,-7.6747,-7.6927,-7.7283,-7.7754,-7.8587,-7.8753,-7.8952,-7.9743,-7.9899,-7.9899,-7.9899,-7.9899,-7.9899,-7.9899,-7.9899,-7.9899,-7.9899,-7.9899,-7.9899,-7.9899,-7.9899,-7.9899,-7.9899,-7.9899,-7.9899,-7.9899,-7.9899,-7.9899,-7.9899,-7.9899,-7.9899,-7.9899,-7.9899,-7.9899,-7.9899,-7.9899,-7.9899,-7.9899,-7.9899,-7.9899,-7.9899,-7.9899,-7.9899,-7.9899,-7.9899,-7.9899,-7.9899,-7.9899,-7.9899,-7.9899,-7.9899,-7.9899,-6.7726,-6.9857,-7.1244,-7.1312,-7.1312,-7.0026,-6.5087,0.0,0.0,0.0,-4.7394,-4.6007,-5.071,-5.1691,-5.3822,-6.0148,0.0,-5.6292,0.0,0.0,0.0,0.0,0.0,0.0,-7.4762,0.0,0.0,0.0,0.0,0.0,0.0,-7.5709,-7.5709,-7.5709,-7.5709,-7.5709,-7.5709,-7.5709,-7.5518,-7.5325,-7.5325,-7.5131,-7.4968,-7.4672,-7.4606,-7.4606,0.0,0.0,0.0,-7.2349,-7.1587,-6.8076,-7.2448,-7.4171,-7.4171,-7.4171,-7.4171,-7.4171,-7.4171,-7.4902,-7.5892,-7.6747,-7.8182,-7.9629,-7.9743,-7.9743,-7.9822,-7.9899,-7.9899,-7.9899,-7.9899,-7.9899,-7.9899,-7.9899,-7.9899,-7.9899,-7.9899,-7.9899,-7.9899,-7.9899,-7.9899,-7.9899,-7.9899,-7.9899,-7.9899,-7.9899,-7.9899,-7.9899,-7.9899,-7.9899,-7.9899,-7.9899,-7.9899,-7.9899,-7.9899,-7.9899,-7.9899,-7.9899,-7.9899,-7.9899,-7.9899,-7.9899,-7.9899,-7.9899,-7.9899,-7.9899,-7.9899,-7.9899,-7.9899,-7.9899,-7.9899,-7.9899,-6.2584,-6.6745,-7.1312,-7.1312,-7.1312,-6.9417,-6.2212,0.0,0.0,0.0,-4.5805,-4.5196,-4.7259,-4.7665,-4.9492,-5.5006,-5.4532,0.0,0.0,0.0,0.0,0.0,0.0,0.0,0.0,0.0,0.0,0.0,0.0,0.0,0.0,0.0,-7.5709,-7.5709,-7.5709,-7.5709,-7.5709,-7.5709,-7.585,-7.6227,-7.6227,-7.6365,-7.6606,-7.6408,-7.6308,-7.6208,0.0,0.0,0.0,-7.2049,-7.0428,-6.4399,-7.1421,-7.4171,-7.4171,-7.4171,-7.4171,-7.4171,-7.4171,-7.5161,-7.6508,-7.6837,-7.8301,-7.9899,-7.9899,-7.9899,-7.9899,-7.9899,-7.9899,-7.9899,-7.9899,-7.9899,-7.9899,-7.9899,-7.9899,-7.9899,-7.9899,-7.9899,-7.9899,-7.9899,-7.9899,-7.9899,-7.9899,-7.9899,-7.9899,-7.9899,-7.9899,-7.9899,-7.9899,-7.9899,-7.9899,-7.9899,-7.9899,-7.9899,-7.9899,-7.9899,-7.9899,-7.9899,-7.9899,-7.9899,-7.9899,-7.9899,-7.9899,-7.9899,-7.9899,-7.9899,-7.9899,-7.9899,-7.9899,-7.9899,-7.9899,-7.9899,-5.9979,-6.5324,-7.1312,-7.1312,-7.0331,-6.7252,0.0,0.0,0.0,-4.5805,-4.4248,-4.4316,-4.4553,-4.4587,-4.6278,-5.1488,-5.2807,-5.6055,-6.441,0.0,0.0,0.0,0.0,0.0,0.0,0.0,0.0,0.0,0.0,0.0,0.0,0.0,-7.6048,-7.6048,-7.6048,-7.6149,-7.6386,-7.6386,-7.6657,-7.7232,-7.7232,-7.6695,-7.5759,-7.7008,-7.6774,-7.5368,0.0,0.0,0.0,-7.2907,-7.118,-6.466,-7.208,-7.4935,-7.4902,-7.467,-7.4502,-7.4469,-7.4237,-7.5258,-7.669,-7.6927,-7.8097,-7.955,-7.9822,-7.9899,-7.9899,-7.9899,-7.9899,-7.9899,-7.9899,-7.9899,-7.9899,-7.9899,-7.9899,-7.9899,-7.9899,-7.9899,-7.9899,-7.9899,-7.9899,-7.9899,-7.9899,-7.9899,-7.9899,-7.9899,-7.9899,-7.9899,-7.9899,-7.9899,-7.9899,-7.9899,-7.9899,-7.9899,-7.9899,-7.9899,-7.9899,-7.9899,-7.9899,-7.9899,-7.9899,-7.9899,-7.9899,-7.9899,-7.9899,-7.9899,-7.9899,-7.9899,-7.9899,-7.9899,-7.9899,-7.9899,-6.237,-6.732,-7.1312,-7.1312,-6.7963,-6.3294,0.0,0.0,0.0,0.0,-4.3436,-4.3673,-4.4451,-4.4587,-4.6278,-5.1522,-5.2334,-5.416,-5.9438,-6.0182,0.0,0.0,0.0,0.0,0.0,0.0,0.0,0.0,0.0,0.0,0.0,0.0,-7.6893,-7.6893,-7.6893,-7.7232,-7.7942,-7.7976,-7.7976,-7.7976,-7.7976,-7.5676,-7.1548,-7.5691,-7.519,0.0,0.0,0.0,0.0,-7.5303,-7.4597,-7.0943,-7.5106,-7.6737,-7.6671,-7.5632,-7.5264,-7.5165,-7.4436,-7.4803,-7.5798,-7.6656,-7.7667,-7.867,-7.9629,-7.9899,-7.9899,-7.9899,-7.9899,-7.9899,-7.9899,-7.9899,-7.9899,-7.9899,-7.9899,-7.9899,-7.9899,-7.9899,-7.9899,-7.9899,-7.9899,-7.9899,-7.9899,-7.9899,-7.9899,-7.9899,-7.9899,-7.9899,-7.9899,-7.9899,-7.9899,-7.9899,-7.9899,-7.9899,-7.9899,-7.9899,-7.9899,-7.9899,-7.9899,-7.9899,-7.9899,-7.9899,-7.9899,-7.9899,-7.9899,-7.9899,-7.9899,-7.9899,-7.9899,-7.9899,-7.9899,-7.9899,-5.3957,-5.8152,-6.2245,-6.2787,-6.1467,-5.8761,-5.4059,0.0,0.0,0.0,0.0,-4.3673,-4.4451,-4.4587,-4.6278,-5.1488,-5.2773,-5.5987,-6.4275,0.0,0.0,0.0,0.0,0.0,0.0,0.0,0.0,0.0,0.0,0.0,0.0,0.0,0.0,-7.6893,-7.7401,-7.7739,-7.7976,-7.7976,-7.8247,-7.8754,-7.8754,-7.642,-7.2225,-7.7134,0.0,0.0,0.0,0.0,0.0,-7.6173,-7.51,-7.1043,-7.5437,-7.6975,-7.6737,-7.6402,-7.6743,-7.7239,-7.6873,-7.7861,-7.9269,-7.8955,-7.9444,-8.0261,-8.0,-7.9899,-7.9899,-7.9899,-7.9899,-7.9899,-7.9899,-7.9899,-7.9899,-7.9899,-7.9899,-7.9899,-7.9899,-7.9899,-7.9899,-7.9899,-7.9899,-7.9899,-7.9899,-7.9899,-7.9899,-7.9899,-7.9899,-7.9899,-7.9899,-7.9899,-7.9899,-7.9899,-7.9899,-7.9899,-7.9899,-7.9899,-7.9899,-7.9899,-7.9899,-7.9899,-7.9899,-7.9899,-7.9899,-7.9899,-7.9899,-7.9899,-7.9899,-7.9899,-7.9899,-7.9899,-7.9899,-7.9899,0.0,-5.3687,-5.7645,-5.8389,-5.6968,0.0,0.0,0.0,0.0,0.0,0.0,0.0,-4.4756,-4.6177,-4.7936,-4.9187,-5.3112,-5.7408,-6.1467,0.0,0.0,0.0,0.0,0.0,0.0,0.0,0.0,0.0,0.0,0.0,0.0,0.0,0.0,-7.7739,-7.8179,-7.8551,-7.8822,-7.8822,-7.9058,-7.9532,-7.9532,-7.7164,-7.2969,-7.7942,0.0,0.0,0.0,0.0,0.0,-7.795,-7.7077,-7.4517,-7.7111,-7.8118,-7.788,-7.751,-7.7983,-7.8729,-7.8235,-7.9384,-8.0986,-8.0274,-8.0494,-8.1006,-8.0506,-8.0149,-7.9899,-7.9899,-7.9899,-7.9899,-7.9899,-7.9899,-7.9899,-7.9899,-7.9899,-7.9899,-7.9899,-7.9899,-7.9899,-7.9899,-7.9899,-7.9899,-7.9899,-7.9899,-7.9899,-7.9899,-7.9899,-7.9899,-7.9899,-7.9899,-7.9899,-7.9899,-7.9899,-7.9899,-7.9899,-7.9899,-7.9899,-7.9899,-7.9899,-7.9899,-7.9899,-7.9899,-7.9899,-7.9899,-7.9899,-7.9899,-7.9899,-7.9899,-7.9899,-7.9899,-8.0054,-8.0054,0.0,-5.2469,0.0,0.0,0.0,0.0,0.0,0.0,0.0,0.0,0.0,0.0,0.0,-4.9357,-5.1217,-4.5974,-5.3551,-5.8423,-5.3619,0.0,0.0,0.0,0.0,0.0,0.0,0.0,0.0,0.0,0.0,0.0,0.0,0.0,0.0,0.0,-7.9194,-7.9532,-8.0175,-8.0209,-8.0006,-7.9634,-8.0006,-7.7604,-7.3003,-7.7942,0.0,0.0,0.0,0.0,0.0,-8.0209,-8.0209,-8.0209,-7.9904,-7.9801,-7.9701,-7.8721,-7.9058,-7.9734,-7.8831,-7.9831,-8.1317,-8.1027,-8.1072,-8.1184,-8.1184,-8.0577,-7.9899,-7.9899,-7.9899,-7.9899,-7.9899,-7.9899,-7.9899,-7.9899,-7.9899,-7.9899,-7.9899,-7.9899,-7.9899,-7.9899,-7.9899,-7.9899,-7.9899,-7.9899,-7.9899,-7.9899,-7.9899,-7.9899,-7.9899,-7.9899,-7.9899,-7.9899,-7.9899,-7.9899,-7.9899,-7.9899,-7.9899,-7.9899,-7.9899,-7.9899,-7.9899,-7.9899,-7.9899,-7.9899,-7.9899,-7.9899,-7.9899,-7.9899,-7.9899,-7.9899,-8.0283,-8.0283,-4.2016,0.0,-4.5196,-4.6481,-4.5602,-4.4282,0.0,0.0,0.0,0.0,0.0,0.0,0.0,0.0,-5.6562,-5.1319,-5.5886,-5.9877,-5.9268,0.0,0.0,0.0,0.0,0.0,0.0,0.0,0.0,0.0,0.0,0.0,0.0,0.0,0.0,0.0,-7.9938,-8.0006,-8.0209,-8.0209,-7.8179,-7.4289,-7.828,-7.5473,-6.7015,-7.6082,0.0,0.0,0.0,0.0,-8.0209,-8.0209,-8.0209,-8.0209,-8.0107,-8.0006,-7.9768,-7.9497,-8.0399,-8.1633,-8.1215,-8.2365,-8.386,-8.3009,-8.2379,-8.1933,-8.1933,-8.1006,-7.9899,-7.9899,-7.9899,-7.9899,-7.9899,-7.9899,-7.9899,-7.9899,-7.9899,-7.9899,-7.9899,-7.9899,-7.9899,-7.9899,-7.9899,-7.9899,-7.9899,-7.9899,-7.9899,-7.9899,-7.9899,-7.9899,-7.9899,-7.9899,-7.9899,-7.9899,-7.9899,-7.9899,-7.9899,-7.9899,-7.9899,-7.9899,-7.9899,-7.9899,-7.9899,-7.9899,-7.9899,-7.9899,-7.9899,-7.9899,-7.9899,-7.9899,-7.9899,-7.9899,-8.0283,-8.0358,-3.9073,-4.0121,-4.2151,-4.6041,-4.4891,-4.3335,0.0,0.0,0.0,0.0,0.0,0.0,0.0,0.0,0.0,-5.2773,-5.4972,-5.8321,0.0,0.0,0.0,0.0,0.0,0.0,0.0,0.0,0.0,0.0,0.0,0.0,0.0,0.0,0.0,0.0,-8.0209,-8.0209,-8.0209,-8.0209,-7.757,-7.2462,-7.7705,-7.598,-6.8436,-7.6521,0.0,0.0,0.0,0.0,-8.0006,-7.7604,-7.8044,-8.0209,-8.0209,-8.0107,-8.0006,-8.0006,-8.1063,-8.2496,-8.2257,-8.3314,-8.4666,-8.4075,-8.3397,-8.2754,-8.2754,-8.1898,-8.0899,-8.0542,-8.047,-8.0363,-8.0006,-7.9899,-7.9899,-7.9899,-7.9899,-7.9899,-7.9899,-7.9899,-7.9899,-7.9899,-7.9899,-7.9899,-7.9899,-7.9899,-7.9899,-7.9899,-7.9899,-7.9899,-7.9899,-7.9899,-7.9899,-7.9899,-7.9899,-7.9899,-7.9899,-7.9899,-7.9899,-7.9899,-7.9899,-7.9899,-7.9899,-7.9899,-7.9899,-7.9899,-7.9899,-7.9899,-7.9899,-7.9899,-7.9899,-7.9899,-8.0472,-8.0472,-3.7874,-3.9445,-4.2591,-4.9086,-4.6786,-4.4147,0.0,0.0,0.0,0.0,0.0,0.0,0.0,0.0,0.0,0.0,0.0,0.0,0.0,0.0,0.0,0.0,0.0,0.0,0.0,0.0,0.0,0.0,0.0,0.0,0.0,0.0,0.0,0.0,-8.0209,-8.0209,-8.0209,-8.0209,-7.757,-7.2462,-7.7705,-7.7468,-7.2563,-7.7807,-8.0209,0.0,0.0,0.0,-7.987,-7.5405,-7.6183,-8.0209,-8.0209,-8.0209,-8.0209,-8.0209,-8.1256,-8.2676,-8.2836,-8.3662,-8.4692,-8.4692,-8.4227,-8.3656,-8.3656,-8.3111,-8.2397,-8.1648,-8.1291,-8.0934,-8.0256,-8.0006,-7.9899,-7.9899,-7.9899,-7.9899,-7.9899,-7.9899,-7.9899,-7.9899,-7.9899,-7.9899,-7.9899,-7.9899,-7.9899,-7.9899,-7.9899,-7.9899,-7.9899,-7.9899,-7.9899,-7.9899,-7.9899,-7.9899,-7.9899,-7.9899,-7.9899,-7.9899,-7.9899,-7.9899,-7.9899,-7.9899,-7.9899,-7.9899,-7.9899,-7.9899,-7.9899,-7.9899,-7.9899,-7.9899,-8.0658,-8.0584,-3.7889,-3.9039,-4.1576,-4.7056,-4.4485,-4.2083,0.0,0.0,0.0,0.0,0.0,0.0,0.0,0.0,0.0,0.0,0.0,0.0,0.0,0.0,0.0,0.0,0.0,0.0,0.0,0.0,0.0,0.0,0.0,0.0,0.0,0.0,0.0,0.0,0.0,-8.0209,-8.0209,-8.0209,-7.757,-7.2462,-7.7705,-7.7468,-7.2563,-7.7807,-8.0209,0.0,0.0,-7.9464,-8.0141,-7.9329,-7.9464,-8.0209,-8.0209,-8.0209,-8.0209,-8.0209,-8.1256,-8.2855,-8.4302,-8.4944,-8.5139,-8.5139,-8.4908,-8.464,-8.464,-8.4487,-8.4075,-8.3254,-8.2112,-8.1077,-8.0934,-8.0399,-7.9899,-7.9899,-7.9899,-7.9899,-7.9899,-7.9899,-7.9899,-7.9899,-7.9899,-7.9899,-7.9899,-7.9899,-7.9899,-7.9899,-7.9899,-7.9899,-7.9899,-7.9899,-7.9899,-7.9899,-7.9899,-7.9899,-7.9899,-7.9899,-7.9899,-7.9899,-7.9899,-7.9899,-7.9899,-7.9899,-7.9899,-7.9899,-7.9899,-7.9899,-7.9899,-7.9899,-7.9899,-7.9899,-8.0582,-8.0656,-3.6806,-3.7753,-4.1035,-4.9932,-4.6955,0.0,0.0,0.0,0.0,0.0,0.0,0.0,0.0,0.0,0.0,0.0,0.0,0.0,0.0,0.0,0.0,0.0,0.0,0.0,0.0,0.0,0.0,0.0,0.0,0.0,0.0,0.0,0.0,0.0,0.0,0.0,-8.0209,-8.0209,-7.757,-7.2462,-7.7705,-7.7468,-7.2563,-7.7807,-8.0209,-8.004,0.0,-7.7604,-7.9972,-7.7164,-7.7638,-8.0209,-8.0209,-8.0209,-8.0276,-8.1194,-8.2072,-8.2944,-8.4585,-8.5218,-8.5218,-8.5218,-8.5139,-8.506,-8.506,-8.49,-8.4666,-8.4273,-8.3299,-8.2219,-8.1791,-8.1113,-8.0542,-8.0542,-8.0221,-7.9899,-7.9899,-7.9899,-7.9899,-7.9899,-7.9899,-7.9899,-7.9899,-7.9899,-7.9899,-7.9899,-7.9899,-7.9899,-7.9899,-7.9899,-7.9899,-7.9899,-7.9899,-7.9899,-7.9899,-7.9899,-7.9899,-7.9899,-7.9899,-7.9899,-7.9899,-7.9899,-7.9899,-7.9899,-7.9899,-7.9899,-7.9899,-7.9899,-7.9899,-7.9899,-8.0433,-8.0508,-3.5994,-3.7009,-4.0696,-5.1251,0.0,0.0,0.0,0.0,0.0,0.0,0.0,0.0,0.0,0.0,0.0,0.0,0.0,0.0,0.0,0.0,0.0,0.0,0.0,0.0,0.0,0.0,0.0,0.0,0.0,0.0,0.0,0.0,0.0,0.0,0.0,0.0,-8.0209,-8.0209,-7.8179,-7.4255,-7.828,-7.8111,-7.4356,-7.8382,-8.0209,-7.9972,-7.598,-7.6487,-7.9904,-7.5879,-7.6589,-8.0209,-8.0209,-8.0209,-8.0376,-8.213,-8.2766,-8.3033,-8.4747,-8.5375,-8.5375,-8.5375,-8.5297,-8.5297,-8.5297,-8.5139,-8.49,-8.49,-8.4389,-8.3549,-8.2683,-8.1933,-8.1406,-8.1148,-8.0613,-8.0149,-7.9935,-7.9899,-7.9899,-7.9899,-7.9899,-7.9899,-7.9899,-7.9899,-7.9899,-7.9899,-7.9899,-7.9899,-7.9899,-7.9899,-7.9899,-7.9899,-7.9899,-7.9899,-7.9899,-7.9899,-7.9899,-7.9899,-7.9899,-7.9899,-7.9899,-7.9899,-7.9899,-7.9899,-7.9899,-7.9899,-7.9899,-7.9899,-7.9899,-7.9899,-8.0283,-8.0358,-3.6502,-3.7787,-4.046,-4.6887,0.0,0.0,0.0,0.0,0.0,0.0,0.0,0.0,0.0,0.0,0.0,0.0,0.0,0.0,0.0,0.0,0.0,0.0,0.0,0.0,0.0,0.0,0.0,0.0,0.0,0.0,0.0,0.0,0.0,0.0,0.0,0.0,-8.0209,-8.0209,-8.0006,-7.9634,-8.0006,-8.0006,-7.9634,-8.004,-8.0209,-8.0175,-7.9803,-7.9837,-8.0175,-7.9803,-7.987,-8.0209,-8.0209,-8.0209,-8.0476,-8.2313,-8.2998,-8.3261,-8.5182,-8.5833,-8.5833,-8.5833,-8.5685,-8.5495,-8.5495,-8.5182,-8.49,-8.49,-8.4864,-8.4532,-8.3584,-8.2914,-8.2242,-8.1334,-8.1041,-8.0827,-8.0078,-7.9899,-7.9899,-7.9899,-7.9899,-7.9899,-7.9899,-7.9899,-7.9899,-7.9899,-7.9899,-7.9899,-7.9899,-7.9899,-7.9899,-7.9899,-7.9899,-7.9899,-7.9899,-7.9899,-7.9899,-7.9899,-7.9899,-7.9899,-7.9899,-7.9899,-7.9899,-7.9899,-7.9899,-7.9899,-7.9899,-7.9899,-7.9899,-7.9899,-8.013,-8.0283,-3.5994,-3.7516,-4.1102,0.0,0.0,0.0,0.0,0.0,0.0,0.0,0.0,0.0,0.0,0.0,0.0,0.0,0.0,0.0,0.0,0.0,0.0,0.0,0.0,0.0,0.0,0.0,0.0,0.0,0.0,0.0,0.0,0.0,0.0,0.0,0.0,0.0,0.0,-8.0209,-8.0209,-8.0209,-8.0209,-8.0209,-8.0209,-8.0209,-8.0209,-8.0209,-8.0209,-8.0209,-8.0209,-8.0209,-8.0209,-8.0209,-8.0209,-8.0209,-8.0476,-8.2313,-8.2998,-8.3261,-8.5261,-8.5909,-8.5909,-8.5909,-8.5797,-8.5797,-8.5797,-8.5531,-8.5261,-8.5261,-8.5261,-8.5111,-8.4505,-8.3781,-8.3216,-8.2815,-8.187,-8.1006,-8.072,-8.0256,-7.9899,-7.9899,-7.9899,-7.9899,-7.9899,-7.9899,-7.9899,-7.9899,-7.9899,-7.9899,-7.9899,-7.9899,-7.9899,-7.9899,-7.9899,-7.9899,-7.9899,-7.9899,-7.9899,-7.9899,-7.9899,-7.9899,-7.9899,-7.9899,-7.9899,-7.9899,-7.9899,-7.9899,-7.9899,-7.9899,-7.9899,-7.9899,-7.9977,-8.013,-3.6197,-3.7483,0.0,0.0,0.0,0.0,0.0,0.0,0.0,0.0,0.0,0.0,0.0,0.0,0.0,0.0,0.0,0.0,0.0,0.0,0.0,0.0,0.0,0.0,0.0,0.0,0.0,0.0,0.0,0.0,0.0,0.0,0.0,0.0,0.0,0.0,-8.0209,-8.0209,-8.0209,-8.0209,-8.0209,-8.0209,-8.0209,-8.0209,-8.0209,-8.0209,-8.0209,-8.0209,-8.0209,-8.0209,-8.0209,-8.0209,-8.0209,-8.0376,-8.0804,-8.2405,-8.3174,-8.3727,-8.5339,-8.5909,-8.5909,-8.5909,-8.5909,-8.5909,-8.5909,-8.5685,-8.5495,-8.5495,-8.5495,-8.5417,-8.5182,-8.4708,-8.4163,-8.3753,-8.2636,-8.1477,-8.1148,-8.047,-7.9899,-7.9899,-7.9899,-7.9899,-7.9899,-7.9899,-7.9899,-7.9899,-8.0113,-8.0292,-8.0292,-8.047,-8.0542,-8.0292,-8.0292,-8.0185,-7.9935,-7.9899,-7.9899,-7.9899,-7.9899,-7.9899,-7.9899,-7.9899,-7.9899,-7.9899,-7.9899,-7.9899,-7.9899,-7.9899,-7.9899,-7.9899,-7.9899,-7.9977,-3.7516,-3.7922,0.0,0.0,0.0,0.0,0.0,0.0,0.0,0.0,0.0,0.0,0.0,0.0,0.0,0.0,0.0,0.0,0.0,0.0,0.0,0.0,0.0,0.0,0.0,0.0,0.0,0.0,0.0,0.0,0.0,0.0,0.0,0.0,0.0,0.0,-8.0209,-8.0209,-8.0209,-8.0209,-8.0209,-8.0209,-8.0209,-8.0209,-8.0209,-8.0209,-8.0209,-8.0209,-8.0209,-8.0209,-8.0209,-8.0209,-8.0209,-8.0804,-8.1698,-8.2641,-8.3606,-8.4513,-8.5531,-8.5909,-8.5909,-8.5909,-8.5909,-8.5909,-8.5909,-8.5685,-8.5495,-8.5495,-8.5495,-8.5495,-8.5495,-8.5495,-8.5201,-8.3976,-8.3144,-8.2314,-8.137,-8.047,-7.9935,-7.9899,-7.9899,-7.9899,-7.9899,-7.9899,-7.9899,-7.9935,-8.0577,-8.1113,-8.1113,-8.1755,-8.1933,-8.1184,-8.1113,-8.0791,-7.9971,-7.9899,-7.9899,-7.9899,-7.9899,-7.9899,-7.9899,-7.9899,-7.9899,-7.9899,-7.9899,-7.9899,-7.9899,-7.9899,-7.9899,-7.9899,-7.9899,-7.9977,-4.0663,0.0,0.0,0.0,0.0,0.0,0.0,0.0,0.0,0.0,0.0,0.0,0.0,0.0,0.0,0.0,0.0,0.0,0.0,0.0,0.0,0.0,0.0,0.0,0.0,0.0,0.0,0.0,0.0,0.0,0.0,0.0,0.0,0.0,0.0,0.0,-8.0209,-8.0209,-8.0209,-8.0209,-8.0209,-8.0209,-8.0209,-8.0209,-8.0209,-8.0209,-8.0209,-8.0209,-8.0209,-8.0209,-8.0209,-8.0209,-8.0209,-8.0804,-8.1698,-8.2641,-8.3606,-8.4513,-8.5531,-8.5909,-8.5909,-8.5909,-8.5909,-8.5909,-8.5909,-8.5797,-8.5797,-8.5797,-8.5797,-8.5797,-8.5797,-8.5797,-8.5648,-8.5129,-8.4169,-8.318,-8.2314,-8.137,-8.0577,-8.0006,-7.9899,-7.9899,-7.9899,-7.9899,-8.0113,-8.0649,-8.0934,-8.1291,-8.1791,-8.2076,-8.2112,-8.1898,-8.1398,-8.1006,-8.0756,-8.0221,-7.9899,-7.9899,-7.9899,-7.9899,-7.9899,-7.9899,-7.9899,-7.9899,-7.9899,-7.9899,-7.9899,-7.9899,-7.9899,-7.9899,-7.9899,-7.9899,0.0,0.0,0.0,0.0,0.0,0.0,0.0,0.0,0.0,0.0,0.0,0.0,0.0,0.0,0.0,0.0,0.0,0.0,0.0,0.0,0.0,0.0,0.0,0.0,0.0,0.0,0.0,0.0,0.0,0.0,0.0,0.0,0.0,0.0,0.0,0.0,-8.0209,-8.0209,-8.0209,-8.0209,-8.0209,-8.0209,-8.0209,-8.0209,-8.0209,-8.0209,-8.0209,-8.0209,-8.0209,-8.0209,-8.0209,-8.0209,-8.0209,-8.1,-8.2222,-8.282,-8.3812,-8.5067,-8.5721,-8.5909,-8.5909,-8.5909,-8.5909,-8.5909,-8.5909,-8.5909,-8.5909,-8.5909,-8.5909,-8.5909,-8.5909,-8.5909,-8.5797,-8.5572,-8.4685,-8.3689,-8.3144,-8.202,-8.097,-8.047,-8.0113,-7.9899,-7.9899,-8.0185,-8.0542,-8.1041,-8.1612,-8.229,-8.3075,-8.3147,-8.304,-8.2718,-8.229,-8.1755,-8.1148,-8.0649,-8.0256,-7.9935,-7.9899,-7.9899,-7.9899,-7.9899,-7.9899,-7.9899,-7.9899,-7.9899,-7.9899,-7.9899,-7.9899,-7.9899,-7.9899,-7.9899,0.0,0.0,0.0,0.0,0.0,0.0,0.0,0.0,0.0,0.0,0.0,0.0,0.0,0.0,0.0,0.0,0.0,0.0,0.0,0.0,0.0,0.0,0.0,0.0,0.0,0.0,0.0,0.0,0.0,0.0,0.0,0.0,0.0,0.0,0.0,0.0,-8.0209,-8.0209,-8.0209,0.0,-8.0209,-8.0209,-8.0209,-8.0209,-8.0209,-8.0209,-8.0209,-8.0209,-8.0209,-8.0209,-8.0209,-8.0209,-8.0276,-8.1413,-8.2998,-8.3086,-8.4267,-8.5909,-8.5909,-8.5909,-8.5909,-8.5909,-8.5909,-8.5909,-8.5909,-8.5909,-8.5909,-8.5909,-8.5909,-8.5909,-8.5909,-8.5909,-8.5797,-8.5572,-8.4835,-8.4176,-8.3832,-8.2449,-8.1255,-8.1113,-8.0506,-8.0006,-8.0006,-8.0613,-8.1148,-8.1291,-8.254,-8.3753,-8.4503,-8.461,-8.4324,-8.3575,-8.3432,-8.2826,-8.1434,-8.1184,-8.0791,-8.0078,-7.9935,-7.9899,-7.9899,-7.9899,-7.9899,-7.9899,-7.9899,-7.9899,-7.9899,-7.9899,-7.9899,-7.9899,-7.9899,-7.9899,0.0,0.0,0.0,0.0,0.0,0.0,0.0,0.0,0.0,0.0,0.0,0.0,0.0,0.0,0.0,0.0,0.0,0.0,0.0,0.0,0.0,0.0,0.0,0.0,0.0,0.0,0.0,0.0,0.0,0.0,0.0,0.0,0.0,0.0,0.0,-8.0209,-8.0209,-8.0209,-8.0209,0.0,-8.0209,-8.0209,-8.0209,-8.0209,-8.0209,-8.0209,-8.0209,-8.0209,-8.0209,-8.0209,-8.0209,-8.0276,-8.1,-8.1944,-8.3086,-8.3812,-8.4872,-8.5909,-8.5909,-8.5909,-8.5909,-8.5909,-8.5909,-8.5909,-8.5909,-8.5909,-8.5909,-8.5909,-8.5909,-8.5909,-8.5909,-8.5909,-8.5909,-8.5797,-8.55,-8.4943,-8.4212,-8.3546,-8.2779,-8.1327,-8.097,-8.0827,-8.0827,-8.097,-8.1505,-8.2718,-8.3718,-8.4396,-8.4574,-8.461,-8.4538,-8.436,-8.3789,-8.3254,-8.2933,-8.1791,-8.1041,-8.0863,-8.0256,-7.9899,-7.9899,-7.9899,-7.9899,-7.9899,-7.9899,-7.9899,-7.9899,-7.9899,-7.9899,-7.9899,-7.9899,-7.9899,0.0,0.0,0.0,0.0,0.0,0.0,0.0,0.0,0.0,0.0,0.0,0.0,0.0,0.0,0.0,0.0,0.0,0.0,0.0,0.0,0.0,0.0,0.0,0.0,0.0,0.0,0.0,0.0,0.0,0.0,0.0,0.0,0.0,0.0,-7.9837,-8.0209,-8.0209,-8.0209,-8.0209,-8.0209,-8.0209,-8.0209,-8.0209,-8.0209,-8.0209,-8.0209,-8.0209,-8.0209,-8.0209,-8.0209,-8.0209,-8.0276,-8.1256,-8.213,-8.3086,-8.4065,-8.5067,-8.5909,-8.5909,-8.5909,-8.5909,-8.5909,-8.5909,-8.5909,-8.5909,-8.5909,-8.5909,-8.5909,-8.5909,-8.5909,-8.5909,-8.5909,-8.5909,-8.5909,-8.5685,-8.5309,-8.4793,-8.4163,-8.3387,-8.2441,-8.1612,-8.122,-8.1577,-8.1933,-8.2611,-8.3789,-8.4324,-8.461,-8.461,-8.461,-8.461,-8.461,-8.4217,-8.3825,-8.3432,-8.2647,-8.1898,-8.1148,-8.072,-8.0292,-7.9935,-7.9899,-7.9899,-7.9899,-7.9899,-7.9899,-7.9899,-7.9899,-7.9899,-7.9899,-7.9899,-7.9899,0.0,0.0,0.0,0.0,0.0,0.0,0.0,0.0,0.0,0.0,0.0,0.0,0.0,0.0,0.0,0.0,0.0,0.0,0.0,0.0,0.0,0.0,0.0,0.0,0.0,0.0,0.0,0.0,0.0,0.0,0.0,0.0,-7.8145,-7.8889,-7.9634,-8.0073,-8.0209,-8.0209,-8.0209,-8.0209,-8.0209,-8.0209,-8.0209,-8.0209,-8.0209,-8.0209,-8.0209,-8.0209,-8.0209,-8.0209,-8.0209,-8.0276,-8.1413,-8.2313,-8.3086,-8.4231,-8.5147,-8.5909,-8.5909,-8.5909,-8.5909,-8.5909,-8.5909,-8.5909,-8.5909,-8.5909,-8.5909,-8.5909,-8.5909,-8.5909,-8.5909,-8.5909,-8.5909,-8.5909,-8.5721,-8.5495,-8.5297,-8.46,-8.3861,-8.3593,-8.2441,-8.1763,-8.229,-8.3075,-8.3825,-8.4503,-8.461,-8.461,-8.461,-8.461,-8.461,-8.461,-8.461,-8.4324,-8.3646,-8.3468,-8.2861,-8.1577,-8.1255,-8.0791,-8.0149,-7.9971,-7.9899,-7.9899,-7.9899,-7.9899,-7.9899,-7.9899,-7.9899,-7.9899,-7.9899,-7.9899,0.0,0.0,0.0,0.0,0.0,0.0,0.0,0.0,0.0,0.0,0.0,0.0,0.0,0.0,0.0,0.0,0.0,0.0,0.0,0.0,0.0,0.0,0.0,0.0,0.0,0.0,0.0,0.0,0.0,0.0,0.0,-7.6623,-7.7367,-7.8111,-7.8855,-7.9566,-8.0175,-8.0209,-8.0209,-8.0209,-8.0209,-8.0209,-8.0209,-8.0209,-8.0209,-8.0209,-8.0209,-8.0209,-8.0209,-8.0209,-8.0209,-8.0376,-8.213,-8.2909,-8.3174,-8.4988,-8.5797,-8.5909,-8.5909,-8.5909,-8.5909,-8.5909,-8.5909,-8.5909,-8.5909,-8.5909,-8.5909,-8.5909,-8.5909,-8.5909,-8.5909,-8.5909,-8.5909,-8.5909,-8.5873,-8.5797,-8.5495,-8.5189,-8.478,-8.4133,-8.3653,-8.3351,-8.3218,-8.3896,-8.4503,-8.4574,-8.461,-8.461,-8.461,-8.461,-8.461,-8.461,-8.461,-8.4574,-8.4467,-8.3789,-8.3289,-8.3111,-8.1826,-8.1041,-8.0934,-8.0292,-7.9899,-7.9899,-7.9899,-7.9899,-7.9899,-7.9899,-7.9899,-7.9899,-7.9899,-7.9899,0.0,0.0,0.0,0.0,0.0,0.0,0.0,0.0,0.0,0.0,0.0,0.0,0.0,0.0,0.0,0.0,0.0,0.0,0.0,0.0,0.0,0.0,0.0,0.0,0.0,0.0,0.0,0.0,0.0,0.0,-7.5709,-7.6454,-7.7063,-7.7367,-7.8517,-7.9261,-7.96,-8.0006,-8.0209,-8.0209,-8.0209,-8.0209,-8.0209,-8.0209,-8.0209,-8.0209,-8.0209,-8.0209,-8.0209,-8.0209,-8.0209,-8.0376,-8.2313,-8.2998,-8.3296,-8.5182,-8.5909,-8.5909,-8.5909,-8.5909,-8.5909,-8.5909,-8.5909,-8.5909,-8.5909,-8.5909,-8.5909,-8.5909,-8.5909,-8.5909,-8.5909,-8.5909,-8.5909,-8.5909,-8.5909,-8.5909,-8.5797,-8.5531,-8.5045,-8.4055,-8.4155,-8.4139,-8.3549,-8.4075,-8.461,-8.461,-8.461,-8.461,-8.461,-8.461,-8.461,-8.461,-8.461,-8.461,-8.461,-8.4289,-8.386,-8.3432,-8.2754,-8.2005,-8.1148,-8.0756,-8.0363,-7.9935,-7.9899,-7.9899,-7.9899,-7.9899,-7.9899,-7.9899,-7.9899,-7.9899,0.0,0.0,0.0,0.0,0.0,0.0,0.0,0.0,0.0,0.0,0.0,0.0,0.0,0.0,0.0,0.0,0.0,0.0,0.0,0.0,0.0,0.0,0.0,0.0,0.0,0.0,0.0,0.0,0.0,0.0,-7.5709,-7.6284,-7.669,-7.6893,-7.8145,-7.8923,-7.9126,-7.9837,-8.0209,-8.0209,-8.0209,-8.0209,-8.0209,-8.0209,-8.0209,-8.0209,-8.0209,-8.0209,-8.0209,-8.0209,-8.0376,-8.074,-8.2405,-8.3174,-8.3521,-8.5261,-8.5909,-8.5909,-8.5909,-8.5909,-8.5909,-8.5909,-8.5909,-8.5909,-8.5909,-8.5909,-8.5909,-8.5909,-8.5909,-8.5909,-8.5909,-8.5909,-8.5909,-8.5909,-8.5909,-8.5873,-8.5797,-8.5685,-8.5273,-8.4191,-8.455,-8.472,-8.387,-8.4217,-8.461,-8.461,-8.461,-8.461,-8.461,-8.461,-8.461,-8.461,-8.461,-8.461,-8.461,-8.461,-8.436,-8.3718,-8.3504,-8.2861,-8.1719,-8.147,-8.1006,-8.0221,-8.0221,-8.0113,-7.9899,-7.9899,-7.9899,-7.9899,-7.9899,-7.9899,0.0,0.0,0.0,0.0,0.0,0.0,0.0,0.0,0.0,0.0,0.0,0.0,0.0,0.0,0.0,0.0,0.0,0.0,0.0,0.0,0.0,0.0,0.0,0.0,0.0,0.0,0.0,0.0,0.0,0.0,-7.5709,-7.5743,-7.6115,-7.6893,-7.7638,-7.8382,-7.9092,-7.9837,-8.0209,-8.0209,-8.0209,-8.0209,-8.0209,-8.0209,-8.0209,-8.0209,-8.0209,-8.0209,-8.0209,-8.0209,-8.0706,-8.1603,-8.2641,-8.3521,-8.4396,-8.5531,-8.5909,-8.5909,-8.5909,-8.5909,-8.5909,-8.5909,-8.5909,-8.5909,-8.5909,-8.5909,-8.5909,-8.5909,-8.5909,-8.5909,-8.5909,-8.5909,-8.5909,-8.5909,-8.5909,-8.5797,-8.5608,-8.5685,-8.5644,-8.4988,-8.5024,-8.506,-8.462,-8.4574,-8.461,-8.461,-8.461,-8.461,-8.461,-8.461,-8.461,-8.461,-8.461,-8.461,-8.461,-8.461,-8.4574,-8.4538,-8.3825,-8.3361,-8.3254,-8.254,-8.1791,-8.1041,-8.1041,-8.0649,-7.9899,-7.9899,-7.9899,-7.9899,-7.9899,-7.9899,-4.3809,0.0,0.0,0.0,0.0,0.0,0.0,0.0,0.0,0.0,0.0,0.0,0.0,0.0,0.0,0.0,0.0,0.0,0.0,0.0,0.0,0.0,0.0,0.0,0.0,0.0,0.0,0.0,0.0,0.0,-7.5506,-7.2529,-7.236,-7.6014,-7.6893,-7.7874,-7.9092,-7.9837,-8.0209,-8.0209,-8.0209,-8.0209,-8.0209,-8.0209,-8.0209,-8.0209,-8.0209,-8.0209,-8.0209,-8.0209,-8.0706,-8.1698,-8.2641,-8.3521,-8.4513,-8.5531,-8.5909,-8.5909,-8.5909,-8.5909,-8.5909,-8.5909,-8.5909,-8.5909,-8.5909,-8.5909,-8.5909,-8.5909,-8.5909,-8.5909,-8.5909,-8.5909,-8.5909,-8.5909,-8.5909,-8.5873,-8.5797,-8.5797,-8.5797,-8.5375,-8.5218,-8.5139,-8.4819,-8.4692,-8.461,-8.461,-8.461,-8.461,-8.461,-8.461,-8.461,-8.461,-8.461,-8.461,-8.461,-8.461,-8.461,-8.461,-8.4324,-8.3932,-8.3397,-8.3111,-8.2611,-8.1826,-8.1327,-8.072,-7.9899,-7.9899,-7.9899,-7.9899,-7.9899,-7.9899,-4.1102,0.0,0.0,0.0,0.0,0.0,0.0,0.0,0.0,0.0,0.0,0.0,0.0,0.0,0.0,0.0,0.0,0.0,0.0,0.0,0.0,0.0,0.0,0.0,0.0,0.0,0.0,0.0,0.0,0.0,-7.5506,-7.2394,-7.2225,-7.598,-7.6623,-7.7604,-7.9092,-7.96,-7.9972,-8.0209,-8.0209,-8.0209,-8.0209,-8.0209,-8.0209,-8.0209,-8.0209,-8.0209,-8.0209,-8.0209,-8.0902,-8.213,-8.2731,-8.3812,-8.4952,-8.5608,-8.5909,-8.5909,-8.5909,-8.5909,-8.5909,-8.5909,-8.5909,-8.5909,-8.5909,-8.5909,-8.5909,-8.5909,-8.5909,-8.5909,-8.5909,-8.5909,-8.5909,-8.5909,-8.5909,-8.5909,-8.5909,-8.5909,-8.5797,-8.5572,-8.5339,-8.5139,-8.49,-8.4738,-8.461,-8.461,-8.461,-8.461,-8.461,-8.461,-8.461,-8.461,-8.461,-8.461,-8.461,-8.461,-8.461,-8.461,-8.461,-8.436,-8.3825,-8.3789,-8.3432,-8.2611,-8.2112,-8.1362,-8.0292,-8.0042,-7.9899,-7.9899,-7.9899,-7.9899,0.0,0.0,0.0,0.0,0.0,0.0,0.0,0.0,0.0,0.0,0.0,0.0,0.0,0.0,0.0,0.0,0.0,0.0,0.0,0.0,0.0,0.0,0.0,0.0,0.0,0.0,0.0,0.0,0.0,-7.554,-7.5676,-7.5709,-7.6048,-7.6826,-7.6893,-7.7604,-7.9025,-7.9058,-7.9431,-8.0175,-8.0175,-8.0175,-8.0209,-8.0209,-8.0209,-8.0209,-8.0209,-8.0209,-8.0209,-8.0209,-8.1352,-8.2998,-8.2998,-8.4184,-8.5909,-8.5909,-8.5909,-8.5909,-8.5909,-8.5909,-8.5909,-8.5909,-8.5909,-8.5909,-8.5909,-8.5909,-8.5909,-8.5909,-8.5909,-8.5909,-8.5909,-8.5909,-8.5909,-8.5909,-8.5909,-8.5909,-8.5909,-8.5909,-8.5797,-8.5572,-8.5339,-8.5139,-8.498,-8.4738,-8.461,-8.461,-8.461,-8.461,-8.461,-8.461,-8.461,-8.461,-8.461,-8.461,-8.461,-8.461,-8.461,-8.461,-8.461,-8.461,-8.461,-8.461,-8.4253,-8.3432,-8.3397,-8.2647,-8.1184,-8.0328,-7.9935,-7.9899,-7.9899,-7.9899,-3.5622,0.0,0.0,0.0,0.0,0.0,0.0,0.0,0.0,0.0,0.0,0.0,0.0,0.0,0.0,0.0,0.0,0.0,0.0,0.0,0.0,0.0,0.0,0.0,0.0,0.0,0.0,0.0,-7.1825,-7.1136,-7.4896,-7.5097,-7.5198,-7.5433,-7.6395,-7.6868,-7.6843,-7.738,-7.8051,-7.879,-7.879,-7.9263,-8.0209,-8.0209,-8.0209,-8.0209,-8.0209,-8.0209,-8.0209,-8.0209,-8.1352,-8.2998,-8.2998,-8.4184,-8.5909,-8.5909,-8.5909,-8.5909,-8.5909,-8.5909,-8.5909,-8.5909,-8.5909,-8.5909,-8.5909,-8.5909,-8.5909,-8.5909,-8.5909,-8.5909,-8.5909,-8.5909,-8.5909,-8.5909,-8.5909,-8.5909,-8.5909,-8.5909,-8.5909,-8.5797,-8.5608,-8.5417,-8.5339,-8.5218,-8.498,-8.4819,-8.4819,-8.4738,-8.461,-8.461,-8.461,-8.461,-8.461,-8.461,-8.461,-8.461,-8.461,-8.461,-8.461,-8.461,-8.461,-8.461,-8.4503,-8.4289,-8.3682,-8.3182,-8.2754,-8.1398,-8.047,-7.9899,-7.9899,-7.9899,-3.5441,-3.5441,-3.5689,0.0,0.0,0.0,0.0,0.0,0.0,0.0,0.0,0.0,0.0,0.0,0.0,0.0,0.0,0.0,0.0,0.0,0.0,0.0,0.0,0.0,0.0,0.0,0.0,0.0,-7.2591,-7.2001,-7.5026,-7.5,-7.4902,-7.4902,-7.5435,-7.5739,-7.5706,-7.6139,-7.674,-7.7474,-7.7774,-7.8484,-7.9432,-7.9735,-7.9972,-8.0209,-8.0209,-8.0209,-8.0209,-8.0209,-8.1097,-8.2496,-8.282,-8.3897,-8.5339,-8.5721,-8.5909,-8.5909,-8.5909,-8.5909,-8.5909,-8.5909,-8.5909,-8.5909,-8.5909,-8.5909,-8.5909,-8.5909,-8.5909,-8.5909,-8.5909,-8.5909,-8.5909,-8.5909,-8.5909,-8.5909,-8.5909,-8.5909,-8.5909,-8.5909,-8.5685,-8.5495,-8.5495,-8.5339,-8.5139,-8.49,-8.49,-8.4819,-8.461,-8.461,-8.461,-8.461,-8.461,-8.461,-8.461,-8.461,-8.461,-8.461,-8.461,-8.461,-8.461,-8.461,-8.461,-8.461,-8.4146,-8.3718,-8.3397,-8.1862,-8.0684,-7.9899,-7.9899,-7.9899,-3.5232,-3.5245,-3.5505,-3.6375,0.0,0.0,-3.8159,-4.6515,0.0,0.0,0.0,0.0,0.0,0.0,0.0,0.0,0.0,0.0,0.0,0.0,0.0,0.0,0.0,0.0,0.0,0.0,-7.5709,-7.5709,-7.558,-7.5614,-7.5484,-7.5097,-7.4803,-7.4803,-7.4306,-7.4436,-7.4963,-7.4996,-7.5327,-7.6055,-7.6716,-7.7428,-7.818,-7.8816,-7.9461,-7.9972,-8.0074,-8.0107,-8.0107,-8.0209,-8.0706,-8.1698,-8.2496,-8.3434,-8.4513,-8.5417,-8.5797,-8.5909,-8.5909,-8.5909,-8.5909,-8.5909,-8.5909,-8.5909,-8.5909,-8.5909,-8.5909,-8.5909,-8.5909,-8.5909,-8.5909,-8.5909,-8.5909,-8.5909,-8.5909,-8.5909,-8.5909,-8.5909,-8.5909,-8.5909,-8.5685,-8.5572,-8.5572,-8.5375,-8.5218,-8.498,-8.49,-8.4819,-8.461,-8.461,-8.461,-8.461,-8.461,-8.461,-8.461,-8.461,-8.461,-8.461,-8.461,-8.461,-8.461,-8.461,-8.461,-8.461,-8.461,-8.4217,-8.3397,-8.1862,-8.072,-8.0042,-7.9935,-7.9899,0.0,-3.5011,0.0,0.0,0.0,0.0,-3.6253,-3.9377,0.0,0.0,0.0,0.0,0.0,0.0,0.0,0.0,0.0,0.0,0.0,0.0,0.0,0.0,0.0,0.0,0.0,0.0,-7.5709,-7.5709,-7.5291,-7.4902,-7.4406,-7.4306,-7.4306,-7.4306,-7.4206,-7.3968,-7.3722,-7.3722,-7.4084,-7.4806,-7.4938,-7.5944,-7.7594,-7.7727,-7.8126,-7.8902,-7.9321,-7.9425,-7.9528,-7.9972,-8.0706,-8.1603,-8.1792,-8.2909,-8.4396,-8.4595,-8.5225,-8.5909,-8.5909,-8.5909,-8.5909,-8.5909,-8.5909,-8.5909,-8.5909,-8.5909,-8.5909,-8.5909,-8.5909,-8.5909,-8.5909,-8.5909,-8.5909,-8.5909,-8.5909,-8.5909,-8.5909,-8.5909,-8.5909,-8.5909,-8.5873,-8.5797,-8.5797,-8.5797,-8.5644,-8.5218,-8.5139,-8.498,-8.461,-8.461,-8.461,-8.461,-8.461,-8.461,-8.461,-8.461,-8.461,-8.461,-8.461,-8.461,-8.461,-8.461,-8.461,-8.461,-8.461,-8.4217,-8.3397,-8.1862,-8.1006,-8.0863,-8.0221,-7.9899,0.0,0.0,0.0,-3.5198,0.0,0.0,0.0,-3.9918,0.0,0.0,0.0,0.0,0.0,0.0,0.0,0.0,0.0,0.0,0.0,0.0,0.0,0.0,0.0,0.0,0.0,0.0,-7.5709,-7.5709,-7.5194,-7.4803,-7.4506,-7.4003,-7.3698,-7.3698,-7.3389,-7.3214,-7.29,-7.29,-7.3095,-7.3453,-7.3812,-7.4653,-7.5905,-7.663,-7.7371,-7.7947,-7.863,-7.9008,-7.9321,-7.9665,-8.0242,-8.1,-8.1448,-8.2222,-8.3086,-8.4065,-8.4676,-8.5225,-8.5721,-8.5909,-8.5909,-8.5909,-8.5909,-8.5909,-8.5909,-8.5909,-8.5909,-8.5909,-8.5909,-8.5909,-8.5909,-8.5909,-8.5909,-8.5909,-8.5909,-8.5909,-8.5909,-8.5909,-8.5909,-8.5909,-8.5909,-8.5909,-8.5909,-8.5909,-8.5721,-8.5297,-8.5218,-8.506,-8.4692,-8.461,-8.461,-8.461,-8.461,-8.461,-8.461,-8.461,-8.461,-8.461,-8.461,-8.461,-8.461,-8.461,-8.461,-8.461,-8.461,-8.4396,-8.4003,-8.2826,-8.1862,-8.1077,-8.0684,-8.0292,0.0,0.0,0.0,0.0,0.0,-3.5866,0.0,0.0,0.0,0.0,0.0,0.0,0.0,0.0,0.0,0.0,0.0,0.0,0.0,0.0,0.0,0.0,0.0,0.0,0.0,0.0,-7.4627,-7.5608,-7.5291,-7.5,-7.4902,-7.4003,-7.3389,-7.3285,-7.2794,-7.2508,-7.2508,-7.2508,-7.2508,-7.2508,-7.3091,-7.363,-7.4326,-7.5504,-7.6407,-7.7099,-7.78,-7.8452,-7.9008,-7.9217,-7.9562,-8.0074,-8.0966,-8.1413,-8.1792,-8.3261,-8.4065,-8.4513,-8.5339,-8.5721,-8.5909,-8.5909,-8.5909,-8.5909,-8.5909,-8.5909,-8.5909,-8.5909,-8.5909,-8.5909,-8.5909,-8.5909,-8.5909,-8.5909,-8.5909,-8.5909,-8.5909,-8.5909,-8.5909,-8.5909,-8.5909,-8.5909,-8.5909,-8.5909,-8.5721,-8.5297,-8.5218,-8.506,-8.4692,-8.461,-8.461,-8.461,-8.461,-8.461,-8.461,-8.461,-8.461,-8.461,-8.461,-8.461,-8.461,-8.461,-8.461,-8.461,-8.461,-8.461,-8.461,-8.3932,-8.2826,-8.1291,-8.1184,-8.0684,0.0,0.0,0.0,0.0,-3.6073,0.0,0.0,0.0,0.0,0.0,0.0,0.0,0.0,0.0,0.0,0.0,0.0,0.0,0.0,0.0,0.0,0.0,0.0,0.0,0.0,0.0,0.0,-7.5337,-7.558,-7.5388,-7.4902,-7.4306,-7.38,-7.3318,-7.2794,-7.2508,-7.2508,-7.2508,-7.2508,-7.2508,-7.2573,-7.2962,-7.3685,-7.3847,-7.4626,-7.5936,-7.6551,-7.7162,-7.7829,-7.8902,-7.9321,-7.9425,-8.0074,-8.0902,-8.1603,-8.1886,-8.2998,-8.4431,-8.4513,-8.5147,-8.5909,-8.5909,-8.5909,-8.5909,-8.5909,-8.5909,-8.5909,-8.5909,-8.5909,-8.5909,-8.5909,-8.5909,-8.5909,-8.5909,-8.5909,-8.5909,-8.5909,-8.5909,-8.5909,-8.5909,-8.5909,-8.5909,-8.5909,-8.5909,-8.5797,-8.5495,-8.5261,-8.5139,-8.49,-8.4692,-8.461,-8.461,-8.461,-8.461,-8.461,-8.461,-8.461,-8.461,-8.461,-8.461,-8.461,-8.461,-8.461,-8.461,-8.461,-8.461,-8.461,-8.4503,-8.3646,-8.2076,-8.1398,-8.0684,0.0,0.0,0.0,0.0,0.0,0.0,-4.1073,0.0,-3.7599,0.0,0.0,0.0,0.0,0.0,0.0,0.0,0.0,0.0,0.0,0.0,0.0,0.0,0.0,0.0,0.0,0.0,0.0,0.0,0.0,-7.0162,-7.0381,-7.2481,-7.3492,-7.3285,-7.2794,-7.2508,-7.2508,-7.2508,-7.2508,-7.2508,-7.2508,-7.267,-7.2962,-7.3383,-7.3901,-7.4516,-7.5579,-7.6616,-7.7528,-7.8525,-7.9217,-7.987,-8.0074,-8.0476,-8.0804,-8.1448,-8.213,-8.282,-8.3348,-8.3897,-8.4267,-8.4872,-8.5417,-8.5909,-8.5909,-8.5909,-8.5909,-8.5909,-8.5909,-8.5909,-8.5909,-8.5909,-8.5909,-8.5909,-8.5909,-8.5909,-8.5909,-8.5909,-8.5909,-8.5909,-8.5909,-8.5909,-8.5909,-8.5909,-8.5797,-8.5495,-8.5375,-8.5139,-8.49,-8.4738,-8.461,-8.461,-8.461,-8.461,-8.461,-8.461,-8.461,-8.461,-8.461,-8.461,-8.461,-8.461,-8.461,-8.461,-8.461,-8.461,-8.461,-8.461,-8.4003,-8.2861,-8.2112,-8.1327,-4.6698,0.0,0.0,0.0,0.0,0.0,0.0,0.0,0.0,0.0,0.0,0.0,0.0,0.0,-3.9441,-4.0221,0.0,0.0,0.0,0.0,0.0,0.0,0.0,0.0,0.0,0.0,0.0,0.0,-6.5834,-6.6417,-6.6778,-7.1223,-7.3595,-7.3285,-7.311,-7.29,-7.2688,-7.2688,-7.2688,-7.2688,-7.2688,-7.2688,-7.2721,-7.3241,-7.3598,-7.3825,-7.4897,-7.6093,-7.7206,-7.8053,-7.905,-7.9972,-8.0107,-8.0209,-8.0276,-8.1,-8.1352,-8.1698,-8.2405,-8.2909,-8.3521,-8.4148,-8.5067,-8.5909,-8.5909,-8.5909,-8.5909,-8.5909,-8.5909,-8.5909,-8.5909,-8.5909,-8.5909,-8.5909,-8.5909,-8.5909,-8.5909,-8.5909,-8.5909,-8.5909,-8.5909,-8.5909,-8.5909,-8.5909,-8.5797,-8.5608,-8.5375,-8.5139,-8.498,-8.4773,-8.461,-8.461,-8.461,-8.461,-8.461,-8.461,-8.461,-8.461,-8.461,-8.461,-8.461,-8.461,-8.461,-8.461,-8.461,-8.461,-8.461,-8.461,-8.4289,-8.3718,-8.2897,-8.2005,0.0,0.0,0.0,-4.7313,0.0,0.0,0.0,0.0,-3.7307,0.0,0.0,0.0,0.0,-3.9007,-3.9222,-3.9222,-3.9222,0.0,0.0,0.0,0.0,0.0,0.0,0.0,0.0,0.0,0.0,-5.8254,-6.3565,-6.6558,-6.6042,-7.1626,-7.4406,-7.3285,-7.38,-7.38,-7.3285,-7.3285,-7.3285,-7.3285,-7.3285,-7.3285,-7.3318,-7.3318,-7.3711,-7.4399,-7.4432,-7.5251,-7.667,-7.7732,-7.8685,-7.9425,-7.9972,-8.0209,-8.0209,-8.0175,-8.0804,-8.1603,-8.1603,-8.282,-8.4314,-8.4396,-8.5067,-8.5909,-8.5909,-8.5909,-8.5909,-8.5909,-8.5909,-8.5909,-8.5909,-8.5909,-8.5909,-8.5909,-8.5909,-8.5909,-8.5909,-8.5909,-8.5909,-8.5909,-8.5909,-8.5909,-8.5909,-8.5909,-8.5909,-8.5909,-8.5489,-8.5218,-8.5218,-8.4819,-8.461,-8.461,-8.461,-8.461,-8.461,-8.461,-8.461,-8.461,-8.461,-8.461,-8.461,-8.461,-8.461,-8.461,-8.461,-8.461,-8.461,-8.461,-8.461,-8.4538,-8.3718,-8.254,0.0,0.0,-6.0591,-5.8389,0.0,0.0,0.0,0.0,0.0,0.0,0.0,0.0,0.0,-3.86,-3.8897,-3.9578,-3.9249,-3.9117,0.0,0.0,0.0,0.0,0.0,0.0,0.0,0.0,0.0,-5.2401,-5.416,-5.5376,0.0,-6.4372,-6.9036,-6.9224,-7.2447,-7.4003,-7.38,-7.38,-7.38,-7.38,-7.38,-7.38,-7.38,-7.38,-7.3932,-7.4196,-7.4691,-7.5393,-7.6335,-7.761,-7.8589,-7.9196,-7.9905,-8.0209,-8.0209,-8.0209,-8.0376,-8.0641,-8.0641,-8.1509,-8.2641,-8.3261,-8.4148,-8.5067,-8.5721,-8.5909,-8.5909,-8.5909,-8.5909,-8.5909,-8.5909,-8.5909,-8.5909,-8.5909,-8.5909,-8.5909,-8.5909,-8.5909,-8.5909,-8.5909,-8.5909,-8.5909,-8.5909,-8.5909,-8.5909,-8.5909,-8.5489,-8.5218,-8.5218,-8.4855,-8.461,-8.461,-8.461,-8.461,-8.461,-8.461,-8.461,-8.461,-8.461,-8.461,-8.461,-8.461,-8.461,-8.461,-8.461,-8.461,-8.461,-8.461,-8.461,-8.461,-8.4324,-8.3611,-6.6031,-6.7035,0.0,-6.4509,-6.0882,0.0,-5.5215,0.0,0.0,0.0,0.0,0.0,0.0,-4.1419,-4.0961,-3.9569,-3.8949,-3.8874,0.0,-3.9325,0.0,0.0,0.0,0.0,0.0,0.0,-4.4147,-4.638,-4.8071,-4.9424,0.0,0.0,-6.6417,-6.6711,-7.1866,-7.4605,-7.4406,-7.4406,-7.4406,-7.4406,-7.4406,-7.4406,-7.4406,-7.4406,-7.4406,-7.4406,-7.4905,-7.5472,-7.6073,-7.7246,-7.8286,-7.916,-7.9634,-7.9972,-8.0209,-8.0209,-8.0209,-8.0209,-8.0209,-8.0804,-8.1698,-8.2313,-8.3348,-8.4513,-8.5147,-8.5608,-8.6018,-8.6485,-8.6267,-8.6018,-8.6521,-8.6231,-8.5909,-8.5909,-8.5909,-8.5909,-8.5909,-8.5909,-8.5909,-8.5909,-8.5909,-8.5909,-8.5909,-8.5909,-8.5909,-8.5909,-8.5531,-8.5297,-8.5218,-8.49,-8.4692,-8.461,-8.461,-8.461,-8.461,-8.461,-8.461,-8.461,-8.461,-8.461,-8.461,-8.461,-8.461,-8.461,-8.461,-8.461,-8.461,-8.461,-8.461,-8.461,-8.461,-8.4324]}]]